[[{"header":{"parameterUnit":"m.s-1","parameterCategory":1,"la1":31.0,"la2":29.5877,"lo1":-88.7671,"lo2":-86.6584,"dy":0.0162,"dx":0.0185,"nx":115,"ny":88,"refTime":"2023-05-30T18:00:00:Z","depth":0,"parameterNumber":2,"parameterNumberName":"U-component_of_WINDS"},"data":[0.0,0.0,0.0,0.0,0.0,0.0,0.0,0.0,0.0,0.0,0.0,0.0,0.0,0.0,0.0,0.0,0.0,0.0,0.0,0.0,0.0,0.0,0.0,0.0,0.0,0.0,0.0,0.0,0.0,0.0,0.0,0.0,0.0,0.0,0.0,0.0,0.0,0.0,0.0,0.0,0.0,0.0,0.0,0.0,0.0,0.0,0.0,0.0,0.0,0.0,0.0,0.0,0.0,0.0,0.0,0.0,0.0,0.0,0.0,0.0,0.0,0.0,0.0,0.0,0.0,0.0,0.0,0.0,0.0,0.0,0.0,0.0,0.0,0.0,0.0,0.0,0.0,0.0,0.0,0.0,0.0,0.0,0.0,0.0,0.0,0.0,0.0,0.0,0.0,0.0,0.0,0.0,0.0,0.0,0.0,0.0,0.0,0.0,0.0,0.0,0.0,0.0,0.0,0.0,0.0,0.0,0.0,0.0,0.0,0.0,0.0,0.0,0.0,0.0,0.0,0.0,0.0,0.0,0.0,0.0,0.0,0.0,0.0,0.0,0.0,0.0,0.0,0.0,0.0,0.0,0.0,0.0,0.0,0.0,0.0,0.0,0.0,0.0,0.0,0.0,0.0,0.0,0.0,0.0,0.0,0.0,0.0,0.0,0.0,0.0,0.0,0.0,0.0,0.0,0.0,0.0,0.0,0.0,0.0,0.0,0.0,0.0,0.0,0.0,0.0,0.0,0.0,0.0,0.0,0.0,0.0,0.0,0.0,0.0,0.0,0.0,0.0,0.0,0.0,0.0,0.0,0.0,0.0,0.0,0.0,0.0,0.0,0.0,0.0,0.0,0.0,0.0,0.0,0.0,0.0,0.0,0.0,0.0,0.0,0.0,0.0,0.0,0.0,0.0,0.0,0.0,0.0,0.0,0.0,0.0,0.0,0.0,0.0,0.0,0.0,0.0,0.0,0.0,0.0,0.0,0.0,0.0,0.0,0.0,0.0,0.0,0.0,0.0,0.0,0.0,0.0,0.0,0.0,0.0,0.0,0.0,0.0,0.0,0.0,0.0,0.0,0.0,0.0,0.0,0.0,0.0,0.0,0.0,0.0,0.0,0.0,0.0,0.0,0.0,0.0,0.0,0.0,0.0,0.0,0.0,0.0,0.0,0.0,0.0,0.0,0.0,0.0,0.0,0.0,0.0,0.0,0.0,0.0,0.0,0.0,0.0,0.0,0.0,0.0,0.0,0.0,0.0,0.0,0.0,0.0,0.0,0.0,0.0,0.0,0.0,0.0,0.0,0.0,0.0,0.0,0.0,0.0,0.0,0.0,0.0,0.0,0.0,0.0,0.0,0.0,0.0,0.0,0.0,0.0,0.0,0.0,0.0,0.0,0.0,0.0,0.0,0.0,0.0,0.0,0.0,0.0,0.0,0.0,0.0,0.0,0.0,0.0,0.0,0.0,0.0,0.0,0.0,0.0,0.0,0.0,0.0,0.0,0.0,0.0,0.0,0.0,0.0,0.0,0.0,0.0,0.0,0.0,0.0,0.0,0.0,0.0,0.0,0.0,0.0,0.0,0.0,0.0,0.0,0.0,0.0,0.0,0.0,0.0,0.0,0.0,0.0,0.0,0.0,0.0,0.0,0.0,0.0,0.0,0.0,0.0,0.0,0.0,0.0,0.0,0.0,0.0,0.0,0.0,0.0,0.0,0.0,0.0,0.0,0.0,0.0,0.0,0.0,0.0,0.0,0.0,0.0,0.0,0.0,0.0,0.0,0.0,0.0,0.0,0.0,0.0,0.0,0.0,0.0,0.0,0.0,0.0,0.0,0.0,0.0,0.0,0.0,0.0,0.0,0.0,0.0,0.0,0.0,0.0,0.0,0.0,0.0,0.0,0.0,0.0,0.0,0.0,0.0,0.0,0.0,0.0,0.0,0.0,0.0,0.0,0.0,0.0,0.0,0.0,0.0,0.0,0.0,0.0,0.0,0.0,0.0,0.0,0.0,0.0,0.0,0.0,0.0,0.0,0.0,0.0,0.0,0.0,0.0,0.0,0.0,0.0,0.0,0.0,0.0,0.0,0.0,0.0,0.0,0.0,0.0,0.0,0.0,0.0,0.0,0.0,0.0,0.0,0.0,0.0,0.0,0.0,0.0,0.0,0.0,0.0,0.0,0.0,0.0,0.0,0.0,0.0,0.0,0.0,0.0,0.0,0.0,0.0,0.0,0.0,0.0,0.0,0.0,0.0,0.0,0.0,0.0,0.0,0.0,0.0,0.0,0.0,0.0,0.0,0.0,0.0,0.0,0.0,0.0,0.0,0.0,0.0,0.0,0.0,0.0,0.0,0.0,0.0,0.0,0.0,0.0,0.0,0.0,0.0,0.0,0.0,0.0,0.0,0.0,0.0,0.0,0.0,0.0,0.0,0.0,0.0,0.0,0.0,0.0,0.0,0.0,0.0,0.0,0.0,0.0,0.0,0.0,0.0,0.0,0.0,0.0,0.0,0.0,0.0,0.0,0.0,0.0,0.0,0.0,0.0,0.0,0.0,0.0,0.0,0.0,0.0,0.0,0.0,0.0,0.0,0.0,0.0,0.0,0.0,0.0,0.0,0.0,0.0,0.0,0.0,0.0,0.0,0.0,0.0,0.0,0.0,0.0,0.0,0.0,0.0,0.0,0.0,0.0,0.0,0.0,0.0,0.0,0.0,0.0,0.0,0.0,0.0,0.0,0.0,0.0,0.0,0.0,0.0,0.0,0.0,0.0,0.0,0.0,0.0,0.0,0.0,0.0,0.0,0.0,0.0,0.0,0.0,0.0,0.0,0.0,0.0,0.0,0.0,0.0,0.0,0.0,0.0,0.0,0.0,0.0,0.0,0.0,0.0,0.0,0.0,0.0,0.0,0.0,0.0,0.0,0.0,0.0,0.0,0.0,0.0,0.0,0.0,0.0,0.0,0.0,0.0,0.0,0.0,0.0,0.0,0.0,0.0,0.0,0.0,0.0,0.0,0.0,0.0,0.0,0.0,0.0,0.0,0.0,0.0,0.0,0.0,0.0,0.0,0.0,0.0,0.0,0.0,0.0,0.0,0.0,0.0,0.0,0.0,0.0,0.0,0.0,0.0,0.0,0.0,0.0,0.0,0.0,0.0,0.0,0.0,0.0,0.0,0.0,0.0,0.0,0.0,0.0,0.0,0.0,0.0,0.0,0.0,0.0,0.0,0.0,0.0,0.0,0.0,0.0,0.0,0.0,0.0,0.0,0.0,0.0,0.0,0.0,0.0,0.0,0.0,0.0,0.0,0.0,0.0,0.0,0.0,0.0,0.0,0.0,0.0,0.0,0.0,0.0,0.0,0.0,0.0,0.0,0.0,0.0,0.0,0.0,0.0,0.0,0.0,0.0,0.0,0.0,0.0,0.0,0.0,0.0,0.0,0.0,0.0,0.0,0.0,0.0,0.0,0.0,0.0,0.0,0.0,0.0,0.0,0.0,0.0,0.0,0.0,0.0,0.0,0.0,0.0,0.0,0.0,0.0,0.0,0.0,0.0,0.0,0.0,0.0,0.0,0.0,0.0,0.0,0.0,0.0,0.0,0.0,0.0,0.0,0.0,0.0,0.0,0.0,0.0,0.0,0.0,0.0,0.0,0.0,0.0,0.0,0.0,0.0,0.0,0.0,0.0,0.0,0.0,0.0,0.0,0.0,0.0,0.0,0.0,0.0,0.0,0.0,0.0,0.0,0.0,0.0,0.0,0.0,0.0,0.0,0.0,0.0,0.0,0.0,0.0,0.0,0.0,0.0,0.0,0.0,0.0,0.0,0.0,0.0,0.0,0.0,0.0,0.0,0.0,0.0,0.0,0.0,0.0,0.0,0.0,0.0,0.0,0.0,0.0,0.0,0.0,0.0,0.0,0.0,0.0,0.0,0.0,0.0,0.0,0.0,0.0,0.0,0.0,0.0,0.0,0.0,0.0,0.0,0.0,0.0,0.0,0.0,0.0,0.0,0.0,0.0,0.0,0.0,0.0,0.0,0.0,0.0,0.0,0.0,0.0,0.0,0.0,0.0,0.0,0.0,0.0,0.0,0.0,0.0,0.0,0.0,0.0,0.0,0.0,0.0,0.0,0.0,0.0,0.0,0.0,0.0,0.0,0.0,0.0,0.0,0.0,0.0,0.0,0.0,0.0,0.0,0.0,0.0,0.0,0.0,0.0,0.0,0.0,0.0,0.0,0.0,0.0,0.0,0.0,0.0,0.0,0.0,0.0,0.0,0.0,0.0,2.9192,0.0,0.0,0.0,0.0,0.0,0.0,0.0,0.0,0.0,0.0,0.0,0.0,0.0,0.0,0.0,0.0,0.0,0.0,0.0,0.0,0.0,0.0,0.0,0.0,0.0,0.0,0.0,0.0,0.0,0.0,0.0,0.0,0.0,0.0,0.0,0.0,0.0,0.0,0.0,0.0,0.0,0.0,0.0,0.0,0.0,0.0,0.0,0.0,0.0,0.0,0.0,0.0,0.0,0.0,0.0,0.0,0.0,0.0,0.0,0.0,0.0,0.0,0.0,0.0,0.0,0.0,0.0,0.0,0.0,0.0,0.0,0.0,0.0,0.0,0.0,0.0,0.0,0.0,0.0,0.0,0.0,0.0,0.0,0.0,0.0,0.0,0.0,0.0,0.0,0.0,0.0,0.0,0.0,0.0,0.0,0.0,0.0,0.0,0.0,0.0,0.0,0.0,0.0,0.0,0.0,0.0,0.0,0.0,0.0,0.0,2.8312,2.8312,2.7339,2.7059,2.7499,0.0,0.0,0.0,0.0,0.0,0.0,0.0,0.0,0.0,0.0,0.0,0.0,0.0,0.0,0.0,0.0,0.0,0.0,0.0,0.0,0.0,0.0,0.0,0.0,0.0,0.0,0.0,0.0,0.0,0.0,0.0,0.0,0.0,0.0,0.0,0.0,0.0,0.0,0.0,0.0,0.0,0.0,0.0,0.0,0.0,0.0,0.0,0.0,0.0,0.0,0.0,0.0,0.0,0.0,0.0,0.0,0.0,0.0,0.0,0.0,0.0,0.0,0.0,0.0,0.0,0.0,0.0,0.0,0.0,0.0,0.0,0.0,0.0,0.0,0.0,0.0,0.0,0.0,0.0,0.0,0.0,0.0,0.0,0.0,0.0,0.0,0.0,0.0,0.0,0.0,0.0,0.0,0.0,0.0,0.0,0.0,0.0,0.0,0.0,0.0,0.0,0.0,0.0,0.0,0.0,0.0,0.0,0.0,0.0,0.0,0.0,0.0,2.4803,2.4376,2.5329,0.0,0.0,0.0,0.0,0.0,0.0,0.0,0.0,0.0,0.0,0.0,0.0,0.0,0.0,0.0,0.0,0.0,0.0,0.0,0.0,0.0,0.0,0.0,0.0,0.0,0.0,0.0,0.0,0.0,0.0,0.0,0.0,0.0,0.0,0.0,0.0,0.0,0.0,0.0,0.0,0.0,0.0,0.0,0.0,0.0,0.0,0.0,0.0,0.0,0.0,0.0,0.0,0.0,0.0,0.0,0.0,0.0,0.0,0.0,0.0,0.0,0.0,0.0,0.0,0.0,0.0,0.0,0.0,0.0,0.0,0.0,0.0,0.0,0.0,0.0,0.0,0.0,0.0,0.0,0.0,0.0,0.0,0.0,0.0,0.0,0.0,0.0,0.0,0.0,0.0,0.0,0.0,0.0,0.0,0.0,0.0,0.0,0.0,0.0,0.0,0.0,0.0,0.0,0.0,0.0,0.0,0.0,0.0,0.0,0.0,2.2444,2.2381,2.1281,0.0,2.237,0.0,0.0,0.0,0.0,0.0,0.0,0.0,0.0,0.0,0.0,0.0,0.0,0.0,0.0,0.0,0.0,0.0,0.0,0.0,0.0,0.0,0.0,0.0,0.0,0.0,0.0,0.0,0.0,0.0,0.0,0.0,0.0,0.0,0.0,0.0,0.0,0.0,0.0,0.0,0.0,0.0,0.0,0.0,0.0,0.0,0.0,0.0,0.0,0.0,0.0,0.0,0.0,0.0,0.0,0.0,0.0,0.0,0.0,0.0,0.0,0.0,0.0,0.0,0.0,0.0,0.0,0.0,0.0,0.0,0.0,0.0,0.0,0.0,0.0,0.0,0.0,0.0,0.0,0.0,0.0,0.0,0.0,0.0,0.0,0.0,0.0,0.0,0.0,0.0,0.0,0.0,0.0,0.0,0.0,0.0,0.0,0.0,0.0,0.0,0.0,0.0,0.0,0.0,0.0,0.0,0.0,0.0,0.0,0.0,0.0,1.921,1.7854,1.6797,1.7142,0.0,0.0,0.0,0.0,0.0,0.0,0.0,0.0,0.0,0.0,0.0,0.0,0.0,0.0,0.0,0.0,0.0,0.0,0.0,0.0,0.0,0.0,0.0,0.0,0.0,0.0,0.0,0.0,0.0,0.0,0.0,0.0,0.0,0.0,0.0,0.0,0.0,0.0,0.0,0.0,0.0,0.0,0.0,0.0,0.0,0.0,0.0,0.0,0.0,0.0,0.0,0.0,0.0,0.0,0.0,0.0,0.0,0.0,0.0,0.0,0.0,0.0,0.0,0.0,0.0,0.0,0.0,0.0,0.0,0.0,0.0,0.0,0.0,0.0,0.0,0.0,0.0,0.0,0.0,0.0,0.0,0.0,0.0,0.0,0.0,0.0,0.0,0.0,0.0,0.0,0.0,0.0,0.0,0.0,0.0,0.0,0.0,0.0,0.0,0.0,0.0,0.0,0.0,0.0,0.0,0.0,0.0,0.0,0.0,0.0,1.5802,1.3996,1.1491,1.1542,1.2367,1.379,0.0,0.0,0.0,0.0,0.0,0.0,0.0,0.0,0.0,0.0,0.0,0.0,0.0,0.0,0.0,0.0,0.0,0.0,0.0,0.0,0.0,0.0,0.0,0.0,0.0,0.0,0.0,0.0,0.0,0.0,0.0,0.0,0.0,0.0,0.0,0.0,0.0,0.0,0.0,0.0,0.0,0.0,0.0,0.0,0.0,0.0,0.0,0.0,0.0,0.0,0.0,0.0,0.0,0.0,0.0,0.0,0.0,0.0,0.0,0.0,0.0,0.0,0.0,0.0,0.0,0.0,0.0,0.0,0.0,0.0,0.0,0.0,0.0,0.0,0.0,0.0,0.0,0.0,0.0,0.0,0.0,0.0,0.0,0.0,0.0,0.0,0.0,0.0,0.0,0.0,0.0,0.0,0.0,0.0,0.0,0.0,0.0,0.0,0.0,0.0,0.0,0.0,0.0,0.0,0.0,0.0,0.0,0.0,1.196,0.8901,0.5721,0.2459,0.5381,0.6658,0.0,0.0,0.0,0.0,0.0,0.0,0.0,0.0,0.0,0.0,0.0,0.0,0.0,0.0,0.0,0.0,0.0,0.0,0.0,0.0,0.0,0.0,0.0,0.0,0.0,0.0,0.0,0.0,0.0,0.0,0.0,0.0,0.0,0.0,0.0,0.0,0.0,0.0,0.0,0.0,0.0,0.0,0.0,0.0,0.0,0.0,0.0,0.0,0.0,0.0,0.0,0.0,0.0,0.0,0.0,0.0,0.0,0.0,0.0,0.0,0.0,0.0,0.0,0.0,0.0,0.0,0.0,0.0,0.0,0.0,0.0,0.0,0.0,0.0,0.0,0.0,0.0,0.0,0.0,0.0,0.0,0.0,0.0,0.0,0.0,0.0,0.0,0.0,0.0,0.0,0.0,0.0,0.0,0.0,0.0,0.0,0.0,0.0,0.0,0.0,0.0,0.0,0.0,0.0,0.0,0.0,0.0,0.0,0.0,0.3168,-0.1961,-0.5462,-0.708,-0.5533,-0.3887,0.0,0.0,0.0,0.0,0.0,0.0,0.0,0.0,0.0,0.0,0.0,0.0,0.0,0.0,0.0,0.0,0.0,0.0,0.0,0.0,0.0,0.0,0.0,0.0,0.0,0.0,0.0,0.0,0.0,0.0,0.0,0.0,0.0,0.0,0.0,0.0,0.0,0.0,0.0,0.0,0.0,0.0,0.0,0.0,0.0,0.0,0.0,0.0,0.0,0.0,0.0,0.0,0.0,0.0,0.0,0.0,0.0,0.0,0.0,0.0,0.0,0.0,0.0,0.0,0.0,0.0,0.0,0.0,0.0,0.0,0.0,0.0,0.0,0.0,0.0,0.0,0.0,0.0,0.0,0.0,0.0,0.0,0.0,0.0,0.0,0.0,0.0,0.0,0.0,0.0,0.0,0.0,0.0,0.0,0.0,0.0,0.0,0.0,0.0,0.0,0.0,0.0,0.0,0.0,0.0,0.0,0.0,0.0,0.0,-0.7269,0.0,-1.5041,-1.563,-1.4696,-1.3128,0.0,0.0,0.0,0.0,0.0,0.0,0.0,0.0,0.0,0.0,0.0,0.0,0.0,0.0,0.0,0.0,0.0,0.0,0.0,0.0,0.0,0.0,0.0,0.0,0.0,0.0,0.0,0.0,0.0,0.0,0.0,0.0,0.0,0.0,0.0,0.0,0.0,0.0,0.0,0.0,0.0,0.0,0.0,0.0,0.0,0.0,0.0,0.0,0.0,0.0,0.0,0.0,0.0,0.0,0.0,0.0,0.0,0.0,0.0,0.0,0.0,0.0,0.0,0.0,0.0,0.0,0.0,0.0,0.0,0.0,0.0,0.0,0.0,0.0,0.0,0.0,0.0,0.0,0.0,0.0,0.0,0.0,0.0,0.0,0.0,0.0,0.0,0.0,0.0,0.0,0.0,0.0,0.0,0.0,0.0,0.0,0.0,0.0,0.0,0.0,0.0,0.0,0.0,0.0,0.0,0.0,0.0,0.0,-1.2935,-1.9081,-2.1213,-2.2516,-2.2929,-2.1458,-2.0445,0.0,0.0,0.0,0.0,0.0,0.0,0.0,0.0,0.0,0.0,0.0,0.0,0.0,0.0,0.0,0.0,0.0,0.0,0.0,0.0,0.0,0.0,0.0,0.0,0.0,0.0,0.0,0.0,0.0,0.0,0.0,0.0,0.0,0.0,0.0,0.0,0.0,0.0,0.0,0.0,0.0,0.0,0.0,0.0,0.0,0.0,0.0,0.0,0.0,0.0,0.0,0.0,0.0,0.0,0.0,0.0,0.0,0.0,0.0,0.0,0.0,0.0,0.0,0.0,0.0,0.0,0.0,0.0,0.0,0.0,0.0,0.0,0.0,0.0,0.0,0.0,0.0,0.0,0.0,0.0,0.0,0.0,0.0,0.0,0.0,0.0,0.0,0.0,0.0,0.0,0.0,0.0,0.0,0.0,0.0,0.0,0.0,0.0,0.0,0.0,0.0,0.0,0.0,0.0,0.0,0.0,0.0,0.0,0.0,-2.7712,-2.8763,-2.9924,-3.117,-2.9584,-2.8158,0.0,0.0,0.0,0.0,0.0,0.0,0.0,0.0,0.0,0.0,0.0,0.0,0.0,0.0,0.0,0.0,0.0,0.0,0.0,0.0,0.0,0.0,0.0,0.0,0.0,0.0,0.0,0.0,0.0,0.0,0.0,0.0,0.0,0.0,0.0,0.0,0.0,0.0,0.0,0.0,0.0,0.0,0.0,0.0,0.0,0.0,0.0,0.0,0.0,0.0,0.0,0.0,0.0,0.0,0.0,0.0,0.0,0.0,0.0,0.0,0.0,0.0,0.0,0.0,0.0,0.0,0.0,0.0,0.0,0.0,0.0,0.0,0.0,0.0,0.0,0.0,0.0,0.0,0.0,0.0,0.0,0.0,0.0,0.0,0.0,0.0,0.0,0.0,0.0,0.0,0.0,0.0,0.0,0.0,0.0,0.0,0.0,0.0,0.0,0.0,0.0,0.0,0.0,0.0,0.0,0.0,0.0,0.0,0.0,-3.4295,-3.4599,-3.5215,-3.6064,-3.5232,-3.4057,-3.2465,0.0,0.0,0.0,0.0,0.0,0.0,0.0,0.0,0.0,0.0,0.0,0.0,0.0,0.0,0.0,0.0,0.0,0.0,0.0,0.0,0.0,0.0,0.0,0.0,0.0,0.0,0.0,0.0,0.0,0.0,0.0,0.0,0.0,0.0,0.0,0.0,0.0,0.0,0.0,0.0,0.0,0.0,0.0,0.0,0.0,0.0,0.0,0.0,0.0,0.0,0.0,0.0,0.0,0.0,0.0,0.0,0.0,0.0,0.0,0.0,0.0,0.0,0.0,0.0,0.0,0.0,0.0,0.0,0.0,0.0,0.0,0.0,0.0,0.0,0.0,0.0,0.0,0.0,0.0,0.0,0.0,0.0,0.0,0.0,0.0,0.0,0.0,0.0,0.0,0.0,0.0,0.0,0.0,0.0,0.0,0.0,0.0,0.0,0.0,0.0,0.0,0.0,0.0,0.0,0.0,0.0,0.0,0.0,-3.8816,-3.8887,-3.8534,-3.7934,-3.847,-3.8173,0.0,0.0,0.0,0.0,0.0,0.0,0.0,0.0,0.0,0.0,0.0,0.0,0.0,0.0,0.0,0.0,0.0,0.0,0.0,0.0,0.0,0.0,0.0,0.0,0.0,0.0,0.0,0.0,0.0,0.0,0.0,0.0,0.0,0.0,0.0,0.0,0.0,0.0,0.0,0.0,0.0,0.0,0.0,0.0,0.0,0.0,0.0,0.0,0.0,0.0,0.0,0.0,0.0,0.0,0.0,0.0,0.0,0.0,0.0,0.0,0.0,0.0,0.0,0.0,0.0,0.0,0.0,0.0,0.0,0.0,0.0,0.0,0.0,0.0,0.0,0.0,0.0,0.0,0.0,0.0,0.0,0.0,0.0,0.0,0.0,0.0,0.0,0.0,0.0,0.0,0.0,0.0,0.0,0.0,0.0,0.0,0.0,0.0,0.0,0.0,0.0,0.0,0.0,0.0,0.0,0.0,0.0,0.0,0.0,-3.9328,-3.9904,-3.9852,-3.9183,-3.9301,-3.9032,0.0,0.0,0.0,0.0,0.0,0.0,0.0,0.0,0.0,0.0,0.0,0.0,0.0,0.0,0.0,0.0,0.0,0.0,0.0,0.0,0.0,0.0,0.0,0.0,0.0,0.0,0.0,0.0,0.0,0.0,0.0,0.0,0.0,0.0,0.0,0.0,0.0,0.0,0.0,0.0,0.0,0.0,0.0,0.0,0.0,0.0,0.0,0.0,0.0,0.0,0.0,0.0,0.0,0.0,0.0,0.0,0.0,0.0,0.0,0.0,0.0,0.0,0.0,0.0,0.0,0.0,0.0,0.0,0.0,0.0,0.0,0.0,0.0,0.0,0.0,0.0,0.0,0.0,0.0,0.0,0.0,0.0,0.0,0.0,0.0,0.0,0.0,0.0,0.0,0.0,0.0,0.0,0.0,0.0,0.0,0.0,0.0,0.0,0.0,0.0,0.0,0.0,0.0,0.0,0.0,0.0,0.0,0.0,-3.9755,-4.0044,-4.049,-4.0551,-4.0104,-4.0123,-3.9905,0.0,0.0,0.0,0.0,0.0,0.0,0.0,0.0,0.0,0.0,0.0,0.0,0.0,0.0,0.0,0.0,0.0,0.0,0.0,0.0,0.0,0.0,0.0,0.0,0.0,0.0,0.0,0.0,0.0,0.0,0.0,0.0,0.0,0.0,0.0,0.0,0.0,0.0,0.0,0.0,0.0,0.0,0.0,0.0,0.0,0.0,0.0,0.0,0.0,0.0,0.0,0.0,0.0,0.0,0.0,0.0,0.0,0.0,0.0,0.0,0.0,0.0,0.0,0.0,0.0,0.0,0.0,0.0,0.0,0.0,0.0,0.0,0.0,0.0,0.0,0.0,0.0,0.0,0.0,0.0,0.0,0.0,0.0,0.0,0.0,0.0,0.0,0.0,0.0,0.0,0.0,0.0,0.0,0.0,0.0,0.0,0.0,0.0,0.0,0.0,0.0,0.0,0.0,0.0,0.0,0.0,0.0,0.0,-4.0372,-4.0809,-4.0816,-4.0836,-4.085,-4.0828,-4.0673,0.0,0.0,0.0,0.0,0.0,0.0,0.0,0.0,0.0,0.0,0.0,0.0,0.0,0.0,0.0,0.0,0.0,0.0,0.0,0.0,0.0,0.0,0.0,0.0,0.0,0.0,0.0,0.0,0.0,0.0,0.0,0.0,0.0,0.0,0.0,0.0,0.0,0.0,0.0,0.0,0.0,0.0,0.0,0.0,0.0,0.0,0.0,0.0,0.0,0.0,0.0,0.0,0.0,0.0,0.0,0.0,0.0,0.0,0.0,0.0,0.0,0.0,0.0,0.0,0.0,0.0,0.0,0.0,0.0,0.0,0.0,0.0,0.0,0.0,0.0,0.0,0.0,0.0,0.0,0.0,0.0,0.0,0.0,0.0,0.0,0.0,0.0,0.0,0.0,0.0,0.0,0.0,0.0,0.0,0.0,0.0,0.0,0.0,0.0,0.0,0.0,0.0,0.0,0.0,0.0,0.0,0.0,0.0,-4.0694,-4.0935,-4.0959,-4.1,-4.1125,-4.0914,-4.0774,0.0,0.0,0.0,0.0,0.0,0.0,0.0,0.0,0.0,0.0,0.0,0.0,0.0,0.0,0.0,0.0,0.0,0.0,0.0,0.0,0.0,0.0,0.0,0.0,0.0,0.0,0.0,0.0,0.0,0.0,0.0,0.0,0.0,0.0,0.0,0.0,0.0,0.0,0.0,0.0,0.0,0.0,0.0,0.0,0.0,0.0,0.0,0.0,-0.2571,0.0,0.0,0.0,0.0,0.0,0.0,0.0,0.0,0.0,0.0,0.0,0.0,0.0,0.0,0.0,0.0,0.0,0.0,0.0,0.0,0.0,0.0,0.0,0.0,0.0,0.0,0.0,0.0,0.0,0.0,0.0,0.0,0.0,0.0,0.0,0.0,0.0,0.0,0.0,0.0,0.0,0.0,0.0,0.0,0.0,0.0,0.0,0.0,0.0,0.0,0.0,0.0,0.0,0.0,0.0,0.0,0.0,0.0,0.0,-4.0894,-4.108,-4.1082,-4.1128,-4.1191,-4.1055,-4.0992,0.0,0.0,0.0,0.0,0.0,0.0,0.0,0.0,0.0,0.0,0.0,0.0,0.0,0.0,0.0,0.0,0.0,0.0,0.0,0.0,0.0,0.0,0.0,0.0,0.0,0.0,0.0,0.0,0.0,0.0,0.0,0.0,0.0,0.0,0.0,0.0,0.0,0.0,0.0,0.0,0.0,0.0,0.0,0.0,0.0,0.0,0.0,0.0,0.0,0.0,0.0,0.0,0.0,0.0,0.0,0.0,0.0,0.0,0.0,0.0,0.0,0.0,0.0,0.0,0.0,0.0,0.0,0.0,0.0,0.0,0.0,0.0,0.0,0.0,0.0,0.0,0.0,0.0,0.0,0.0,0.0,0.0,0.0,0.0,0.0,0.0,0.0,0.0,0.0,0.0,0.0,0.0,0.0,0.0,0.0,0.0,0.0,0.0,0.0,0.0,0.0,0.0,0.0,0.0,0.0,0.0,0.0,-4.0882,-4.0994,-4.1191,-4.1191,-4.1191,-4.1191,-4.1191,-4.1191,-4.1171,0.0,0.0,0.0,0.0,0.0,0.0,0.0,0.0,0.0,0.0,0.0,0.0,0.0,0.0,0.0,0.0,0.0,0.0,0.0,0.0,0.0,0.0,0.0,0.0,0.0,0.0,0.0,0.0,0.0,0.0,0.0,0.0,0.0,0.0,0.0,0.0,0.0,0.0,-1.4875,-1.7522,0.0,0.0,0.0,0.0,0.0,0.0,0.0,0.0,-2.3096,0.0,0.0,0.0,0.0,0.0,0.0,0.0,0.0,0.0,0.0,0.0,0.0,0.0,0.0,0.0,0.0,0.0,0.0,0.0,0.0,0.0,0.0,0.0,0.0,0.0,0.0,0.0,0.0,0.0,0.0,0.0,0.0,0.0,0.0,0.0,0.0,0.0,0.0,0.0,0.0,0.0,0.0,0.0,0.0,0.0,0.0,0.0,0.0,0.0,0.0,0.0,0.0,0.0,0.0,0.0,0.0,-4.0803,-4.0925,-4.1049,-4.1191,-4.1191,-4.1191,-4.1191,-4.1191,-4.115,-4.1052,0.0,0.0,0.0,0.0,0.0,0.0,0.0,0.0,0.0,0.0,0.0,0.0,0.0,0.0,0.0,0.0,0.0,0.0,0.0,0.0,0.0,0.0,0.0,0.0,0.0,0.0,0.0,0.0,0.0,0.0,0.0,0.0,0.0,0.0,0.0,0.0,0.0,0.0,0.0,-2.6453,-2.7204,0.0,0.0,0.0,0.0,0.0,0.0,0.0,0.0,-2.9888,0.0,0.0,0.0,0.0,0.0,0.0,0.0,0.0,0.0,0.0,0.0,0.0,0.0,0.0,0.0,0.0,0.0,0.0,0.0,0.0,0.0,0.0,0.0,0.0,0.0,0.0,0.0,0.0,0.0,0.0,0.0,0.0,0.0,0.0,0.0,0.0,0.0,0.0,0.0,0.0,0.0,0.0,0.0,0.0,0.0,0.0,0.0,0.0,0.0,0.0,0.0,0.0,0.0,0.0,0.0,-4.0968,-4.1016,-4.1074,-4.1191,-4.1191,-4.1191,-4.1191,-4.1128,-4.1074,0.0,0.0,0.0,0.0,0.0,0.0,0.0,0.0,0.0,0.0,0.0,0.0,0.0,0.0,0.0,0.0,0.0,0.0,0.0,0.0,0.0,0.0,0.0,0.0,0.0,0.0,0.0,0.0,0.0,0.0,0.0,0.0,0.0,0.0,0.0,0.0,0.0,0.0,0.0,0.0,-3.2807,-3.3533,-3.4197,0.0,0.0,0.0,0.0,0.0,0.0,-3.6651,-3.5623,0.0,0.0,0.0,0.0,0.0,0.0,0.0,0.0,0.0,0.0,0.0,0.0,0.0,0.0,0.0,0.0,0.0,0.0,0.0,0.0,0.0,0.0,0.0,0.0,0.0,0.0,0.0,0.0,0.0,0.0,0.0,0.0,0.0,0.0,0.0,0.0,0.0,0.0,0.0,0.0,0.0,0.0,0.0,0.0,0.0,0.0,0.0,0.0,0.0,0.0,0.0,0.0,0.0,0.0,0.0,-4.0812,-4.0941,-4.1055,-4.1191,-4.1191,-4.1191,-4.1191,-4.1077,-4.0992,0.0,0.0,0.0,0.0,0.0,0.0,0.0,0.0,0.0,0.0,0.0,0.0,0.0,0.0,0.0,0.0,0.0,0.0,0.0,0.0,0.0,0.0,0.0,0.0,0.0,0.0,0.0,0.0,0.0,0.0,0.0,0.0,0.0,0.0,0.0,0.0,0.0,0.0,0.0,0.0,0.0,-3.8143,-3.7753,-3.8007,0.0,0.0,0.0,0.0,-3.9587,-3.9805,0.0,0.0,0.0,0.0,0.0,0.0,0.0,0.0,0.0,0.0,0.0,0.0,0.0,0.0,0.0,0.0,0.0,0.0,0.0,0.0,0.0,0.0,0.0,0.0,0.0,0.0,0.0,0.0,0.0,0.0,0.0,0.0,0.0,0.0,0.0,0.0,0.0,0.0,0.0,0.0,0.0,0.0,0.0,0.0,0.0,0.0,0.0,0.0,0.0,0.0,0.0,0.0,0.0,0.0,0.0,0.0,-3.9646,-4.0528,-4.1077,-4.1191,-4.1191,-4.1191,-4.1191,-4.1077,-4.095,0.0,0.0,0.0,0.0,0.0,0.0,0.0,0.0,0.0,0.0,0.0,0.0,0.0,0.0,0.0,0.0,0.0,0.0,0.0,0.0,0.0,0.0,0.0,0.0,0.0,0.0,0.0,0.0,0.0,0.0,0.0,0.0,0.0,0.0,0.0,0.0,0.0,0.0,0.0,0.0,0.0,-3.9785,-3.9382,-3.9663,-3.9888,0.0,0.0,-4.0073,-4.05,-4.0613,0.0,0.0,0.0,0.0,0.0,0.0,0.0,0.0,0.0,0.0,0.0,0.0,0.0,0.0,0.0,0.0,0.0,0.0,0.0,0.0,0.0,0.0,0.0,0.0,0.0,0.0,0.0,0.0,0.0,0.0,0.0,0.0,0.0,0.0,0.0,0.0,0.0,0.0,0.0,0.0,0.0,0.0,0.0,0.0,0.0,0.0,0.0,0.0,0.0,0.0,0.0,0.0,0.0,0.0,0.0,-3.8941,-3.9414,-4.045,-4.1077,-4.1191,-4.1191,-4.1191,-4.1191,-4.1058,-4.093,0.0,0.0,0.0,0.0,0.0,0.0,0.0,0.0,0.0,0.0,0.0,0.0,0.0,0.0,0.0,0.0,0.0,0.0,0.0,0.0,0.0,0.0,0.0,0.0,0.0,0.0,0.0,0.0,0.0,0.0,0.0,0.0,0.0,0.0,0.0,0.0,0.0,0.0,0.0,0.0,0.0,0.0,-3.9521,-3.9607,0.0,0.0,0.0,-3.9579,-4.0118,0.0,0.0,0.0,0.0,0.0,0.0,0.0,0.0,0.0,0.0,0.0,0.0,0.0,0.0,0.0,0.0,0.0,0.0,0.0,0.0,0.0,0.0,0.0,0.0,0.0,0.0,0.0,0.0,0.0,0.0,0.0,0.0,0.0,0.0,0.0,0.0,0.0,0.0,0.0,0.0,0.0,0.0,0.0,0.0,0.0,0.0,0.0,0.0,0.0,0.0,0.0,0.0,0.0,0.0,0.0,0.0,0.0,-3.8887,-4.005,-4.0616,-4.0547,-4.0781,-4.0879,-4.0879,-4.094,0.0,0.0,0.0,0.0,0.0,0.0,0.0,0.0,0.0,0.0,0.0,0.0,0.0,0.0,0.0,0.0,0.0,0.0,0.0,0.0,0.0,0.0,0.0,0.0,0.0,0.0,0.0,-4.0712,0.0,0.0,0.0,0.0,0.0,0.0,0.0,0.0,0.0,0.0,0.0,0.0,0.0,0.0,-3.9116,-3.9064,-3.9036,-3.9219,0.0,0.0,-3.8667,-3.9183,-3.9098,-3.9028,0.0,0.0,0.0,0.0,0.0,0.0,0.0,0.0,0.0,0.0,0.0,0.0,0.0,0.0,0.0,0.0,0.0,0.0,0.0,0.0,0.0,0.0,0.0,0.0,0.0,0.0,0.0,0.0,0.0,0.0,0.0,0.0,0.0,0.0,0.0,0.0,0.0,0.0,0.0,0.0,0.0,0.0,0.0,0.0,0.0,0.0,0.0,0.0,0.0,0.0,0.0,0.0,0.0,0.0,-3.7832,-3.7499,-3.8936,-3.9404,-3.8828,-3.959,-3.998,-4.0,-4.0628,-4.093,0.0,0.0,0.0,0.0,0.0,0.0,0.0,0.0,0.0,0.0,0.0,0.0,0.0,0.0,0.0,0.0,0.0,0.0,0.0,0.0,0.0,0.0,0.0,0.0,0.0,0.0,0.0,0.0,0.0,0.0,0.0,0.0,0.0,0.0,0.0,0.0,0.0,0.0,0.0,0.0,0.0,-3.8317,-3.811,-3.8205,-3.8244,0.0,-3.7904,-3.7695,-3.7753,-3.7546,-3.7362,-3.7364,0.0,0.0,0.0,0.0,0.0,0.0,0.0,0.0,0.0,0.0,0.0,0.0,0.0,0.0,0.0,0.0,0.0,0.0,0.0,0.0,0.0,0.0,0.0,0.0,0.0,0.0,0.0,0.0,0.0,0.0,0.0,0.0,0.0,0.0,0.0,0.0,0.0,0.0,0.0,0.0,0.0,0.0,0.0,0.0,0.0,0.0,0.0,0.0,0.0,0.0,0.0,0.0,0.0,-3.7331,-3.7305,-3.8288,-3.8736,-3.8613,-3.8926,-3.9101,-3.9101,-3.988,-4.0255,0.0,0.0,0.0,0.0,0.0,0.0,0.0,0.0,0.0,0.0,0.0,0.0,0.0,0.0,0.0,0.0,0.0,0.0,0.0,0.0,0.0,0.0,0.0,0.0,0.0,0.0,0.0,0.0,-4.0102,-3.943,-3.835,0.0,0.0,0.0,0.0,0.0,0.0,0.0,0.0,0.0,0.0,-3.7374,-3.7226,-3.7095,0.0,0.0,-3.6799,-3.6427,-3.6745,-3.6733,-3.6656,-3.6656,-3.6352,0.0,0.0,0.0,0.0,0.0,0.0,0.0,0.0,0.0,0.0,0.0,0.0,0.0,0.0,0.0,0.0,0.0,0.0,0.0,0.0,0.0,0.0,0.0,0.0,0.0,0.0,0.0,0.0,0.0,0.0,0.0,0.0,0.0,0.0,0.0,0.0,0.0,0.0,0.0,0.0,0.0,0.0,0.0,0.0,0.0,0.0,0.0,0.0,0.0,0.0,0.0,0.0,-3.6853,-3.6914,-3.7571,-3.7859,-3.7812,-3.8066,-3.8203,-3.8242,-3.9062,-3.9448,0.0,0.0,0.0,0.0,0.0,0.0,0.0,0.0,0.0,0.0,0.0,0.0,0.0,0.0,0.0,0.0,0.0,0.0,0.0,0.0,0.0,0.0,0.0,0.0,0.0,0.0,0.0,0.0,-3.9295,-3.822,-3.6746,0.0,0.0,0.0,0.0,0.0,0.0,0.0,0.0,0.0,0.0,-3.6221,-3.6128,-3.5925,-3.597,-3.634,-3.566,-3.5194,-3.5441,-3.541,-3.533,-3.5175,0.0,0.0,0.0,0.0,0.0,0.0,0.0,0.0,0.0,0.0,0.0,0.0,0.0,0.0,0.0,0.0,0.0,0.0,0.0,0.0,0.0,0.0,0.0,0.0,0.0,0.0,0.0,0.0,0.0,0.0,-4.0801,0.0,0.0,0.0,0.0,0.0,0.0,0.0,0.0,0.0,0.0,0.0,0.0,0.0,0.0,0.0,0.0,0.0,0.0,0.0,0.0,0.0,0.0,-3.6464,-3.6035,-3.6689,-3.6728,-3.6133,-3.6894,-3.7324,-3.7344,-3.8184,-3.857,-3.8456,0.0,0.0,0.0,0.0,0.0,0.0,0.0,0.0,0.0,0.0,0.0,0.0,0.0,0.0,0.0,0.0,0.0,0.0,0.0,0.0,0.0,0.0,0.0,0.0,0.0,0.0,-3.8916,-3.8154,-3.7276,0.0,0.0,0.0,0.0,0.0,0.0,0.0,0.0,0.0,0.0,-3.5017,-3.4826,-3.4754,-3.4752,-3.4769,-3.4788,-3.4458,-3.4117,-3.3768,-3.3494,-3.3081,0.0,0.0,0.0,0.0,0.0,0.0,0.0,0.0,0.0,0.0,0.0,0.0,0.0,0.0,0.0,0.0,0.0,0.0,0.0,0.0,0.0,0.0,0.0,0.0,0.0,0.0,0.0,-4.1109,-4.0969,0.0,0.0,0.0,0.0,0.0,0.0,0.0,0.0,0.0,0.0,0.0,-4.0489,-4.0489,0.0,0.0,0.0,0.0,0.0,0.0,0.0,0.0,0.0,0.0,0.0,0.0,-3.5902,-3.5812,-3.6027,-3.6064,-3.596,-3.6267,-3.6445,-3.6445,-3.7285,-3.7945,-3.8417,0.0,0.0,0.0,0.0,0.0,0.0,0.0,0.0,0.0,0.0,0.0,0.0,0.0,0.0,0.0,0.0,0.0,0.0,0.0,0.0,0.0,0.0,0.0,0.0,0.0,-3.8475,0.0,0.0,0.0,0.0,0.0,0.0,0.0,0.0,0.0,0.0,0.0,-3.4897,-3.4867,-3.4775,-3.4737,-3.4694,-3.4508,-3.4379,0.0,0.0,0.0,0.0,0.0,0.0,0.0,0.0,0.0,0.0,0.0,0.0,0.0,0.0,-2.4984,-2.3671,-1.488,-0.6743,-0.39,0.0,0.0,0.0,0.0,0.0,0.0,0.0,0.0,0.0,0.0,0.0,0.0,0.0,0.0,-4.1023,0.0,-4.1035,0.0,0.0,0.0,0.0,0.0,0.0,0.0,0.0,-4.0559,-4.0491,-4.0489,-4.0489,-4.0489,0.0,-4.0489,-4.0489,0.0,0.0,0.0,0.0,0.0,0.0,0.0,0.0,-3.5611,-3.5696,-3.5703,-3.5747,-3.5903,-3.5972,-3.6016,-3.6016,-3.6543,-3.7205,-3.799,-3.8892,-3.9285,0.0,0.0,0.0,0.0,0.0,0.0,0.0,0.0,0.0,0.0,0.0,0.0,0.0,0.0,0.0,0.0,0.0,0.0,0.0,0.0,0.0,0.0,0.0,-3.7243,0.0,0.0,0.0,0.0,0.0,0.0,0.0,0.0,0.0,-3.4694,-3.4593,-3.4529,-3.4529,-3.4442,-3.4394,-3.4394,0.0,0.0,0.0,0.0,0.0,0.0,0.0,-3.2681,-3.2517,-3.2248,-3.1825,-3.1133,-2.9972,-2.8639,-2.7354,0.0,0.0,-2.6335,-1.9677,-1.3397,-1.169,-0.6084,-0.0907,0.1669,0.1142,0.0849,0.0,0.0,0.0,0.0,0.0,0.0,0.0,0.0,-4.0918,-4.089,0.0,-4.0879,0.0,0.0,0.0,0.0,0.0,-4.0742,0.0,0.0,-4.0519,-4.0504,-4.0489,-4.0489,-4.0489,-4.0489,-4.0489,-4.0489,-4.0489,-4.0489,0.0,0.0,0.0,0.0,0.0,0.0,-3.5581,-3.5682,-3.5703,-3.5761,-3.59,-3.5972,-3.6016,-3.6016,-3.6016,-3.6406,-3.7187,-3.6506,-3.6728,-3.8174,-3.8045,0.0,0.0,0.0,0.0,0.0,0.0,0.0,0.0,0.0,0.0,0.0,0.0,0.0,0.0,0.0,0.0,0.0,0.0,0.0,0.0,-3.7032,0.0,0.0,0.0,0.0,0.0,0.0,0.0,0.0,0.0,0.0,-3.4572,-3.4379,-3.4195,-3.4176,0.0,0.0,0.0,0.0,-3.3807,-3.3762,-3.3437,-3.3014,-3.2583,-3.2127,-3.1696,-3.1329,0.0,0.0,-2.9613,-2.8919,-2.8076,-2.6759,-2.592,-2.531,-2.5137,-2.3865,-2.2182,-2.0376,-1.9445,-1.8518,-1.426,-1.2382,-1.2946,-4.1191,0.0,0.0,0.0,0.0,-4.1191,-4.1149,-4.1074,-4.1074,-4.1049,-4.0976,-4.0859,0.0,0.0,0.0,0.0,0.0,0.0,-4.0742,-4.063,-4.0688,-4.0621,-4.0489,-4.0489,-4.0489,-4.0489,-4.0489,-4.0489,-4.0489,-4.0489,-3.995,-3.8931,0.0,0.0,0.0,0.0,-3.6086,-3.5601,-3.5646,-3.5717,-3.5741,-3.5906,-3.6016,-3.6016,-3.6016,-3.6113,-3.6367,-3.6131,-3.642,-3.7318,-3.662,0.0,0.0,0.0,0.0,0.0,0.0,0.0,0.0,0.0,0.0,0.0,0.0,0.0,0.0,0.0,0.0,0.0,0.0,0.0,-3.6878,-3.5737,-3.4837,0.0,0.0,0.0,0.0,0.0,0.0,0.0,0.0,0.0,-3.3643,-3.3813,-3.3805,0.0,0.0,-3.3707,-3.3437,-3.3361,-3.3361,-3.3379,0.0,0.0,0.0,-3.2092,-3.1752,-3.1623,-3.1027,-3.0293,-2.954,-2.8919,-2.8061,-2.6759,-2.5906,-2.523,-2.4548,-2.3304,-2.1975,-2.0775,-2.0315,-1.9224,-1.6569,-1.5788,-1.5081,-4.1169,-4.1191,-4.1191,-4.1191,-4.1191,-4.1191,-4.115,-4.1099,-4.1158,-4.1111,-4.0976,-4.0898,-4.0952,-4.1126,-4.1082,0.0,0.0,0.0,-4.0821,-4.0752,-4.0703,-4.0657,-4.0582,-4.053,-4.0487,-4.0489,-4.0489,-4.0489,-4.0489,-4.0489,-4.0273,-3.9758,0.0,0.0,-3.6719,-3.6402,-3.6036,-3.554,-3.5702,-3.5761,-3.571,-3.5901,-3.6016,-3.6016,-3.6016,-3.6016,-3.6016,-3.6016,-3.6157,-3.645,-3.5852,-3.596,0.0,0.0,0.0,0.0,0.0,0.0,0.0,0.0,0.0,0.0,0.0,-3.8988,-3.9469,0.0,0.0,0.0,-3.8202,-3.7091,-3.5375,-3.4915,0.0,0.0,0.0,0.0,0.0,0.0,0.0,-3.3807,-3.3807,-3.3707,-3.3447,-3.3652,-3.3652,-3.3243,-3.355,-3.3707,-3.3465,0.0,-3.3214,-3.3214,-3.2631,-3.223,-3.2213,-3.1842,-3.1582,-3.1565,-3.0673,-2.9848,-2.9451,-2.8732,-2.778,-2.6707,-2.5892,-2.5175,-2.4452,-2.322,-2.2002,-2.0846,-2.0106,-1.893,-1.6786,-1.6032,-1.5237,-4.1074,-4.1172,-4.1172,-4.1191,-4.1191,-4.1191,-4.1191,-4.1191,-4.1191,-4.1147,-4.1023,-4.0964,-4.0941,-4.1,-4.1147,0.0,-4.0988,-4.0988,-4.0914,-4.0801,-4.0599,-4.0606,-4.0696,-4.0568,-4.0501,-4.0519,-4.0504,-4.0489,-4.0489,-4.0489,-4.0485,-4.0369,-3.8796,-3.7584,-3.6796,-3.6084,-3.562,-3.5515,-3.5755,-3.5836,-3.5729,-3.5903,-3.6016,-3.6016,-3.6016,-3.6016,-3.6016,-3.6016,-3.5906,-3.5723,-3.5574,-3.5493,-3.5515,0.0,0.0,0.0,0.0,0.0,0.0,0.0,0.0,0.0,0.0,0.0,0.0,0.0,0.0,-3.7877,-3.6826,0.0,-3.4321,-3.4467,0.0,0.0,0.0,-3.4049,-3.3815,-3.3807,-3.3807,-3.3807,0.0,0.0,-3.3762,-3.3762,-3.3652,-3.3225,-3.3532,-3.3762,-3.3707,-3.3361,-3.3154,-3.3045,-3.235,-3.1752,-3.1752,-3.1449,-3.1213,-3.1095,-3.0166,-2.9467,-2.9287,-2.84,-2.7408,-2.6496,-2.5851,-2.5119,-2.435,-2.3471,-2.2506,-2.091,-2.0009,-1.8623,-1.6237,-1.5426,-1.4816,-4.0864,-4.0908,-4.0996,-4.1105,-4.1191,-4.1191,-4.1191,-4.1191,-4.1191,-4.1191,-4.115,-4.113,-4.1084,-4.0996,-4.1026,-4.0983,-4.085,-4.085,-4.0843,-4.0801,-4.0762,-4.0746,-4.0779,-4.0574,-4.0544,-4.0642,-4.0564,-4.0489,-4.0489,-4.0489,-4.0181,-3.9546,-3.8507,-3.7911,-3.7661,-3.6856,-3.6151,-3.5577,-3.5687,-3.5797,-3.5909,-3.5976,-3.6016,-3.6016,-3.6016,-3.6016,-3.6016,-3.6016,-3.595,-3.5866,-3.5632,-3.5532,-3.5559,-3.5526,0.0,0.0,0.0,0.0,0.0,0.0,0.0,0.0,0.0,-3.7296,-3.795,0.0,-3.6697,0.0,-3.5704,-3.4842,-3.426,-3.4269,0.0,0.0,-3.3868,-3.385,-3.3807,-3.3807,-3.3807,-3.3807,-3.3807,-3.368,-3.3361,-3.3625,-3.3652,-3.3273,-3.355,-3.3578,-3.2934,-3.2745,-3.255,-3.2196,-3.1714,-3.1351,-3.1351,-3.1269,-3.1032,-3.0559,-2.9892,-2.9271,-2.8779,-2.814,-2.7188,-2.5946,-2.5522,-2.4881,-2.3649,-2.275,-2.1865,-2.0858,-2.0398,-1.9683,-1.7755,-1.6228,-1.5046,-4.077,-4.0801,-4.0848,-4.0928,-4.1026,-4.1101,-4.1125,-4.1105,-4.1125,-4.1149,-4.1191,-4.1191,-4.117,-4.1082,-4.1082,-4.1052,-4.0988,-4.0968,-4.0988,-4.0988,-4.0968,-4.0955,-4.0877,-4.0721,-4.0662,-4.0692,-4.0574,-4.0489,-4.0469,-4.0123,-3.9754,-3.9277,-3.8046,-3.743,-3.7392,-3.6614,-3.6006,-3.563,-3.5639,-3.5749,-3.5948,-3.595,-3.5973,-3.5996,-3.6016,-3.6016,-3.6016,-3.6016,-3.5929,-3.5816,-3.5626,-3.5551,-3.554,-3.5526,-3.5507,0.0,0.0,0.0,0.0,0.0,0.0,0.0,0.0,0.0,0.0,0.0,-3.5645,-3.5398,-3.496,-3.4508,-3.4068,-3.4104,-3.4093,-3.3815,-3.3807,-3.3807,-3.3807,-3.3807,-3.3807,-3.3807,-3.3807,-3.3707,-3.3522,-3.368,-3.3734,-3.3476,-3.3662,-3.355,-3.2903,-3.2466,-3.2109,-3.1808,-3.1449,-3.119,-3.119,-3.0958,-3.0699,-3.0293,-2.9585,-2.8873,-2.8574,-2.7993,-2.7137,-2.5769,-2.5398,-2.4881,-2.3412,-2.2445,-2.1616,-2.0846,-2.0268,-1.9344,-1.7755,-1.6228,-1.5092,-4.071,-4.077,-4.071,-4.0721,-4.0768,-4.0902,-4.0979,-4.0983,-4.0983,-4.1052,-4.1171,-4.1191,-4.1191,-4.1191,-4.1171,-4.119,-4.119,-4.117,-4.115,-4.115,-4.1189,-4.1121,-4.0964,-4.0863,-4.0781,-4.0692,-4.0574,-4.0446,-4.0335,-3.9623,-3.92,-3.8911,-3.7469,-3.6661,-3.6535,-3.591,-3.559,-3.5611,-3.5621,-3.5714,-3.588,-3.5907,-3.5945,-3.5996,-3.6016,-3.6016,-3.6016,-3.6016,-3.5927,-3.5747,-3.5671,-3.5607,-3.5515,-3.5515,-3.5501,0.0,-3.5507,0.0,0.0,0.0,0.0,0.0,0.0,0.0,0.0,-3.5016,-3.4736,-3.4195,-3.4401,-3.4371,-3.3842,-3.3993,-3.4068,-3.3842,-3.3807,-3.3807,-3.3807,-3.3807,-3.3807,-3.3807,-3.3807,-3.3788,-3.3689,-3.3707,-3.3707,-3.356,-3.3447,-3.3266,-3.2996,-3.2366,-3.1933,-3.177,-3.1393,-3.119,-3.1134,-3.0699,-3.0293,-3.0123,-2.9271,-2.8527,-2.8367,-2.7944,-2.7137,-2.5783,-2.5398,-2.4894,-2.3352,-2.2506,-2.1741,-2.0771,-2.0085,-1.9013,-1.7326,-1.614,-1.5092,-4.0559,-4.0563,-4.0655,-4.0642,-4.0563,-4.0707,-4.0781,-4.085,-4.0831,-4.0914,-4.1049,-4.115,-4.1191,-4.1191,-4.1082,-4.1049,-4.1026,-4.092,-4.087,-4.087,-4.1085,-4.1059,-4.0863,-4.0811,-4.0765,-4.0692,-4.0574,-4.0162,-3.9527,-3.9373,-3.8565,-3.7219,-3.6873,-3.6382,-3.5828,0.0,0.0,0.0,-3.5768,-3.586,-3.5903,-3.5948,-3.5976,-3.6016,-3.6016,0.0,-3.6016,-3.6016,-3.5976,-3.5953,-3.5832,0.0,0.0,0.0,0.0,0.0,0.0,0.0,0.0,0.0,0.0,0.0,-3.5556,-3.5289,-3.4813,-3.4532,-3.426,-3.3928,-3.3928,-3.3928,-3.3815,-3.3842,-3.385,-3.3807,-3.3807,-3.3807,-3.3807,-3.3807,-3.3807,-3.3807,-3.3807,-3.368,-3.3361,-3.3321,-3.3166,-3.284,-3.2433,-3.2178,-3.2109,-3.2195,-3.2057,-3.1449,-3.115,-3.1157,-3.119,-3.0633,-2.9933,-2.9613,-2.8996,-2.8288,-2.7864,-2.768,-2.7086,-2.5659,-2.5398,-2.4894,-2.3412,-2.2944,-2.2249,-2.091,-2.0462,-1.9814,-1.8114,-1.7001,-1.6079,-4.0489,0.0,-4.0574,-4.0559,0.0,-4.0574,-4.063,-4.0657,-4.0722,-4.0796,-4.0908,-4.0964,-4.0996,-4.1016,-4.0925,-4.0908,-4.0889,-4.0843,-4.0801,-4.0821,-4.0937,-4.0937,-4.0793,-4.0712,-4.0653,-4.0692,-4.0149,-3.9681,-3.9277,-3.843,-3.7584,-3.6699,-3.6315,-3.5932,-3.5565,-3.5528,-3.5528,-3.5558,-3.566,-3.5729,-3.5742,-3.5786,-3.5873,-3.5947,0.0,0.0,0.0,0.0,0.0,0.0,0.0,0.0,0.0,0.0,0.0,-3.5558,-3.5528,-3.5507,-3.5507,-3.5507,-3.5446,-3.5324,-3.519,-3.4981,-3.4714,-3.4284,-3.3935,-3.3815,-3.3807,-3.3807,-3.3807,-3.3807,-3.3807,-3.3807,-3.3807,-3.3807,-3.3807,-3.3807,-3.3807,-3.3807,-3.3807,-3.3652,-3.3243,-3.3214,-3.3014,-3.2583,-3.2316,-3.1917,-3.1375,-3.1288,-3.102,-3.0251,-3.0091,-3.0091,-3.0015,-2.9343,-2.8767,-2.835,-2.761,-2.7157,-2.712,-2.7081,-2.6754,-2.563,-2.5398,-2.4881,-2.3412,-2.2494,-2.1604,-2.0719,-1.989,-1.911,-1.8066,-1.6872,-1.5799,-4.0489,-4.0489,-4.0489,-4.0489,-4.0489,-4.0489,-4.0489,-4.0485,0.0,0.0,0.0,-4.0813,-4.0801,-4.0801,-4.0796,-4.0768,-4.0768,-4.077,-4.0761,-4.0742,-4.0742,-4.0761,-4.0733,-4.0289,-4.021,-4.0404,-3.9504,-3.8969,-3.8777,-3.7392,-3.6622,-3.6449,-3.5834,-3.5507,-3.5507,-3.5507,-3.5507,-3.5507,-3.5515,-3.5546,-3.56,-3.5611,-3.5679,-3.5849,-3.5877,-3.5918,-3.5975,-3.5996,-3.5974,-3.5916,-3.5913,-3.5853,-3.5749,-3.5655,-3.5611,-3.5611,-3.554,-3.5507,-3.5507,-3.5507,-3.5398,-3.5171,-3.4926,-3.4734,-3.4614,-3.416,-3.3823,-3.3807,-3.3807,-3.3807,-3.3807,-3.3807,-3.3807,-3.3807,-3.3807,-3.3807,-3.3807,-3.3807,-3.3807,-3.3807,-3.3807,-3.3652,-3.3273,-3.3214,-3.3014,-3.258,-3.2207,-3.1668,-3.0508,-3.0031,-2.9793,-2.9265,-2.9178,-2.9079,-2.8881,-2.8139,-2.7394,-2.7422,-2.6439,-2.5856,-2.6258,-2.64,-2.6119,-2.5312,-2.5246,-2.4597,-2.3352,-2.199,-2.0858,-2.0655,-1.9375,-1.8212,-1.7862,-1.6645,-1.5508,-4.0489,-4.0489,-4.0489,-4.0489,-4.0489,-4.0489,-4.0489,-4.0504,-4.0649,-4.0715,-4.0718,-4.0779,-4.0801,-4.0793,-4.0742,-4.0707,-4.0707,-4.059,-4.054,0.0,-4.0559,-4.054,-4.0463,-3.9037,-3.8768,-3.9379,-3.8618,-3.7796,-3.7123,-3.6834,-3.6372,-3.5738,-3.5551,-3.5507,-3.5507,-3.5507,-3.5507,-3.5488,-3.555,-3.559,-3.5611,-3.5655,-3.5716,-3.5723,-3.5841,-3.5903,-3.5932,-3.5973,-3.5976,-3.5976,-3.5976,-3.595,-3.5877,-3.5755,-3.5663,-3.5591,-3.554,-3.5507,-3.5507,-3.5507,-3.5493,-3.5432,-3.5207,-3.4813,-3.4334,-3.4195,-3.4043,-3.3842,-3.3807,-3.3807,-3.3807,-3.3807,-3.3807,-3.3807,-3.3807,-3.3807,-3.3807,-3.3807,-3.3807,-3.3807,-3.3807,-3.3634,-3.3273,-3.3214,-3.2996,-3.2459,-3.1579,-3.0335,-2.899,-2.8776,-2.9059,-2.9008,-2.9011,-2.9011,-2.8716,-2.8024,-2.7249,-2.731,-2.624,-2.551,-2.5689,-2.5644,-2.5394,-2.469,-2.4515,-2.4084,-2.3233,-2.2384,-2.1428,-2.0719,-1.9694,-1.8787,-1.8144,-1.707,-1.607,-4.0489,-4.0489,-4.0489,-4.0489,-4.0489,-4.0489,-4.0489,-4.0504,-4.0574,-4.0582,-4.0596,-4.0636,-4.0622,-4.0641,-4.0604,-4.0582,-4.0582,-4.0534,-4.0489,-4.0489,-4.0485,-4.05,-4.0346,-3.8796,-3.805,-3.8127,-3.7584,-3.7103,-3.6699,-3.6262,-3.5858,-3.5526,-3.5507,-3.5507,-3.5507,-3.5507,-3.5507,-3.5507,-3.5528,-3.5565,-3.5546,-3.5577,-3.5611,-3.5638,-3.5736,-3.5836,-3.588,-3.5953,-3.6016,-3.6016,-3.6016,-3.5976,-3.595,-3.5877,-3.5755,-3.5663,-3.559,-3.554,-3.5488,-3.5507,-3.5507,-3.5493,-3.5383,-3.5138,-3.4716,-3.4383,-3.4074,-3.3842,-3.3807,-3.3807,-3.3807,-3.3807,-3.3807,-3.3807,-3.3807,-3.3807,-3.3807,-3.3807,-3.3807,-3.3807,-3.3807,-3.3652,-3.3243,-3.3214,-3.2816,-3.1962,-3.0665,-2.9356,-2.8253,-2.8065,-2.8015,-2.7792,-2.774,-2.774,-2.7705,-2.6857,-2.6262,-2.6142,-2.525,-2.4762,-2.4896,-2.4828,-2.4505,-2.4426,-2.4079,-2.3681,-2.3144,-2.2063,-2.1164,-2.0655,-1.9431,-1.8529,-1.793,-1.6862,-1.5579,-4.0489,-4.0489,-4.0489,-4.0489,-4.0489,-4.0489,-4.0489,-4.0489,-4.0489,-4.0489,-4.0489,-4.0489,-4.0489,-4.0489,-4.0489,-4.0489,-4.0469,-4.0296,-4.0219,-4.0254,-4.0423,-4.038,-3.9942,-3.8277,-3.7339,-3.7127,-3.6699,-3.643,-3.6353,-3.5782,-3.5507,-3.5507,-3.5507,-3.5507,-3.5507,-3.5507,-3.5507,-3.5507,-3.5507,-3.5507,-3.5507,-3.5507,-3.5534,-3.5577,-3.5657,-3.5736,-3.5845,-3.5925,-3.5976,-3.5996,-3.6016,-3.6016,-3.6016,-3.5942,-3.5864,-3.5755,-3.5657,-3.5566,-3.5501,-3.5507,-3.5507,-3.5507,-3.5507,-3.5383,-3.5105,-3.4676,-3.4269,-3.4037,-3.403,-3.4005,-3.3928,-3.3921,-3.3868,-3.3834,-3.3807,-3.3807,-3.3807,-3.3807,-3.3807,-3.3807,-3.3807,-3.3662,-3.3419,-3.3332,-3.2787,-3.1385,-3.0,-2.8988,-2.8247,-2.7632,-2.7181,-2.6841,-2.6708,-2.6776,-2.6657,-2.603,-2.5476,-2.5243,-2.4477,-2.4197,-2.4238,-2.3856,-2.3581,-2.3758,-2.3498,-2.3114,-2.2836,-2.1918,-2.1014,-2.059,-1.9497,-1.8327,-1.8008,-1.6793,-1.5296,-4.0489,-4.0489,-4.0489,-4.0489,-4.0489,-4.0489,-4.0489,-4.0489,-4.0489,-4.0489,-4.045,-4.0489,-4.0489,-4.0489,-4.0489,-4.045,-4.0392,-3.9719,-3.9411,-3.9503,-4.0169,-3.9952,-3.8864,-3.6781,-3.6229,-3.693,-3.6142,-3.568,-3.568,-3.5565,-3.5507,-3.5507,-3.5507,-3.5507,-3.5507,-3.5507,-3.5507,-3.5507,-3.5507,-3.5507,-3.5507,-3.5507,-3.5488,-3.5501,-3.5577,-3.5629,-3.5717,-3.5841,-3.5942,-3.5996,-3.6016,-3.6016,-3.5996,-3.5923,-3.588,-3.5892,-3.5718,-3.5566,-3.5501,-3.5507,-3.5488,-3.5507,-3.5507,-3.5383,-3.5138,-3.507,-3.4908,-3.4674,-3.4612,-3.4464,-3.4218,-3.4171,-3.4093,-3.3902,-3.3868,-3.3807,-3.3834,-3.3807,-3.3807,-3.3807,-3.3807,-3.3762,-3.3707,-3.3579,-3.2867,-3.1155,-3.0044,-2.8979,-2.7892,-2.7487,-2.721,-2.6841,-2.6691,-2.6708,-2.6624,-2.6297,-2.5689,-2.5259,-2.4697,-2.4151,-2.3747,-2.3163,-2.2746,-2.2824,-2.2627,-2.2419,-2.2426,-2.1946,-2.1428,-2.0655,-1.9759,-1.8854,-1.8134,-1.7139,-1.607,-4.0489,-4.0489,-4.0489,-4.0489,-4.0489,-4.0489,-4.0489,-4.0489,-4.0489,-4.0239,-3.9796,-3.9777,-4.0046,-4.0466,-4.0008,-3.9777,-3.9719,-3.8911,-3.8546,-3.8546,-3.8864,-3.8763,-3.8152,-3.6411,-3.5782,-3.6142,-3.5718,-3.5507,-3.5507,-3.5507,-3.5507,-3.5507,-3.5507,-3.5507,-3.5507,-3.5507,-3.5507,-3.5507,-3.5507,-3.5507,-3.5507,-3.5507,-3.5507,-3.5501,-3.5554,-3.5611,-3.5666,-3.5811,-3.591,-3.5925,-3.5974,-3.6016,-3.6016,-3.5974,-3.5925,-3.5903,-3.5756,-3.563,-3.5574,-3.5562,-3.5553,-3.5488,-3.5507,-3.5446,-3.5354,-3.5354,-3.5289,-3.5174,-3.4908,-3.4632,-3.4508,-3.4508,-3.4442,-3.4371,-3.4348,-3.426,-3.4062,-3.4043,-3.3986,-3.3842,-3.3807,-3.3807,-3.366,-3.2944,-3.1902,-3.0659,-2.9794,-2.8876,-2.8065,-2.7794,-2.747,-2.7147,-2.6873,-2.6691,-2.6624,-2.6016,-2.5524,-2.5128,-2.4455,-2.3752,-2.3172,-2.2534,-2.2083,-2.2069,-2.1962,-2.2027,-2.2297,-2.1607,-2.0985,-2.0333,-1.9375,-1.8405,-1.8076,-1.7285,-1.6358,-4.0489,-4.0508,-4.0441,-4.0336,-4.0266,-4.0248,-4.0132,-3.9921,-3.9921,-3.9461,-3.8752,-3.8714,-3.9037,-3.9476,-3.9115,-3.8931,-3.8834,-3.8046,-3.7613,-3.751,-3.739,-3.7329,-3.7179,-3.6128,-3.5422,-3.534,-3.5441,-3.5507,-3.5507,-3.5507,-3.5507,-3.5507,-3.5507,-3.5507,-3.5493,-3.5432,-3.5432,-3.5493,-3.5432,-3.5432,-3.5474,-3.5507,-3.5507,-3.5501,-3.5565,-3.5588,-3.5611,-3.5735,-3.5851,-3.588,-3.5947,-3.5975,-3.6016,-3.6016,-3.5973,-3.5907,-3.5807,-3.5723,-3.563,-3.5621,-3.5611,-3.554,-3.5534,-3.5528,-3.5488,-3.5507,-3.5507,-3.546,-3.5138,-3.4926,-3.4832,-3.4812,-3.4774,-3.4714,-3.4694,-3.4551,-3.4265,-3.4218,-3.4093,-3.3868,-3.3807,-3.3807,-3.3587,-3.2485,-3.1237,-3.0662,-2.969,-2.8863,-2.8446,-2.8102,-2.7736,-2.7365,-2.6971,-2.6725,-2.6624,-2.6052,-2.5449,-2.5028,-2.443,-2.3736,-2.3009,-2.2331,-2.1883,-2.2106,-2.1729,-2.1713,-2.2151,-2.1534,-2.059,-2.0074,-1.911,-1.8076,-1.8008,-1.707,-1.607,-4.0489,-4.0438,-4.0213,-3.9924,-3.9607,-3.963,-3.9176,-3.8561,-3.8518,-3.8045,-3.7408,-3.733,-3.731,-3.7409,-3.7759,-3.8031,-3.7916,-3.7113,-3.6584,-3.6341,-3.5921,-3.5634,-3.5615,-3.552,-3.5236,-3.4874,-3.5228,-3.5446,-3.546,-3.5474,-3.5507,-3.5493,-3.5479,-3.5493,-3.5465,-3.5242,-3.5239,-3.5326,-3.5203,-3.5223,-3.5446,-3.5474,-3.5474,-3.5507,-3.5488,-3.554,-3.559,-3.5621,-3.569,-3.5877,-3.5903,-3.5942,-3.5996,-3.6016,-3.5973,-3.591,-3.588,-3.5836,-3.5717,-3.5696,-3.5679,-3.5601,-3.559,-3.5574,-3.5528,-3.5488,-3.5507,-3.5488,-3.5465,-3.5304,-3.5122,-3.5107,-3.4981,-3.4774,-3.4734,-3.4574,-3.4269,-3.4292,-3.4074,-3.3902,-3.3842,-3.3787,-3.3723,-3.2394,-3.1568,-3.1035,-2.9989,-2.8955,-2.8605,-2.8228,-2.7765,-2.7378,-2.7019,-2.6708,-2.6657,-2.6052,-2.5615,-2.5182,-2.4552,-2.4048,-2.3362,-2.2723,-2.244,-2.2183,-2.1874,-2.1801,-2.2106,-2.1717,-2.0796,-1.9944,-1.8854,-1.8076,-1.8008,-1.6437,-1.5579,-3.9925,-3.9905,-3.9819,-3.9429,-3.8867,-3.8848,-3.8376,-3.7643,-3.7624,-3.7152,-3.6472,-3.6377,-3.6094,-3.5603,-3.5799,-3.6178,-3.6558,-3.5798,-3.5362,-3.5268,-3.5097,-3.5003,-3.5003,-3.5003,-3.4889,-3.4775,-3.4887,-3.4981,-3.5018,-3.5174,-3.5239,-3.5258,-3.5239,-3.5315,-3.5398,-3.5057,-3.4718,-3.4489,-3.468,-3.4963,-3.5223,-3.5258,-3.532,-3.5493,-3.5507,-3.5515,-3.5521,-3.5577,-3.564,-3.5718,-3.5841,-3.591,-3.5942,-3.5974,-3.5996,-3.5953,-3.5972,-3.5923,-3.5845,-3.5817,-3.5786,-3.5679,-3.5621,-3.56,-3.5581,-3.5534,-3.5507,-3.5488,-3.5488,-3.5446,-3.5403,-3.5354,-3.532,-3.5223,-3.5207,-3.5069,-3.4851,-3.4774,-3.4656,-3.442,-3.4213,-3.3883,-3.3371,-3.2612,-3.199,-3.1403,-3.043,-2.9813,-2.9423,-2.8685,-2.794,-2.7654,-2.7147,-2.6708,-2.6708,-2.5964,-2.5319,-2.4879,-2.4333,-2.3595,-2.2888,-2.2482,-2.2146,-2.2188,-2.1944,-2.1888,-2.2083,-2.1313,-2.0406,-1.91,-1.8076,-1.8076,-1.8008,-1.6507,-1.5728,-3.9383,-3.9081,-3.9043,-3.8544,-3.7753,-3.7716,-3.7248,-3.6541,-3.6485,-3.6016,-3.5319,-3.5207,-3.4907,-3.4473,-3.4416,-3.4678,-3.5195,-3.4837,-3.4634,-3.4569,-3.4663,-3.4588,-3.4417,-3.4417,-3.4398,-3.4417,-3.451,-3.4572,-3.4713,-3.4889,-3.4963,-3.4982,-3.4963,-3.502,-3.5077,-3.4732,-3.4325,-3.4122,-3.4365,-3.4675,-3.4925,-3.507,-3.519,-3.5354,-3.5446,-3.5507,-3.5507,-3.5534,-3.5588,-3.5611,-3.5741,-3.5827,-3.5903,-3.5945,-3.5975,-3.5996,-3.6016,-3.5995,-3.5945,-3.5921,-3.5884,-3.5772,-3.5728,-3.5674,-3.5639,-3.559,-3.5574,-3.5574,-3.5554,-3.5574,-3.5562,-3.5546,-3.5522,-3.5501,-3.5507,-3.5383,-3.5157,-3.5088,-3.4963,-3.4714,-3.4486,-3.4098,-3.3646,-3.3171,-3.2669,-3.2089,-3.1279,-3.0743,-3.0525,-2.9743,-2.8859,-2.8802,-2.8293,-2.7926,-2.776,-2.7231,-2.6166,-2.56,-2.4906,-2.3881,-2.3008,-2.2492,-2.2179,-2.2193,-2.212,-2.2043,-2.1608,-2.082,-1.9673,-1.8317,-1.794,-1.793,-1.7432,-1.6724,-1.5728,-3.8882,-3.797,-3.7888,-3.7302,-3.6445,-3.6362,-3.5799,-3.5156,-3.5055,-3.4668,-3.4131,-3.3942,-3.4013,-3.386,-3.3921,-3.3879,-3.4053,-3.4413,-3.4464,-3.4237,-3.4484,-3.433,-3.3897,-3.3915,-3.3892,-3.3915,-3.4083,-3.4357,-3.4612,-3.4653,-3.4694,-3.4694,-3.4694,-3.4637,-3.4447,-3.4304,-3.424,-3.4261,-3.4259,-3.4375,-3.4694,-3.4944,-3.5088,-3.5157,-3.5354,-3.546,-3.5474,-3.5488,-3.5547,-3.5579,-3.5601,-3.569,-3.586,-3.59,-3.5918,-3.5975,-3.5996,-3.6016,-3.6016,-3.5976,-3.5951,-3.591,-3.59,-3.5827,-3.5717,-3.5689,-3.5675,-3.5687,-3.5694,-3.5689,-3.5667,-3.5639,-3.5577,-3.5528,-3.552,-3.5383,-3.5207,-3.5105,-3.4999,-3.4832,-3.4714,-3.4694,-3.4505,-3.3954,-3.3424,-3.3178,-3.2433,-3.1734,-3.163,-3.0965,-3.0767,-3.0507,-2.9656,-2.8902,-2.8887,-2.8752,-2.7608,-2.6574,-2.5795,-2.4902,-2.4052,-2.3446,-2.2938,-2.2839,-2.2242,-2.2053,-2.1125,-2.0342,-1.9378,-1.8327,-1.8124,-1.7716,-1.7001,-1.6289,-1.5155,-3.7627,-3.6851,-3.6814,-3.6251,-3.5459,-3.5422,-3.4945,-3.4211,-3.4174,-3.4027,-3.3825,-3.3807,-3.3807,-3.3807,-3.3807,-3.3807,-3.3834,-3.4005,-3.403,-3.3947,-3.4046,-3.3991,-3.3836,-3.3817,-3.3817,-3.3836,-3.3873,-3.3979,-3.4111,-3.4265,-3.4357,-3.4357,-3.4357,-3.4375,-3.4353,-3.4111,-3.3949,-3.3981,-3.3943,-3.4087,-3.4357,-3.4655,-3.4908,-3.5088,-3.519,-3.5223,-3.5223,-3.5417,-3.552,-3.5528,-3.5577,-3.5668,-3.5736,-3.5761,-3.5836,-3.5916,-3.594,-3.595,-3.5996,-3.6016,-3.5976,-3.5972,-3.5938,-3.5896,-3.5817,-3.5761,-3.5717,-3.571,-3.5703,-3.5703,-3.5696,-3.5682,-3.5648,-3.5596,-3.5534,-3.5488,-3.5393,-3.5364,-3.5335,-3.5258,-3.5088,-3.4981,-3.4906,-3.4491,-3.4282,-3.4187,-3.3342,-3.2661,-3.2493,-3.177,-3.0772,-3.0428,-2.9916,-2.9747,-2.9607,-2.9391,-2.8669,-2.7602,-2.6715,-2.5686,-2.4855,-2.4277,-2.3811,-2.2959,-2.2409,-2.1641,-2.0703,-1.9814,-1.8844,-1.8327,-1.8066,-1.7432,-1.6715,-1.586,-1.4871,-3.656,-3.5862,-3.5826,-3.533,-3.4596,-3.4559,-3.4302,-3.3844,-3.3807,-3.3807,-3.3807,-3.3807,-3.3807,-3.3807,-3.3807,-3.3707,-3.356,-3.3578,-3.3476,-3.3419,-3.3707,-3.3807,-3.3807,-3.3807,-3.3807,-3.3807,-3.3807,-3.3807,-3.3834,-3.3961,-3.4043,-3.4025,-3.4068,-3.4105,-3.4154,-3.3939,-3.3807,-3.3807,-3.3807,-3.3876,-3.4087,-3.4353,-3.4593,-3.4755,-3.4889,-3.4944,-3.4963,-3.5122,-3.5239,-3.535,-3.5477,-3.559,-3.5655,-3.5671,-3.5716,-3.5797,-3.5836,-3.5857,-3.5948,-3.5957,-3.5974,-3.5976,-3.5951,-3.5923,-3.5921,-3.5838,-3.583,-3.5806,-3.581,-3.5806,-3.5825,-3.5802,-3.5768,-3.5733,-3.5641,-3.5577,-3.5577,-3.5566,-3.5577,-3.5504,-3.5387,-3.5297,-3.522,-3.5136,-3.4999,-3.4868,-3.4202,-3.3634,-3.343,-3.2748,-3.1937,-3.1339,-3.1161,-3.0853,-3.0259,-2.9943,-2.9609,-2.8689,-2.7718,-2.644,-2.5331,-2.4841,-2.4351,-2.2753,-2.1848,-2.0991,-2.0074,-1.9233,-1.8395,-1.8202,-1.794,-1.7217,-1.6507,-1.579,-1.4799,-3.5659,-3.4897,-3.4889,-3.4467,-3.3844,-3.3853,-3.388,-3.3807,-3.3807,-3.3807,-3.3807,-3.3734,-3.3753,-3.3753,-3.3652,-3.3419,-3.3196,-3.3136,-3.2965,-3.2885,-3.3237,-3.3588,-3.3781,-3.3643,-3.3606,-3.3707,-3.3753,-3.3753,-3.3707,-3.3716,-3.378,-3.3762,-3.3671,-3.3707,-3.3652,-3.3707,-3.368,-3.3707,-3.3753,-3.3734,-3.3842,-3.4093,-3.4242,-3.4269,-3.4529,-3.4655,-3.4674,-3.4694,-3.4851,-3.5088,-3.535,-3.5496,-3.5568,-3.56,-3.5621,-3.5709,-3.5696,-3.578,-3.5864,-3.588,-3.5893,-3.5933,-3.5934,-3.5976,-3.5976,-3.5957,-3.5956,-3.5957,-3.5976,-3.5996,-3.5976,-3.5925,-3.5887,-3.588,-3.5768,-3.5702,-3.5696,-3.5689,-3.5667,-3.5667,-3.5629,-3.5581,-3.5538,-3.5464,-3.5441,-3.5335,-3.494,-3.4623,-3.436,-3.3812,-3.3588,-3.2979,-3.2218,-3.1705,-3.1024,-3.0303,-2.9947,-2.9198,-2.8186,-2.6971,-2.5508,-2.4888,-2.438,-2.2782,-2.1283,-2.0375,-1.9628,-1.8977,-1.8395,-1.8076,-1.7579,-1.6941,-1.6158,-1.5376,-1.445,-3.4212,-3.3225,-3.3521,-3.356,-3.3408,-3.368,-3.3807,-3.3807,-3.3807,-3.3762,-3.3734,-3.3494,-3.3361,-3.3332,-3.2996,-3.2777,-3.2713,-3.2681,-3.2648,-3.2515,-3.2503,-3.3075,-3.349,-3.3152,-3.3045,-3.3302,-3.3361,-3.3361,-3.3361,-3.3379,-3.3379,-3.335,-3.3045,-3.2872,-3.2858,-3.2903,-3.3027,-3.3302,-3.3361,-3.3504,-3.3788,-3.4043,-3.4218,-3.4218,-3.4269,-3.4315,-3.4334,-3.4409,-3.4689,-3.507,-3.5155,-3.532,-3.547,-3.5515,-3.555,-3.5611,-3.563,-3.5655,-3.5736,-3.5755,-3.5747,-3.5783,-3.5802,-3.5825,-3.5935,-3.5938,-3.5948,-3.5996,-3.6016,-3.5996,-3.5976,-3.5976,-3.5955,-3.5951,-3.5798,-3.571,-3.5717,-3.5703,-3.5703,-3.5696,-3.5657,-3.5631,-3.5611,-3.5538,-3.5501,-3.5441,-3.5203,-3.4926,-3.4695,-3.4357,-3.3873,-3.3296,-3.2652,-3.2262,-3.1719,-3.0903,-3.0201,-2.9476,-2.8482,-2.732,-2.5748,-2.4332,-2.3761,-2.2798,-2.1192,-2.0074,-1.9694,-1.9177,-1.8654,-1.793,-1.7285,-1.6576,-1.5587,-1.4736,-1.381,-3.3173,-3.2517,-3.2795,-3.2903,-3.2934,-3.3146,-3.3252,-3.3266,-3.3263,-3.327,-3.3207,-3.3027,-3.2921,-3.289,-3.2616,-3.2366,-3.223,-3.2196,-3.2109,-3.1914,-3.181,-3.2229,-3.2784,-3.2583,-3.2648,-3.289,-3.2921,-3.2903,-3.2921,-3.2921,-3.2921,-3.2872,-3.2648,-3.2517,-3.255,-3.2517,-3.2616,-3.284,-3.2921,-3.3105,-3.355,-3.3707,-3.3768,-3.3776,-3.3776,-3.3776,-3.3802,-3.4023,-3.434,-3.4655,-3.4908,-3.5108,-3.5289,-3.532,-3.5422,-3.5538,-3.555,-3.5599,-3.5648,-3.5663,-3.5667,-3.5696,-3.5703,-3.5749,-3.5802,-3.5812,-3.583,-3.5859,-3.5879,-3.5874,-3.5874,-3.5874,-3.5874,-3.5837,-3.578,-3.5751,-3.5802,-3.5838,-3.5834,-3.5802,-3.5761,-3.5714,-3.5733,-3.5611,-3.5558,-3.5483,-3.5281,-3.5049,-3.487,-3.447,-3.4037,-3.3497,-3.2885,-3.24,-3.1844,-3.1128,-3.0107,-2.9406,-2.7838,-2.6857,-2.5767,-2.4021,-2.2895,-2.2125,-2.091,-1.9955,-1.9441,-1.8911,-1.8104,-1.7423,-1.6922,-1.6079,-1.5092,-1.4171,-1.3237,-3.24,-3.235,-3.2417,-3.24,-3.2466,-3.2499,-3.2602,-3.2512,-3.2585,-3.2585,-3.2548,-3.2484,-3.2451,-3.2417,-3.2282,-3.2109,-3.1716,-3.1733,-3.1545,-3.1389,-3.1317,-3.1605,-3.2039,-3.2196,-3.2282,-3.2417,-3.2417,-3.2417,-3.2417,-3.2417,-3.2417,-3.2384,-3.235,-3.2316,-3.2231,-3.2299,-3.2384,-3.24,-3.2417,-3.2681,-3.3027,-3.3148,-3.3178,-3.3178,-3.3178,-3.3166,-3.3255,-3.3541,-3.3913,-3.408,-3.4539,-3.4812,-3.498,-3.5051,-3.5155,-3.53,-3.5345,-3.5378,-3.5461,-3.5423,-3.5491,-3.5505,-3.5533,-3.5613,-3.553,-3.5521,-3.5538,-3.5558,-3.5624,-3.5671,-3.5729,-3.5717,-3.5729,-3.5741,-3.5716,-3.5802,-3.5927,-3.5976,-3.5976,-3.5957,-3.5911,-3.5907,-3.5845,-3.5742,-3.5621,-3.5566,-3.5353,-3.5228,-3.5013,-3.4716,-3.4278,-3.3799,-3.3146,-3.2431,-3.1862,-3.1283,-3.0143,-2.9073,-2.707,-2.5809,-2.5453,-2.3936,-2.2323,-2.1112,-2.0719,-1.989,-1.8854,-1.825,-1.7638,-1.7139,-1.6715,-1.5649,-1.445,-1.3738,-1.2879,-3.1787,-3.1504,-3.1842,-3.1951,-3.2004,-3.2336,-3.2489,-3.2451,-3.2491,-3.242,-3.2401,-3.2092,-3.1915,-3.1915,-3.1585,-3.1428,-3.1257,-3.1257,-3.1269,-3.1213,-3.119,-3.1252,-3.1418,-3.149,-3.166,-3.1878,-3.1968,-3.1968,-3.1968,-3.1968,-3.1951,-3.1933,-3.1714,-3.1487,-3.1524,-3.16,-3.1657,-3.1897,-3.1915,-3.2144,-3.25,-3.2598,-3.2598,-3.2648,-3.2648,-3.2648,-3.2816,-3.3388,-3.3644,-3.3588,-3.3802,-3.4229,-3.4676,-3.4774,-3.4813,-3.4889,-3.4889,-3.4888,-3.4906,-3.4958,-3.4923,-3.4969,-3.5015,-3.4947,-3.4985,-3.5033,-3.5032,-3.5078,-3.5241,-3.5427,-3.5585,-3.567,-3.5655,-3.564,-3.5655,-3.5696,-3.5777,-3.5857,-3.5884,-3.5825,-3.5839,-3.5857,-3.5757,-3.5739,-3.5655,-3.5611,-3.5516,-3.538,-3.5174,-3.4959,-3.4619,-3.4153,-3.3424,-3.2729,-3.2056,-3.1185,-2.9708,-2.8545,-2.6643,-2.5007,-2.4654,-2.3878,-2.2212,-2.1428,-2.0974,-1.9879,-1.8442,-1.8056,-1.7501,-1.707,-1.6367,-1.5234,-1.4171,-1.3382,-1.2732,-3.1428,-3.123,-3.1449,-3.1507,-3.1562,-3.1777,-3.1908,-3.1894,-3.1888,-3.1871,-3.1733,-3.1236,-3.1043,-3.1055,-3.0608,-3.0351,-3.0351,-3.0393,-3.0518,-3.0749,-3.1005,-3.12,-3.0988,-3.0694,-3.069,-3.1363,-3.1507,-3.149,-3.1528,-3.149,-3.1507,-3.1507,-3.1274,-3.1252,-3.119,-3.1151,-3.1157,-3.1072,-3.1094,-3.1329,-3.1737,-3.1774,-3.1934,-3.2127,-3.2161,-3.2161,-3.2213,-3.2791,-3.3001,-3.2983,-3.3085,-3.36,-3.4236,-3.4297,-3.4342,-3.4634,-3.4454,-3.4534,-3.4634,-3.4694,-3.4714,-3.4674,-3.4694,-3.4736,-3.4737,-3.4755,-3.4754,-3.48,-3.4932,-3.5072,-3.5207,-3.5226,-3.5284,-3.5396,-3.5407,-3.5469,-3.5592,-3.5728,-3.5777,-3.5735,-3.5759,-3.5759,-3.5737,-3.5698,-3.5692,-3.5656,-3.5652,-3.5524,-3.5405,-3.5211,-3.5009,-3.4543,-3.3765,-3.3038,-3.232,-3.1014,-2.9112,-2.7859,-2.6471,-2.4953,-2.4034,-2.3135,-2.2187,-2.1428,-2.0655,-1.9191,-1.7949,-1.7687,-1.7001,-1.5728,-1.4879,-1.4386,-1.381,-1.2872,-1.2445,-3.0918,-3.0935,-3.0918,-3.0935,-3.0918,-3.0918,-3.0918,-3.0918,-3.1009,-3.0986,-3.0838,-3.0236,-3.0218,-3.0064,-2.9701,-2.9435,-2.9451,-2.9496,-2.9805,-3.0156,-3.0905,-3.0916,-3.0667,-3.0062,-2.9971,-3.0845,-3.0821,-3.0861,-3.0861,-3.0935,-3.0764,-3.0861,-3.0878,-3.0757,-3.0838,-3.0878,-3.0601,-3.0276,-3.0234,-3.0369,-3.0687,-3.0717,-3.0931,-3.1198,-3.1291,-3.1253,-3.1384,-3.1877,-3.2231,-3.2126,-3.209,-3.2701,-3.3405,-3.3684,-3.3658,-3.4297,-3.3858,-3.3852,-3.403,-3.4209,-3.4232,-3.4364,-3.4319,-3.4297,-3.4278,-3.4282,-3.4323,-3.443,-3.4517,-3.4679,-3.4675,-3.4775,-3.4888,-3.4997,-3.5051,-3.5157,-3.5326,-3.5499,-3.5495,-3.5671,-3.5691,-3.5719,-3.5705,-3.5689,-3.5695,-3.5703,-3.5701,-3.5677,-3.5563,-3.5423,-3.5192,-3.4699,-3.3876,-3.2541,-3.1707,-3.0896,-2.9007,-2.7614,-2.6299,-2.4995,-2.3754,-2.31,-2.231,-2.0974,-1.9933,-1.867,-1.7872,-1.7628,-1.6507,-1.4522,-1.4027,-1.4314,-1.3593,-1.2445,-1.1929,-2.9717,-2.9689,-2.9673,-2.9733,-2.9717,-2.9717,-2.9761,-2.975,-3.012,-3.0016,-2.9793,-2.9867,-2.9681,-2.9544,-2.948,-2.9345,-2.9225,-2.9225,-2.9361,-2.9697,-3.0389,-3.0565,-2.987,-2.9408,-2.9456,-2.9597,-2.9717,-2.9717,-2.9805,-2.9673,-2.9892,-2.9761,-2.9805,-2.9805,-2.9848,-2.9717,-2.9821,-2.9585,-2.9556,-2.9657,-2.9669,-2.9783,-2.9827,-3.0041,-3.0084,-3.0041,-3.0182,-3.0817,-3.1137,-3.0473,-3.009,-3.0741,-3.1758,-3.2391,-3.267,-3.2967,-3.2901,-3.2931,-3.3069,-3.2985,-3.2893,-3.2862,-3.2997,-3.2967,-3.3046,-3.3241,-3.3515,-3.3652,-3.3963,-3.4338,-3.4674,-3.4551,-3.4674,-3.4754,-3.4715,-3.4774,-3.4851,-3.4921,-3.5082,-3.5387,-3.5524,-3.5667,-3.5648,-3.5651,-3.5671,-3.5701,-3.5742,-3.5713,-3.5616,-3.5494,-3.5329,-3.4678,-3.3887,-3.2357,-3.0875,-3.0128,-2.8933,-2.7713,-2.6404,-2.512,-2.4092,-2.3471,-2.2482,-2.0771,-1.9672,-1.8803,-1.8152,-1.7423,-1.6358,-1.4728,-1.4514,-1.445,-1.3142,-1.1835,-1.087,-2.9406,-2.9406,-2.9406,-2.9406,-2.9406,-2.9406,-2.9406,-2.9422,-2.9579,-2.9579,-2.9316,-2.8979,-2.8856,-2.8795,-2.8591,-2.8496,-2.848,-2.848,-2.8622,-2.9029,-2.9186,-2.9526,-2.9116,-2.8777,-2.8732,-2.8763,-2.8685,-2.8857,-2.9361,-2.9406,-2.93,-2.9406,-2.9406,-2.9406,-2.9406,-2.9451,-2.918,-2.9012,-2.8919,-2.8904,-2.895,-2.9134,-2.9345,-2.9361,-2.9345,-2.9406,-2.9528,-2.9847,-3.0098,-2.9637,-2.8945,-2.9304,-3.0135,-3.0802,-3.1391,-3.2161,-3.2213,-3.223,-3.2417,-3.2517,-3.2533,-3.255,-3.2451,-3.2517,-3.255,-3.2727,-3.2759,-3.2916,-3.3039,-3.3478,-3.3836,-3.3919,-3.4086,-3.4315,-3.4274,-3.4319,-3.4492,-3.4433,-3.462,-3.4942,-3.5166,-3.5329,-3.5596,-3.5601,-3.564,-3.5688,-3.575,-3.5721,-3.5651,-3.557,-3.5436,-3.4811,-3.4064,-3.2823,-3.1192,-3.0103,-2.9039,-2.7746,-2.6404,-2.5176,-2.3878,-2.2955,-2.1643,-2.0063,-1.9212,-1.8449,-1.6954,-1.5799,-1.5288,-1.4791,-1.4011,-1.315,-1.2338,-1.1304,-1.0265,-2.9042,-2.9058,-2.9042,-2.9042,-2.9042,-2.9042,-2.8996,-2.9058,-2.9014,-2.8998,-2.8856,-2.7819,-2.7622,-2.8015,-2.773,-2.7342,-2.7203,-2.7122,-2.7399,-2.765,-2.786,-2.8143,-2.8056,-2.785,-2.7345,-2.749,-2.7399,-2.7799,-2.8622,-2.8639,-2.8732,-2.8481,-2.8623,-2.8607,-2.8403,-2.837,-2.8354,-2.8128,-2.8061,-2.8046,-2.803,-2.8338,-2.8607,-2.867,-2.8717,-2.8732,-2.8591,-2.8873,-2.9028,-2.8746,-2.834,-2.8122,-2.9007,-2.9225,-3.0051,-3.1428,-3.1462,-3.1573,-3.1683,-3.1738,-3.1556,-3.1519,-3.1774,-3.1827,-3.181,-3.165,-3.1952,-3.2108,-3.2347,-3.2494,-3.2827,-3.2991,-3.3317,-3.3579,-3.3597,-3.3533,-3.3795,-3.387,-3.3808,-3.4162,-3.46,-3.4906,-3.5092,-3.5288,-3.5271,-3.5446,-3.5504,-3.5672,-3.5623,-3.5685,-3.5495,-3.4974,-3.4221,-3.3268,-3.1898,-3.0466,-2.9182,-2.7768,-2.6376,-2.498,-2.3513,-2.2151,-2.0812,-1.9575,-1.8455,-1.7494,-1.5808,-1.4736,-1.4871,-1.4434,-1.3011,-1.2063,-1.1533,-1.0553,-0.9362,-2.781,-2.7795,-2.7795,-2.7795,-2.7795,-2.778,-2.781,-2.7775,-2.7823,-2.7823,-2.7715,-2.6462,-2.6486,-2.721,-2.693,-2.6283,-2.5906,-2.5892,-2.5986,-2.6283,-2.6938,-2.6881,-2.6108,-2.5781,-2.5884,-2.6144,-2.5932,-2.6534,-2.7348,-2.7246,-2.6938,-2.6872,-2.6582,-2.5997,-2.65,-2.6747,-2.6453,-2.604,-2.6414,-2.64,-2.5943,-2.5983,-2.6037,-2.6197,-2.6596,-2.6975,-2.721,-2.761,-2.792,-2.775,-2.767,-2.7887,-2.8511,-2.8606,-2.895,-2.9492,-2.9713,-2.9745,-2.9956,-3.011,-3.0152,-3.0194,-3.0067,-2.9827,-3.0136,-3.0384,-3.0639,-3.0925,-3.133,-3.1653,-3.1812,-3.2193,-3.253,-3.261,-3.2538,-3.2524,-3.2729,-3.2853,-3.2865,-3.3239,-3.3626,-3.4111,-3.4478,-3.4698,-3.4886,-3.509,-3.528,-3.5449,-3.5597,-3.5644,-3.5546,-3.5021,-3.447,-3.3549,-3.2225,-3.0832,-2.935,-2.7821,-2.6227,-2.4741,-2.3119,-2.1596,-2.0565,-1.9314,-1.8004,-1.6862,-1.5607,-1.4942,-1.4942,-1.378,-1.2037,-1.1304,-1.1007,-0.9809,-0.8533,-2.6375,-2.6322,-2.6375,-2.6375,-2.6375,-2.6375,-2.6375,-2.6379,-2.6651,-2.6623,-2.6229,-2.5383,-2.552,-2.6065,-2.596,-2.5742,-2.5453,-2.5273,-2.5398,-2.5287,-2.5953,-2.5953,-2.5398,-2.4626,-2.4393,-2.5051,-2.5384,-2.5673,-2.6094,-2.604,-2.5892,-2.5783,-2.5563,-2.555,-2.5022,-2.5149,-2.501,-2.4716,-2.4493,-2.4239,-2.4138,-2.4349,-2.4617,-2.4673,-2.5412,-2.5714,-2.6071,-2.7025,-2.7016,-2.664,-2.6375,-2.6467,-2.6663,-2.6753,-2.6879,-2.7004,-2.7092,-2.7841,-2.9148,-2.9239,-2.9255,-2.9345,-2.93,-2.948,-2.9435,-2.9476,-2.9675,-2.9969,-3.0179,-3.0432,-3.0622,-3.0913,-3.1179,-3.1345,-3.1396,-3.1416,-3.1489,-3.1595,-3.1741,-3.219,-3.2581,-3.2972,-3.3476,-3.4051,-3.4277,-3.4547,-3.4866,-3.5191,-3.5398,-3.5581,-3.5416,-3.5104,-3.4505,-3.3848,-3.2409,-3.0964,-2.9463,-2.7873,-2.5802,-2.4231,-2.2517,-2.1163,-1.9878,-1.8378,-1.6771,-1.5834,-1.5147,-1.406,-1.2968,-1.1944,-1.0846,-1.0254,-0.9734,-0.9059,-0.7855,-2.42,-2.4257,-2.5036,-2.5398,-2.5398,-2.5398,-2.5329,-2.5092,-2.5186,-2.5089,-2.4743,-2.4273,-2.4199,-2.4218,-2.4244,-2.4116,-2.4084,-2.42,-2.42,-2.4284,-2.4532,-2.4456,-2.3729,-2.2981,-2.3007,-2.4244,-2.3709,-2.3884,-2.4,-2.4129,-2.4129,-2.4741,-2.3955,-2.3955,-2.3942,-2.3716,-2.3443,-2.3385,-2.2708,-2.2347,-2.2359,-2.2865,-2.3056,-2.3423,-2.3974,-2.4473,-2.4681,-2.6133,-2.6273,-2.5034,-2.4179,-2.4139,-2.4622,-2.4801,-2.4801,-2.4886,-2.4886,-2.5544,-2.6893,-2.7603,-2.8276,-2.8403,-2.8497,-2.8211,-2.881,-2.8841,-2.867,-2.8529,-2.9148,-2.9249,-2.9392,-2.9578,-3.012,-3.0286,-3.0203,-3.0236,-3.0285,-3.0432,-3.0563,-3.0847,-3.1196,-3.1453,-3.2117,-3.312,-3.364,-3.3948,-3.4352,-3.4814,-3.5168,-3.5412,-3.5448,-3.5232,-3.4899,-3.4207,-3.291,-3.1355,-2.9769,-2.7702,-2.565,-2.3599,-2.1773,-2.0114,-1.8614,-1.7104,-1.5421,-1.3829,-1.2597,-1.1723,-1.092,-1.0622,-1.0254,-0.9059,-0.8237,-0.7783,-0.733,-2.0951,-2.1192,-2.4129,-2.5217,-2.5204,-2.5398,-2.4883,-2.3948,-2.339,-2.3128,-2.3052,-2.2871,-2.2226,-2.1584,-2.1944,-2.1882,-2.1129,-2.0951,-2.1307,-2.182,-2.2305,-2.2426,-2.1827,-2.1315,-2.0917,-2.1209,-2.1596,-2.1557,-2.1066,-2.1385,-2.2005,-2.2807,-2.2066,-2.1307,-2.1295,-2.1723,-2.1404,-2.1218,-2.0561,-2.0426,-2.0437,-2.0703,-2.0905,-2.1095,-2.1561,-2.1969,-2.2116,-2.4069,-2.4649,-2.2993,-2.2085,-2.2061,-2.2871,-2.3005,-2.3065,-2.3065,-2.3065,-2.3412,-2.405,-2.5149,-2.5713,-2.5741,-2.6011,-2.6634,-2.75,-2.7056,-2.6797,-2.6975,-2.767,-2.7936,-2.8165,-2.8513,-2.8839,-2.8823,-2.8653,-2.8683,-2.8867,-2.9307,-2.9428,-2.9592,-2.9864,-3.022,-3.0409,-3.1356,-3.219,-3.2499,-3.3374,-3.387,-3.4798,-3.5155,-3.5444,-3.5428,-3.5271,-3.46,-3.356,-3.1876,-2.9748,-2.727,-2.4983,-2.2871,-2.0837,-1.9141,-1.6893,-1.546,-1.3735,-1.1857,-1.0559,-1.0582,-1.0519,-1.0265,-0.9583,-0.8161,-0.7488,-0.7184,-0.681,-2.059,-2.0707,-2.198,-2.2457,-2.2445,-2.2457,-2.2262,-2.1956,-2.1596,-2.146,-2.1424,-2.1424,-2.1146,-2.0749,-2.0824,-2.0876,-2.059,-2.059,-2.0515,-2.0688,-2.1145,-2.1277,-2.0666,-1.9802,-1.9329,-1.9888,-2.0267,-2.0224,-1.9846,-1.9215,-1.8701,-1.9076,-1.9792,-2.0632,-2.0621,-1.9586,-1.8878,-1.8004,-1.7571,-1.7328,-1.7542,-1.8475,-1.894,-1.9007,-2.0482,-2.0905,-2.1118,-2.1518,-2.1631,-2.1241,-2.0381,-2.0586,-2.0996,-2.1179,-2.1253,-2.1253,-2.1265,-2.1253,-2.1564,-2.2827,-2.3979,-2.4687,-2.512,-2.5618,-2.6133,-2.5877,-2.5837,-2.604,-2.6226,-2.6366,-2.6395,-2.6591,-2.6836,-2.6902,-2.7041,-2.7128,-2.7199,-2.7519,-2.7765,-2.7674,-2.8451,-2.9125,-2.9303,-2.9534,-3.0339,-3.1045,-3.2039,-3.3013,-3.3918,-3.4702,-3.4952,-3.5256,-3.5128,-3.468,-3.3655,-3.171,-2.9624,-2.7011,-2.4354,-2.1946,-1.9609,-1.6587,-1.4552,-1.3244,-1.2284,-1.0703,-0.9927,-1.0187,-0.9878,-0.9089,-0.8169,-0.7111,-0.6659,-0.6183,-0.5718,-1.8961,-1.8961,-1.9027,-1.964,-2.0515,-2.059,-2.0462,-2.0215,-2.0204,-1.9803,-1.9444,-1.917,-1.9027,-1.8951,-1.8951,-1.8885,-1.8685,-1.8685,-1.8829,-1.9044,-1.9348,-1.9777,-1.9212,-1.8374,-1.7589,-1.8563,-1.868,-1.8388,-1.7832,-1.7328,-1.6977,-1.7095,-1.7852,-1.8552,-1.8485,-1.7813,-1.6392,-1.5508,-1.5163,-1.5163,-1.557,-1.6383,-1.7123,-1.7192,-1.8198,-1.8609,-1.8675,-1.8742,-1.8731,-1.8614,-1.8258,-1.8324,-1.869,-1.9027,-1.9027,-1.9038,-1.9027,-1.9027,-1.9511,-2.1026,-2.2383,-2.3208,-2.3377,-2.3929,-2.446,-2.4446,-2.4032,-2.4147,-2.4376,-2.4503,-2.446,-2.4759,-2.4955,-2.5067,-2.5397,-2.5451,-2.5163,-2.5272,-2.5542,-2.5728,-2.6462,-2.6885,-2.671,-2.6867,-2.8555,-2.9782,-3.162,-3.2396,-3.2957,-3.37,-3.4213,-3.4562,-3.4847,-3.4319,-3.3615,-3.1774,-2.9764,-2.6743,-2.3945,-2.0819,-1.8131,-1.5314,-1.367,-1.3331,-1.2035,-0.9943,-0.7833,-0.6173,-0.6678,-0.7594,-0.6177,-0.4363,-0.3816,-0.3267,-0.3587,-1.5508,-1.5305,-1.5508,-1.7406,-2.0106,-2.0515,-1.9933,-1.9079,-1.9023,-1.8257,-1.6954,-1.6123,-1.5773,-1.5843,-1.6184,-1.6253,-1.6184,-1.5983,-1.5913,-1.6455,-1.7455,-1.7278,-1.6571,-1.5896,-1.5506,-1.585,-1.6026,-1.587,-1.5334,-1.5026,-1.4901,-1.4696,-1.4947,-1.5536,-1.5359,-1.5296,-1.5163,-1.5084,-1.4791,-1.4577,-1.4498,-1.4696,-1.4964,-1.5097,-1.5668,-1.6079,-1.6079,-1.6567,-1.6627,-1.6374,-1.58,-1.58,-1.6096,-1.6114,-1.6053,-1.5983,-1.5843,-1.5711,-1.5703,-1.8808,-2.0403,-2.1156,-2.1093,-2.1428,-2.2237,-2.2189,-2.1725,-2.1738,-2.2165,-2.225,-2.2575,-2.2887,-2.298,-2.3098,-2.3359,-2.3204,-2.2786,-2.2783,-2.3,-2.3443,-2.3804,-2.3984,-2.3715,-2.408,-2.6221,-2.8286,-3.0731,-3.1784,-3.1902,-3.2044,-3.2363,-3.352,-3.3887,-3.3926,-3.3204,-3.1958,-2.9828,-2.6725,-2.3619,-2.0551,-1.8027,-1.58,-1.4498,-1.3343,-1.004,-0.6353,-0.3555,-0.1158,-0.1467,-0.1697,-0.2094,-0.1087,-0.0543,-0.0155,-0.0156,-1.5163,-1.5163,-1.5163,-1.5922,-1.6995,-1.6995,-1.6867,-1.6609,-1.654,-1.6201,-1.572,-1.5305,-1.5163,-1.5163,-1.5013,-1.4942,-1.5021,-1.5163,-1.5163,-1.518,-1.5828,-1.5848,-1.5171,-1.404,-1.342,-1.3656,-1.3701,-1.3606,-1.3245,-1.2795,-1.1851,-1.1495,-1.2018,-1.2551,-1.3665,-1.3803,-1.2882,-1.1991,-1.1489,-1.1205,-1.1428,-1.1991,-1.2344,-1.2424,-1.3439,-1.395,-1.4022,-1.4673,-1.4895,-1.4728,-1.43,-1.4466,-1.4791,-1.4799,-1.4942,-1.5013,-1.5084,-1.5163,-1.5305,-1.6651,-1.73,-1.7908,-1.8629,-1.8882,-1.9318,-1.921,-1.9047,-1.9112,-1.948,-1.9694,-2.0187,-2.0389,-2.0493,-2.0504,-2.0493,-2.0068,-1.9768,-1.9987,-2.0296,-2.0997,-2.1533,-2.1542,-2.1369,-2.1214,-2.2896,-2.3854,-2.5745,-2.871,-2.9589,-2.9513,-2.977,-3.1625,-3.2614,-3.299,-3.2355,-2.8046,-2.7712,-2.6504,-2.3441,-2.0445,-1.8128,-1.4086,-1.0565,-0.6984,-0.4706,-0.2485,0.054,0.3238,0.4632,0.487,0.339,0.2633,0.3191,0.3744,0.4144,-1.3186,-1.3186,-1.3179,-1.3179,-1.3324,-1.4188,-1.4466,-1.4165,-1.3814,-1.367,-1.3526,-1.3317,-1.3259,-1.3411,-1.3331,-1.3484,-1.3556,-1.3259,-1.3107,-1.3266,-1.3965,-1.4003,-1.3557,-1.2335,-1.1443,-1.1465,-1.1668,-1.1697,-1.1205,-1.0525,-1.0093,-0.9809,-0.9296,-1.0645,-1.1687,-1.1446,-1.0748,-1.0002,-0.9712,-0.9739,-0.9809,-1.0024,-1.0301,-1.0668,-1.1323,-1.1972,-1.2278,-1.2729,-1.3179,-1.3252,-1.3186,-1.3186,-1.3186,-1.3186,-1.3179,-1.3179,-1.3107,-1.3034,-1.2954,-1.2954,-1.3403,-1.3731,-1.5548,-1.6688,-1.6825,-1.6971,-1.6971,-1.6903,-1.6775,-1.7135,-1.7639,-1.7842,-1.789,-1.789,-1.7514,-1.7088,-1.6729,-1.6966,-1.7389,-1.8151,-1.8909,-1.894,-1.8849,-1.8998,-1.9431,-1.9943,-2.054,-2.35,-2.6278,-2.6292,-2.6087,-2.7566,-2.825,-2.7659,-2.5207,-2.0866,-2.1719,-2.5245,-2.0394,-1.3857,-1.1644,-0.6615,-0.3583,-0.0541,0.2401,0.4737,0.5806,0.7447,0.8401,0.8218,0.6965,0.671,0.7045,0.7057,0.72,-0.9372,-0.9296,-0.9296,-0.9523,-0.9884,-1.2118,-1.2739,-1.1985,-1.115,-1.0793,-1.0724,-1.0099,-1.0404,-1.0708,-0.9965,-1.026,-1.0846,-1.0185,-1.0034,-1.0293,-1.1565,-1.2009,-1.1527,-1.0201,-0.9105,-0.9,-0.919,-0.9311,-0.913,-0.8348,-0.8353,-0.8595,-0.8053,-0.8751,-0.9064,-0.8817,-0.8259,-0.7715,-0.7728,-0.7744,-0.7821,-0.8362,-0.8273,-0.8415,-0.8788,-0.9085,-0.9241,-0.9466,-0.9552,-0.9492,-0.9442,-0.9377,-0.9306,-0.9236,-0.9236,-0.9246,-0.9413,-0.9499,-0.9585,-0.9672,-0.9824,-1.0651,-1.2826,-1.4322,-1.4768,-1.4457,-1.439,-1.4447,-1.439,-1.4697,-1.5023,-1.5213,-1.5321,-1.5084,-1.4696,-1.4212,-1.3738,-1.3875,-1.4258,-1.4976,-1.5931,-1.6088,-1.5721,-1.5763,-1.5283,-1.4944,-1.5317,-1.6147,-1.8905,-2.1525,-2.1477,-2.203,-2.2237,-2.1307,-1.8199,-1.435,-1.0014,-1.1673,-0.6406,-0.0692,0.0527,0.2474,0.5943,0.916,1.0749,1.1986,1.2019,1.1749,1.1649,1.1163,1.0983,0.9236,0.9199,0.8927,0.8836,-0.9296,-0.9296,-0.9296,-0.9296,-0.9291,-0.9412,-0.9702,-1.0013,-0.9798,-0.9728,-0.9653,-0.9437,-0.9205,-0.9669,-0.9448,-0.9442,-0.9442,-0.9448,-0.9448,-0.963,-0.9656,-1.0041,-0.9468,-0.8183,-0.6518,-0.5987,-0.6162,-0.674,-0.596,-0.5505,-0.5129,-0.482,-0.5514,-0.5999,-0.624,-0.5687,-0.5197,-0.4955,-0.52,-0.5431,-0.5366,-0.5449,-0.5372,-0.5529,-0.6002,-0.6157,-0.6311,-0.6835,-0.6984,-0.7126,-0.7068,-0.711,-0.7114,-0.7138,-0.7133,-0.7133,-0.7137,-0.7137,-0.7053,-0.7046,-0.7354,-0.7915,-0.9478,-1.0202,-1.0887,-1.1372,-1.1546,-1.2043,-1.2101,-1.2374,-1.2576,-1.2701,-1.2756,-1.2516,-1.2119,-1.1587,-1.1089,-1.1023,-1.1413,-1.2011,-1.2966,-1.2434,-1.2064,-1.157,-1.1062,-1.0339,-1.002,-1.0377,-1.156,-1.4239,-1.5821,-1.6156,-1.4844,-1.3471,-1.1977,-0.8647,-0.1877,0.3348,0.7983,1.2993,1.7318,1.885,1.8395,1.7743,1.7506,1.7323,1.733,1.6732,1.5777,1.6054,1.5756,1.3237,1.1328,1.1303,1.0917,-0.7452,-0.7452,-0.6981,-0.6824,-0.6747,-0.6217,-0.6294,-0.6904,-0.7766,-0.7927,-0.7532,-0.7379,-0.7443,-0.7271,-0.6893,-0.6893,-0.7271,-0.6663,-0.6437,-0.6597,-0.7774,-0.803,-0.746,-0.6106,-0.463,-0.3936,-0.4022,-0.4743,-0.3887,-0.3505,-0.3278,-0.3355,-0.3124,-0.3759,-0.4309,-0.3679,-0.2514,-0.2512,-0.2668,-0.2971,-0.3057,-0.2999,-0.3087,-0.3092,-0.3728,-0.3905,-0.3987,-0.4765,-0.4928,-0.4933,-0.494,-0.4955,-0.4963,-0.4946,-0.4974,-0.4966,-0.4964,-0.4961,-0.4958,-0.4966,-0.5386,-0.582,-0.6105,-0.6427,-0.7686,-0.8725,-0.9555,-1.0199,-1.0064,-0.9994,-1.0134,-1.0284,-1.0119,-1.0038,-0.9546,-0.9052,-0.8743,-0.8431,-0.8779,-0.9213,-0.9068,-0.8427,-0.795,-0.7371,-0.6466,-0.529,-0.4099,-0.3472,-0.4821,-0.7118,-0.8434,-0.9057,-0.7078,-0.5164,-0.3475,-0.0501,0.6956,1.4104,1.9735,2.5135,3.1654,3.0803,2.6216,2.4042,2.2946,2.258,2.2019,2.0782,1.9928,2.0237,2.0242,1.8392,1.6143,1.4704,1.4,-0.4608,-0.4606,-0.3515,-0.3433,-0.3124,-0.3357,-0.3355,-0.3279,-0.5309,-0.555,-0.4838,-0.4686,-0.4748,-0.4889,-0.4353,-0.4353,-0.4658,-0.4353,-0.4203,-0.3278,-0.5234,-0.6028,-0.5395,-0.3986,-0.2798,-0.2727,-0.2966,-0.3042,-0.281,-0.2265,-0.1952,-0.2734,-0.2118,-0.2282,-0.2526,-0.135,-0.024,0.0081,-0.08,-0.1666,-0.2387,-0.2728,-0.2841,-0.2688,-0.2717,-0.2751,-0.2754,-0.2841,-0.2849,-0.2846,-0.2683,-0.2598,-0.2529,-0.2533,-0.2534,-0.2536,-0.2459,-0.2202,-0.2033,-0.1948,-0.2282,-0.2633,-0.2914,-0.3181,-0.4265,-0.6369,-0.7465,-0.7625,-0.7381,-0.7031,-0.7097,-0.6482,-0.6142,-0.6062,-0.573,-0.5398,-0.5233,-0.5076,-0.517,-0.5518,-0.5365,-0.4699,-0.3164,-0.2565,-0.1703,-0.0261,0.0871,0.1904,0.2029,0.0,-0.0555,-0.1322,0.0077,0.2655,0.65,1.0261,1.7198,2.398,2.8665,3.171,3.4219,3.3744,3.2411,3.0114,2.7939,2.7102,2.635,2.52,2.4367,2.4335,2.4071,2.3221,2.1496,1.9374,1.7821,-0.3513,-0.3435,-0.3202,-0.3124,-0.3124,-0.3124,-0.3046,-0.3124,-0.3593,-0.3591,-0.3513,-0.3435,-0.3433,-0.3196,-0.3042,-0.3042,-0.2963,-0.265,-0.3044,-0.2888,-0.3595,-0.3832,-0.3439,-0.1794,-0.0936,-0.1016,-0.1252,-0.133,-0.0782,-0.0156,0.047,0.0549,0.0792,0.0641,-0.0401,0.0973,0.1975,0.2327,0.1734,0.0411,-0.0579,-0.0746,-0.0751,-0.0752,-0.0673,-0.0675,-0.0675,-0.0759,-0.0758,-0.0673,0.0256,0.0519,0.0615,0.0615,0.0616,0.0616,0.035,0.0699,0.1047,0.1132,0.087,0.0611,0.0263,-0.0176,-0.1316,-0.3678,-0.4896,-0.48,-0.4704,-0.4346,-0.3815,-0.2941,-0.2332,-0.2248,-0.2078,-0.1905,-0.1733,-0.1735,-0.1737,-0.1741,-0.1746,-0.0612,0.0965,0.2193,0.3246,0.4122,0.4995,0.6192,0.8025,0.7537,0.7886,0.7369,0.7252,0.9912,1.4019,1.7865,2.3145,2.7531,3.1576,3.4335,3.6742,3.595,3.4918,3.4201,3.2837,3.1542,3.0425,2.9795,2.9189,2.8562,2.7666,2.6644,2.6077,2.4353,2.2662,-0.2425,-0.2345,-0.1406,-0.078,-0.0389,-0.0312,-0.0312,-0.0312,-0.0312,-0.0312,-0.0701,-0.164,-0.219,-0.1799,-0.1721,-0.1406,-0.1171,-0.1015,-0.0312,-0.039,-0.1481,-0.1715,-0.0857,0.0312,0.1014,0.1172,0.086,0.0938,0.1334,0.1824,0.2309,0.2475,0.3084,0.3123,0.2138,0.325,0.3884,0.4085,0.3914,0.2905,0.1545,0.1543,0.1621,0.162,0.1545,0.1549,0.1641,0.1555,0.1641,0.1643,0.2185,0.2374,0.2399,0.2402,0.2497,0.2497,0.2583,0.2946,0.3481,0.3744,0.3652,0.3112,0.2668,0.1948,0.1773,-0.0264,-0.132,-0.1407,-0.2818,-0.2726,-0.1667,-0.0701,-0.07,-0.0701,-0.0175,0.0176,0.0527,0.0792,0.0969,0.1234,0.1499,0.2378,0.3708,0.4669,0.5982,0.8373,0.9189,1.0434,1.229,1.3652,1.4476,1.5203,1.4576,1.5317,1.8221,2.2021,2.6284,3.0508,3.3952,3.6386,3.8205,3.7993,3.7461,3.6555,3.5817,3.5077,3.4169,3.321,3.2618,3.1862,3.093,2.9987,2.9468,2.885,2.7292,-0.0939,-0.0704,0.0939,0.2268,0.3046,0.3046,0.2966,0.2966,0.3046,0.2966,0.2497,0.0078,-0.0235,0.0078,0.0471,0.1097,0.1409,0.1173,0.2031,0.1951,0.1013,0.0545,0.1169,0.2418,0.2812,0.2898,0.2591,0.2673,0.2838,0.3289,0.3581,0.3676,0.3977,0.4294,0.4634,0.466,0.4621,0.4937,0.488,0.4387,0.3955,0.369,0.3403,0.3414,0.3619,0.3653,0.3744,0.3831,0.3829,0.4261,0.4423,0.4698,0.4705,0.48,0.4712,0.4712,0.4798,0.4975,0.5068,0.5419,0.5154,0.4802,0.4452,0.4364,0.4362,0.3732,0.2745,0.1946,0.0531,-0.0177,0.0974,0.1857,0.1767,0.1853,0.2478,0.3011,0.3548,0.3907,0.4176,0.4446,0.4975,0.5678,0.6637,0.7516,0.9316,1.1714,1.34,1.4896,1.6191,1.7204,1.8074,1.9564,2.0177,2.1459,2.2673,2.5,2.8517,3.1332,3.4493,3.747,3.9543,3.9232,3.8949,3.8653,3.7955,3.7179,3.6595,3.5719,3.5215,3.4547,3.3713,3.2692,3.23,3.1704,3.1287,0.2186,0.2265,0.2656,0.2968,0.3124,0.3124,0.3124,0.3124,0.3202,0.3124,0.32,0.281,0.2421,0.25,0.2501,0.2735,0.2735,0.2815,0.2813,0.2733,0.2807,0.2574,0.2966,0.4142,0.4226,0.4014,0.3653,0.3451,0.4423,0.4757,0.4901,0.5072,0.6036,0.6367,0.6383,0.634,0.6492,0.6708,0.6711,0.6383,0.586,0.5147,0.3732,0.3558,0.3561,0.4182,0.4621,0.4972,0.5574,0.6271,0.7065,0.7425,0.7428,0.7341,0.7341,0.7253,0.7253,0.7694,0.7876,0.8055,0.7967,0.8142,0.8146,0.8321,0.8051,0.7607,0.7058,0.7239,0.5909,0.4255,0.4882,0.6195,0.654,0.6886,0.7341,0.7683,0.8127,0.8218,0.8313,0.8404,0.8578,0.9438,1.0378,1.1401,1.2566,1.4608,1.5837,1.7171,1.8099,1.9714,2.1463,2.2875,2.4377,2.5387,2.5721,2.6791,2.9652,3.2349,3.4822,3.7436,3.934,4.0278,4.009,3.9611,3.9287,3.8677,3.8159,3.7613,3.6968,3.6253,3.5866,3.5273,3.4834,3.4261,3.355]},{"header":{"parameterUnit":"m.s-1","parameterCategory":1,"la1":31.0,"la2":29.5877,"lo1":-88.7671,"lo2":-86.6584,"dy":0.0162,"dx":0.0185,"nx":115,"ny":88,"refTime":"2023-05-30T18:00:00:Z","depth":0,"parameterNumber":3,"parameterNumberName":"V-component_of_WINDS"},"data":[0.0,0.0,0.0,0.0,0.0,0.0,0.0,0.0,0.0,0.0,0.0,0.0,0.0,0.0,0.0,0.0,0.0,0.0,0.0,0.0,0.0,0.0,0.0,0.0,0.0,0.0,0.0,0.0,0.0,0.0,0.0,0.0,0.0,0.0,0.0,0.0,0.0,0.0,0.0,0.0,0.0,0.0,0.0,0.0,0.0,0.0,0.0,0.0,0.0,0.0,0.0,0.0,0.0,0.0,0.0,0.0,0.0,0.0,0.0,0.0,0.0,0.0,0.0,0.0,0.0,0.0,0.0,0.0,0.0,0.0,0.0,0.0,0.0,0.0,0.0,0.0,0.0,0.0,0.0,0.0,0.0,0.0,0.0,0.0,0.0,0.0,0.0,0.0,0.0,0.0,0.0,0.0,0.0,0.0,0.0,0.0,0.0,0.0,0.0,0.0,0.0,0.0,0.0,0.0,0.0,0.0,0.0,0.0,0.0,0.0,0.0,0.0,0.0,0.0,0.0,0.0,0.0,0.0,0.0,0.0,0.0,0.0,0.0,0.0,0.0,0.0,0.0,0.0,0.0,0.0,0.0,0.0,0.0,0.0,0.0,0.0,0.0,0.0,0.0,0.0,0.0,0.0,0.0,0.0,0.0,0.0,0.0,0.0,0.0,0.0,0.0,0.0,0.0,0.0,0.0,0.0,0.0,0.0,0.0,0.0,0.0,0.0,0.0,0.0,0.0,0.0,0.0,0.0,0.0,0.0,0.0,0.0,0.0,0.0,0.0,0.0,0.0,0.0,0.0,0.0,0.0,0.0,0.0,0.0,0.0,0.0,0.0,0.0,0.0,0.0,0.0,0.0,0.0,0.0,0.0,0.0,0.0,0.0,0.0,0.0,0.0,0.0,0.0,0.0,0.0,0.0,0.0,0.0,0.0,0.0,0.0,0.0,0.0,0.0,0.0,0.0,0.0,0.0,0.0,0.0,0.0,0.0,0.0,0.0,0.0,0.0,0.0,0.0,0.0,0.0,0.0,0.0,0.0,0.0,0.0,0.0,0.0,0.0,0.0,0.0,0.0,0.0,0.0,0.0,0.0,0.0,0.0,0.0,0.0,0.0,0.0,0.0,0.0,0.0,0.0,0.0,0.0,0.0,0.0,0.0,0.0,0.0,0.0,0.0,0.0,0.0,0.0,0.0,0.0,0.0,0.0,0.0,0.0,0.0,0.0,0.0,0.0,0.0,0.0,0.0,0.0,0.0,0.0,0.0,0.0,0.0,0.0,0.0,0.0,0.0,0.0,0.0,0.0,0.0,0.0,0.0,0.0,0.0,0.0,0.0,0.0,0.0,0.0,0.0,0.0,0.0,0.0,0.0,0.0,0.0,0.0,0.0,0.0,0.0,0.0,0.0,0.0,0.0,0.0,0.0,0.0,0.0,0.0,0.0,0.0,0.0,0.0,0.0,0.0,0.0,0.0,0.0,0.0,0.0,0.0,0.0,0.0,0.0,0.0,0.0,0.0,0.0,0.0,0.0,0.0,0.0,0.0,0.0,0.0,0.0,0.0,0.0,0.0,0.0,0.0,0.0,0.0,0.0,0.0,0.0,0.0,0.0,0.0,0.0,0.0,0.0,0.0,0.0,0.0,0.0,0.0,0.0,0.0,0.0,0.0,0.0,0.0,0.0,0.0,0.0,0.0,0.0,0.0,0.0,0.0,0.0,0.0,0.0,0.0,0.0,0.0,0.0,0.0,0.0,0.0,0.0,0.0,0.0,0.0,0.0,0.0,0.0,0.0,0.0,0.0,0.0,0.0,0.0,0.0,0.0,0.0,0.0,0.0,0.0,0.0,0.0,0.0,0.0,0.0,0.0,0.0,0.0,0.0,0.0,0.0,0.0,0.0,0.0,0.0,0.0,0.0,0.0,0.0,0.0,0.0,0.0,0.0,0.0,0.0,0.0,0.0,0.0,0.0,0.0,0.0,0.0,0.0,0.0,0.0,0.0,0.0,0.0,0.0,0.0,0.0,0.0,0.0,0.0,0.0,0.0,0.0,0.0,0.0,0.0,0.0,0.0,0.0,0.0,0.0,0.0,0.0,0.0,0.0,0.0,0.0,0.0,0.0,0.0,0.0,0.0,0.0,0.0,0.0,0.0,0.0,0.0,0.0,0.0,0.0,0.0,0.0,0.0,0.0,0.0,0.0,0.0,0.0,0.0,0.0,0.0,0.0,0.0,0.0,0.0,0.0,0.0,0.0,0.0,0.0,0.0,0.0,0.0,0.0,0.0,0.0,0.0,0.0,0.0,0.0,0.0,0.0,0.0,0.0,0.0,0.0,0.0,0.0,0.0,0.0,0.0,0.0,0.0,0.0,0.0,0.0,0.0,0.0,0.0,0.0,0.0,0.0,0.0,0.0,0.0,0.0,0.0,0.0,0.0,0.0,0.0,0.0,0.0,0.0,0.0,0.0,0.0,0.0,0.0,0.0,0.0,0.0,0.0,0.0,0.0,0.0,0.0,0.0,0.0,0.0,0.0,0.0,0.0,0.0,0.0,0.0,0.0,0.0,0.0,0.0,0.0,0.0,0.0,0.0,0.0,0.0,0.0,0.0,0.0,0.0,0.0,0.0,0.0,0.0,0.0,0.0,0.0,0.0,0.0,0.0,0.0,0.0,0.0,0.0,0.0,0.0,0.0,0.0,0.0,0.0,0.0,0.0,0.0,0.0,0.0,0.0,0.0,0.0,0.0,0.0,0.0,0.0,0.0,0.0,0.0,0.0,0.0,0.0,0.0,0.0,0.0,0.0,0.0,0.0,0.0,0.0,0.0,0.0,0.0,0.0,0.0,0.0,0.0,0.0,0.0,0.0,0.0,0.0,0.0,0.0,0.0,0.0,0.0,0.0,0.0,0.0,0.0,0.0,0.0,0.0,0.0,0.0,0.0,0.0,0.0,0.0,0.0,0.0,0.0,0.0,0.0,0.0,0.0,0.0,0.0,0.0,0.0,0.0,0.0,0.0,0.0,0.0,0.0,0.0,0.0,0.0,0.0,0.0,0.0,0.0,0.0,0.0,0.0,0.0,0.0,0.0,0.0,0.0,0.0,0.0,0.0,0.0,0.0,0.0,0.0,0.0,0.0,0.0,0.0,0.0,0.0,0.0,0.0,0.0,0.0,0.0,0.0,0.0,0.0,0.0,0.0,0.0,0.0,0.0,0.0,0.0,0.0,0.0,0.0,0.0,0.0,0.0,0.0,0.0,0.0,0.0,0.0,0.0,0.0,0.0,0.0,0.0,0.0,0.0,0.0,0.0,0.0,0.0,0.0,0.0,0.0,0.0,0.0,0.0,0.0,0.0,0.0,0.0,0.0,0.0,0.0,0.0,0.0,0.0,0.0,0.0,0.0,0.0,0.0,0.0,0.0,0.0,0.0,0.0,0.0,0.0,0.0,0.0,0.0,0.0,0.0,0.0,0.0,0.0,0.0,0.0,0.0,0.0,0.0,0.0,0.0,0.0,0.0,0.0,0.0,0.0,0.0,0.0,0.0,0.0,0.0,0.0,0.0,0.0,0.0,0.0,0.0,0.0,0.0,0.0,0.0,0.0,0.0,0.0,0.0,0.0,0.0,0.0,0.0,0.0,0.0,0.0,0.0,0.0,0.0,0.0,0.0,0.0,0.0,0.0,0.0,0.0,0.0,0.0,0.0,0.0,0.0,0.0,0.0,0.0,0.0,0.0,0.0,0.0,0.0,0.0,0.0,0.0,0.0,0.0,0.0,0.0,0.0,0.0,0.0,0.0,0.0,0.0,0.0,0.0,0.0,0.0,0.0,0.0,0.0,0.0,0.0,0.0,0.0,0.0,0.0,0.0,0.0,0.0,0.0,0.0,0.0,0.0,0.0,0.0,0.0,0.0,0.0,0.0,0.0,0.0,0.0,0.0,0.0,0.0,0.0,0.0,0.0,0.0,0.0,0.0,0.0,0.0,0.0,0.0,0.0,0.0,0.0,0.0,0.0,0.0,0.0,0.0,0.0,0.0,0.0,0.0,0.0,0.0,0.0,0.0,0.0,0.0,0.0,0.0,0.0,0.0,0.0,0.0,0.0,0.0,0.0,0.0,0.0,0.0,0.0,0.0,0.0,0.0,0.0,0.0,0.0,0.0,0.0,0.0,0.0,0.0,0.0,0.0,0.0,0.0,0.0,0.0,0.0,0.0,0.0,0.0,0.0,0.0,0.0,0.0,0.0,0.0,0.0,0.0,0.0,0.0,0.0,0.0,0.0,0.0,0.0,2.8812,0.0,0.0,0.0,0.0,0.0,0.0,0.0,0.0,0.0,0.0,0.0,0.0,0.0,0.0,0.0,0.0,0.0,0.0,0.0,0.0,0.0,0.0,0.0,0.0,0.0,0.0,0.0,0.0,0.0,0.0,0.0,0.0,0.0,0.0,0.0,0.0,0.0,0.0,0.0,0.0,0.0,0.0,0.0,0.0,0.0,0.0,0.0,0.0,0.0,0.0,0.0,0.0,0.0,0.0,0.0,0.0,0.0,0.0,0.0,0.0,0.0,0.0,0.0,0.0,0.0,0.0,0.0,0.0,0.0,0.0,0.0,0.0,0.0,0.0,0.0,0.0,0.0,0.0,0.0,0.0,0.0,0.0,0.0,0.0,0.0,0.0,0.0,0.0,0.0,0.0,0.0,0.0,0.0,0.0,0.0,0.0,0.0,0.0,0.0,0.0,0.0,0.0,0.0,0.0,0.0,0.0,0.0,0.0,0.0,0.0,2.9704,2.9704,3.0497,3.0719,3.0274,0.0,0.0,0.0,0.0,0.0,0.0,0.0,0.0,0.0,0.0,0.0,0.0,0.0,0.0,0.0,0.0,0.0,0.0,0.0,0.0,0.0,0.0,0.0,0.0,0.0,0.0,0.0,0.0,0.0,0.0,0.0,0.0,0.0,0.0,0.0,0.0,0.0,0.0,0.0,0.0,0.0,0.0,0.0,0.0,0.0,0.0,0.0,0.0,0.0,0.0,0.0,0.0,0.0,0.0,0.0,0.0,0.0,0.0,0.0,0.0,0.0,0.0,0.0,0.0,0.0,0.0,0.0,0.0,0.0,0.0,0.0,0.0,0.0,0.0,0.0,0.0,0.0,0.0,0.0,0.0,0.0,0.0,0.0,0.0,0.0,0.0,0.0,0.0,0.0,0.0,0.0,0.0,0.0,0.0,0.0,0.0,0.0,0.0,0.0,0.0,0.0,0.0,0.0,0.0,0.0,0.0,0.0,0.0,0.0,0.0,0.0,0.0,3.247,3.2792,3.1986,0.0,0.0,0.0,0.0,0.0,0.0,0.0,0.0,0.0,0.0,0.0,0.0,0.0,0.0,0.0,0.0,0.0,0.0,0.0,0.0,0.0,0.0,0.0,0.0,0.0,0.0,0.0,0.0,0.0,0.0,0.0,0.0,0.0,0.0,0.0,0.0,0.0,0.0,0.0,0.0,0.0,0.0,0.0,0.0,0.0,0.0,0.0,0.0,0.0,0.0,0.0,0.0,0.0,0.0,0.0,0.0,0.0,0.0,0.0,0.0,0.0,0.0,0.0,0.0,0.0,0.0,0.0,0.0,0.0,0.0,0.0,0.0,0.0,0.0,0.0,0.0,0.0,0.0,0.0,0.0,0.0,0.0,0.0,0.0,0.0,0.0,0.0,0.0,0.0,0.0,0.0,0.0,0.0,0.0,0.0,0.0,0.0,0.0,0.0,0.0,0.0,0.0,0.0,0.0,0.0,0.0,0.0,0.0,0.0,0.0,3.3909,3.3974,3.4559,0.0,3.3958,0.0,0.0,0.0,0.0,0.0,0.0,0.0,0.0,0.0,0.0,0.0,0.0,0.0,0.0,0.0,0.0,0.0,0.0,0.0,0.0,0.0,0.0,0.0,0.0,0.0,0.0,0.0,0.0,0.0,0.0,0.0,0.0,0.0,0.0,0.0,0.0,0.0,0.0,0.0,0.0,0.0,0.0,0.0,0.0,0.0,0.0,0.0,0.0,0.0,0.0,0.0,0.0,0.0,0.0,0.0,0.0,0.0,0.0,0.0,0.0,0.0,0.0,0.0,0.0,0.0,0.0,0.0,0.0,0.0,0.0,0.0,0.0,0.0,0.0,0.0,0.0,0.0,0.0,0.0,0.0,0.0,0.0,0.0,0.0,0.0,0.0,0.0,0.0,0.0,0.0,0.0,0.0,0.0,0.0,0.0,0.0,0.0,0.0,0.0,0.0,0.0,0.0,0.0,0.0,0.0,0.0,0.0,0.0,0.0,0.0,3.5197,3.5423,3.6022,3.6141,0.0,0.0,0.0,0.0,0.0,0.0,0.0,0.0,0.0,0.0,0.0,0.0,0.0,0.0,0.0,0.0,0.0,0.0,0.0,0.0,0.0,0.0,0.0,0.0,0.0,0.0,0.0,0.0,0.0,0.0,0.0,0.0,0.0,0.0,0.0,0.0,0.0,0.0,0.0,0.0,0.0,0.0,0.0,0.0,0.0,0.0,0.0,0.0,0.0,0.0,0.0,0.0,0.0,0.0,0.0,0.0,0.0,0.0,0.0,0.0,0.0,0.0,0.0,0.0,0.0,0.0,0.0,0.0,0.0,0.0,0.0,0.0,0.0,0.0,0.0,0.0,0.0,0.0,0.0,0.0,0.0,0.0,0.0,0.0,0.0,0.0,0.0,0.0,0.0,0.0,0.0,0.0,0.0,0.0,0.0,0.0,0.0,0.0,0.0,0.0,0.0,0.0,0.0,0.0,0.0,0.0,0.0,0.0,0.0,0.0,3.6342,3.6699,3.7007,3.7461,3.7506,3.7131,0.0,0.0,0.0,0.0,0.0,0.0,0.0,0.0,0.0,0.0,0.0,0.0,0.0,0.0,0.0,0.0,0.0,0.0,0.0,0.0,0.0,0.0,0.0,0.0,0.0,0.0,0.0,0.0,0.0,0.0,0.0,0.0,0.0,0.0,0.0,0.0,0.0,0.0,0.0,0.0,0.0,0.0,0.0,0.0,0.0,0.0,0.0,0.0,0.0,0.0,0.0,0.0,0.0,0.0,0.0,0.0,0.0,0.0,0.0,0.0,0.0,0.0,0.0,0.0,0.0,0.0,0.0,0.0,0.0,0.0,0.0,0.0,0.0,0.0,0.0,0.0,0.0,0.0,0.0,0.0,0.0,0.0,0.0,0.0,0.0,0.0,0.0,0.0,0.0,0.0,0.0,0.0,0.0,0.0,0.0,0.0,0.0,0.0,0.0,0.0,0.0,0.0,0.0,0.0,0.0,0.0,0.0,0.0,3.7084,3.8175,3.8858,3.8809,3.8907,3.8748,0.0,0.0,0.0,0.0,0.0,0.0,0.0,0.0,0.0,0.0,0.0,0.0,0.0,0.0,0.0,0.0,0.0,0.0,0.0,0.0,0.0,0.0,0.0,0.0,0.0,0.0,0.0,0.0,0.0,0.0,0.0,0.0,0.0,0.0,0.0,0.0,0.0,0.0,0.0,0.0,0.0,0.0,0.0,0.0,0.0,0.0,0.0,0.0,0.0,0.0,0.0,0.0,0.0,0.0,0.0,0.0,0.0,0.0,0.0,0.0,0.0,0.0,0.0,0.0,0.0,0.0,0.0,0.0,0.0,0.0,0.0,0.0,0.0,0.0,0.0,0.0,0.0,0.0,0.0,0.0,0.0,0.0,0.0,0.0,0.0,0.0,0.0,0.0,0.0,0.0,0.0,0.0,0.0,0.0,0.0,0.0,0.0,0.0,0.0,0.0,0.0,0.0,0.0,0.0,0.0,0.0,0.0,0.0,0.0,3.813,3.741,3.6547,3.5592,3.6477,3.6984,0.0,0.0,0.0,0.0,0.0,0.0,0.0,0.0,0.0,0.0,0.0,0.0,0.0,0.0,0.0,0.0,0.0,0.0,0.0,0.0,0.0,0.0,0.0,0.0,0.0,0.0,0.0,0.0,0.0,0.0,0.0,0.0,0.0,0.0,0.0,0.0,0.0,0.0,0.0,0.0,0.0,0.0,0.0,0.0,0.0,0.0,0.0,0.0,0.0,0.0,0.0,0.0,0.0,0.0,0.0,0.0,0.0,0.0,0.0,0.0,0.0,0.0,0.0,0.0,0.0,0.0,0.0,0.0,0.0,0.0,0.0,0.0,0.0,0.0,0.0,0.0,0.0,0.0,0.0,0.0,0.0,0.0,0.0,0.0,0.0,0.0,0.0,0.0,0.0,0.0,0.0,0.0,0.0,0.0,0.0,0.0,0.0,0.0,0.0,0.0,0.0,0.0,0.0,0.0,0.0,0.0,0.0,0.0,0.0,3.6131,0.0,3.3197,3.2404,3.3202,3.3978,0.0,0.0,0.0,0.0,0.0,0.0,0.0,0.0,0.0,0.0,0.0,0.0,0.0,0.0,0.0,0.0,0.0,0.0,0.0,0.0,0.0,0.0,0.0,0.0,0.0,0.0,0.0,0.0,0.0,0.0,0.0,0.0,0.0,0.0,0.0,0.0,0.0,0.0,0.0,0.0,0.0,0.0,0.0,0.0,0.0,0.0,0.0,0.0,0.0,0.0,0.0,0.0,0.0,0.0,0.0,0.0,0.0,0.0,0.0,0.0,0.0,0.0,0.0,0.0,0.0,0.0,0.0,0.0,0.0,0.0,0.0,0.0,0.0,0.0,0.0,0.0,0.0,0.0,0.0,0.0,0.0,0.0,0.0,0.0,0.0,0.0,0.0,0.0,0.0,0.0,0.0,0.0,0.0,0.0,0.0,0.0,0.0,0.0,0.0,0.0,0.0,0.0,0.0,0.0,0.0,0.0,0.0,0.0,3.3696,3.0684,2.9467,2.9079,2.9747,2.9265,2.9887,0.0,0.0,0.0,0.0,0.0,0.0,0.0,0.0,0.0,0.0,0.0,0.0,0.0,0.0,0.0,0.0,0.0,0.0,0.0,0.0,0.0,0.0,0.0,0.0,0.0,0.0,0.0,0.0,0.0,0.0,0.0,0.0,0.0,0.0,0.0,0.0,0.0,0.0,0.0,0.0,0.0,0.0,0.0,0.0,0.0,0.0,0.0,0.0,0.0,0.0,0.0,0.0,0.0,0.0,0.0,0.0,0.0,0.0,0.0,0.0,0.0,0.0,0.0,0.0,0.0,0.0,0.0,0.0,0.0,0.0,0.0,0.0,0.0,0.0,0.0,0.0,0.0,0.0,0.0,0.0,0.0,0.0,0.0,0.0,0.0,0.0,0.0,0.0,0.0,0.0,0.0,0.0,0.0,0.0,0.0,0.0,0.0,0.0,0.0,0.0,0.0,0.0,0.0,0.0,0.0,0.0,0.0,0.0,0.0,2.6183,2.5113,2.4124,2.3382,2.4171,2.5354,0.0,0.0,0.0,0.0,0.0,0.0,0.0,0.0,0.0,0.0,0.0,0.0,0.0,0.0,0.0,0.0,0.0,0.0,0.0,0.0,0.0,0.0,0.0,0.0,0.0,0.0,0.0,0.0,0.0,0.0,0.0,0.0,0.0,0.0,0.0,0.0,0.0,0.0,0.0,0.0,0.0,0.0,0.0,0.0,0.0,0.0,0.0,0.0,0.0,0.0,0.0,0.0,0.0,0.0,0.0,0.0,0.0,0.0,0.0,0.0,0.0,0.0,0.0,0.0,0.0,0.0,0.0,0.0,0.0,0.0,0.0,0.0,0.0,0.0,0.0,0.0,0.0,0.0,0.0,0.0,0.0,0.0,0.0,0.0,0.0,0.0,0.0,0.0,0.0,0.0,0.0,0.0,0.0,0.0,0.0,0.0,0.0,0.0,0.0,0.0,0.0,0.0,0.0,0.0,0.0,0.0,0.0,0.0,0.0,1.9701,1.908,1.843,1.7883,1.8439,1.9762,2.1898,0.0,0.0,0.0,0.0,0.0,0.0,0.0,0.0,0.0,0.0,0.0,0.0,0.0,0.0,0.0,0.0,0.0,0.0,0.0,0.0,0.0,0.0,0.0,0.0,0.0,0.0,0.0,0.0,0.0,0.0,0.0,0.0,0.0,0.0,0.0,0.0,0.0,0.0,0.0,0.0,0.0,0.0,0.0,0.0,0.0,0.0,0.0,0.0,0.0,0.0,0.0,0.0,0.0,0.0,0.0,0.0,0.0,0.0,0.0,0.0,0.0,0.0,0.0,0.0,0.0,0.0,0.0,0.0,0.0,0.0,0.0,0.0,0.0,0.0,0.0,0.0,0.0,0.0,0.0,0.0,0.0,0.0,0.0,0.0,0.0,0.0,0.0,0.0,0.0,0.0,0.0,0.0,0.0,0.0,0.0,0.0,0.0,0.0,0.0,0.0,0.0,0.0,0.0,0.0,0.0,0.0,0.0,0.0,1.2053,1.1889,1.2428,1.3526,1.2686,1.3612,0.0,0.0,0.0,0.0,0.0,0.0,0.0,0.0,0.0,0.0,0.0,0.0,0.0,0.0,0.0,0.0,0.0,0.0,0.0,0.0,0.0,0.0,0.0,0.0,0.0,0.0,0.0,0.0,0.0,0.0,0.0,0.0,0.0,0.0,0.0,0.0,0.0,0.0,0.0,0.0,0.0,0.0,0.0,0.0,0.0,0.0,0.0,0.0,0.0,0.0,0.0,0.0,0.0,0.0,0.0,0.0,0.0,0.0,0.0,0.0,0.0,0.0,0.0,0.0,0.0,0.0,0.0,0.0,0.0,0.0,0.0,0.0,0.0,0.0,0.0,0.0,0.0,0.0,0.0,0.0,0.0,0.0,0.0,0.0,0.0,0.0,0.0,0.0,0.0,0.0,0.0,0.0,0.0,0.0,0.0,0.0,0.0,0.0,0.0,0.0,0.0,0.0,0.0,0.0,0.0,0.0,0.0,0.0,0.0,0.9623,0.8028,0.8562,1.1235,1.1177,1.1747,0.0,0.0,0.0,0.0,0.0,0.0,0.0,0.0,0.0,0.0,0.0,0.0,0.0,0.0,0.0,0.0,0.0,0.0,0.0,0.0,0.0,0.0,0.0,0.0,0.0,0.0,0.0,0.0,0.0,0.0,0.0,0.0,0.0,0.0,0.0,0.0,0.0,0.0,0.0,0.0,0.0,0.0,0.0,0.0,0.0,0.0,0.0,0.0,0.0,0.0,0.0,0.0,0.0,0.0,0.0,0.0,0.0,0.0,0.0,0.0,0.0,0.0,0.0,0.0,0.0,0.0,0.0,0.0,0.0,0.0,0.0,0.0,0.0,0.0,0.0,0.0,0.0,0.0,0.0,0.0,0.0,0.0,0.0,0.0,0.0,0.0,0.0,0.0,0.0,0.0,0.0,0.0,0.0,0.0,0.0,0.0,0.0,0.0,0.0,0.0,0.0,0.0,0.0,0.0,0.0,0.0,0.0,0.0,0.8269,0.6611,0.5331,0.5609,0.7614,0.7618,0.8119,0.0,0.0,0.0,0.0,0.0,0.0,0.0,0.0,0.0,0.0,0.0,0.0,0.0,0.0,0.0,0.0,0.0,0.0,0.0,0.0,0.0,0.0,0.0,0.0,0.0,0.0,0.0,0.0,0.0,0.0,0.0,0.0,0.0,0.0,0.0,0.0,0.0,0.0,0.0,0.0,0.0,0.0,0.0,0.0,0.0,0.0,0.0,0.0,0.0,0.0,0.0,0.0,0.0,0.0,0.0,0.0,0.0,0.0,0.0,0.0,0.0,0.0,0.0,0.0,0.0,0.0,0.0,0.0,0.0,0.0,0.0,0.0,0.0,0.0,0.0,0.0,0.0,0.0,0.0,0.0,0.0,0.0,0.0,0.0,0.0,0.0,0.0,0.0,0.0,0.0,0.0,0.0,0.0,0.0,0.0,0.0,0.0,0.0,0.0,0.0,0.0,0.0,0.0,0.0,0.0,0.0,0.0,0.0,0.5764,0.3481,0.3392,0.3393,0.3215,0.3482,0.4096,0.0,0.0,0.0,0.0,0.0,0.0,0.0,0.0,0.0,0.0,0.0,0.0,0.0,0.0,0.0,0.0,0.0,0.0,0.0,0.0,0.0,0.0,0.0,0.0,0.0,0.0,0.0,0.0,0.0,0.0,0.0,0.0,0.0,0.0,0.0,0.0,0.0,0.0,0.0,0.0,0.0,0.0,0.0,0.0,0.0,0.0,0.0,0.0,0.0,0.0,0.0,0.0,0.0,0.0,0.0,0.0,0.0,0.0,0.0,0.0,0.0,0.0,0.0,0.0,0.0,0.0,0.0,0.0,0.0,0.0,0.0,0.0,0.0,0.0,0.0,0.0,0.0,0.0,0.0,0.0,0.0,0.0,0.0,0.0,0.0,0.0,0.0,0.0,0.0,0.0,0.0,0.0,0.0,0.0,0.0,0.0,0.0,0.0,0.0,0.0,0.0,0.0,0.0,0.0,0.0,0.0,0.0,0.0,0.4636,0.2235,0.2147,0.17,0.0808,0.2592,0.3657,0.0,0.0,0.0,0.0,0.0,0.0,0.0,0.0,0.0,0.0,0.0,0.0,0.0,0.0,0.0,0.0,0.0,0.0,0.0,0.0,0.0,0.0,0.0,0.0,0.0,0.0,0.0,0.0,0.0,0.0,0.0,0.0,0.0,0.0,0.0,0.0,0.0,0.0,0.0,0.0,0.0,0.0,0.0,0.0,0.0,0.0,0.0,0.0,3.565,0.0,0.0,0.0,0.0,0.0,0.0,0.0,0.0,0.0,0.0,0.0,0.0,0.0,0.0,0.0,0.0,0.0,0.0,0.0,0.0,0.0,0.0,0.0,0.0,0.0,0.0,0.0,0.0,0.0,0.0,0.0,0.0,0.0,0.0,0.0,0.0,0.0,0.0,0.0,0.0,0.0,0.0,0.0,0.0,0.0,0.0,0.0,0.0,0.0,0.0,0.0,0.0,0.0,0.0,0.0,0.0,0.0,0.0,0.0,0.3398,0.1076,0.0986,0.0628,0.009,0.1254,0.1879,0.0,0.0,0.0,0.0,0.0,0.0,0.0,0.0,0.0,0.0,0.0,0.0,0.0,0.0,0.0,0.0,0.0,0.0,0.0,0.0,0.0,0.0,0.0,0.0,0.0,0.0,0.0,0.0,0.0,0.0,0.0,0.0,0.0,0.0,0.0,0.0,0.0,0.0,0.0,0.0,0.0,0.0,0.0,0.0,0.0,0.0,0.0,0.0,0.0,0.0,0.0,0.0,0.0,0.0,0.0,0.0,0.0,0.0,0.0,0.0,0.0,0.0,0.0,0.0,0.0,0.0,0.0,0.0,0.0,0.0,0.0,0.0,0.0,0.0,0.0,0.0,0.0,0.0,0.0,0.0,0.0,0.0,0.0,0.0,0.0,0.0,0.0,0.0,0.0,0.0,0.0,0.0,0.0,0.0,0.0,0.0,0.0,0.0,0.0,0.0,0.0,0.0,0.0,0.0,0.0,0.0,0.0,0.3307,0.2238,0.0,0.0,0.0,0.0,0.0,-0.009,-0.0269,0.0,0.0,0.0,0.0,0.0,0.0,0.0,0.0,0.0,0.0,0.0,0.0,0.0,0.0,0.0,0.0,0.0,0.0,0.0,0.0,0.0,0.0,0.0,0.0,0.0,0.0,0.0,0.0,0.0,0.0,0.0,0.0,0.0,0.0,0.0,0.0,0.0,0.0,3.3806,3.1287,0.0,0.0,0.0,0.0,0.0,0.0,0.0,0.0,2.5539,0.0,0.0,0.0,0.0,0.0,0.0,0.0,0.0,0.0,0.0,0.0,0.0,0.0,0.0,0.0,0.0,0.0,0.0,0.0,0.0,0.0,0.0,0.0,0.0,0.0,0.0,0.0,0.0,0.0,0.0,0.0,0.0,0.0,0.0,0.0,0.0,0.0,0.0,0.0,0.0,0.0,0.0,0.0,0.0,0.0,0.0,0.0,0.0,0.0,0.0,0.0,0.0,0.0,0.0,0.0,0.0,0.2138,0.2055,0.1433,0.0,0.0,0.0,0.0,0.0,-0.0449,-0.1344,0.0,0.0,0.0,0.0,0.0,0.0,0.0,0.0,0.0,0.0,0.0,0.0,0.0,0.0,0.0,0.0,0.0,0.0,0.0,0.0,0.0,0.0,0.0,0.0,0.0,0.0,0.0,0.0,0.0,0.0,0.0,0.0,0.0,0.0,0.0,0.0,0.0,0.0,0.0,2.6109,2.5038,0.0,0.0,0.0,0.0,0.0,0.0,0.0,0.0,1.8585,0.0,0.0,0.0,0.0,0.0,0.0,0.0,0.0,0.0,0.0,0.0,0.0,0.0,0.0,0.0,0.0,0.0,0.0,0.0,0.0,0.0,0.0,0.0,0.0,0.0,0.0,0.0,0.0,0.0,0.0,0.0,0.0,0.0,0.0,0.0,0.0,0.0,0.0,0.0,0.0,0.0,0.0,0.0,0.0,0.0,0.0,0.0,0.0,0.0,0.0,0.0,0.0,0.0,0.0,0.0,0.1968,0.1791,0.1255,0.0,0.0,0.0,0.0,-0.0628,-0.1255,0.0,0.0,0.0,0.0,0.0,0.0,0.0,0.0,0.0,0.0,0.0,0.0,0.0,0.0,0.0,0.0,0.0,0.0,0.0,0.0,0.0,0.0,0.0,0.0,0.0,0.0,0.0,0.0,0.0,0.0,0.0,0.0,0.0,0.0,0.0,0.0,0.0,0.0,0.0,0.0,2.0104,1.8587,1.8471,0.0,0.0,0.0,0.0,0.0,0.0,0.9992,1.0467,0.0,0.0,0.0,0.0,0.0,0.0,0.0,0.0,0.0,0.0,0.0,0.0,0.0,0.0,0.0,0.0,0.0,0.0,0.0,0.0,0.0,0.0,0.0,0.0,0.0,0.0,0.0,0.0,0.0,0.0,0.0,0.0,0.0,0.0,0.0,0.0,0.0,0.0,0.0,0.0,0.0,0.0,0.0,0.0,0.0,0.0,0.0,0.0,0.0,0.0,0.0,0.0,0.0,0.0,0.0,0.1514,0.1698,0.1254,0.0,0.0,0.0,0.0,-0.1165,-0.1879,0.0,0.0,0.0,0.0,0.0,0.0,0.0,0.0,0.0,0.0,0.0,0.0,0.0,0.0,0.0,0.0,0.0,0.0,0.0,0.0,0.0,0.0,0.0,0.0,0.0,0.0,0.0,0.0,0.0,0.0,0.0,0.0,0.0,0.0,0.0,0.0,0.0,0.0,0.0,0.0,0.0,1.2302,1.2176,1.1892,0.0,0.0,0.0,0.0,0.4161,0.2783,0.0,0.0,0.0,0.0,0.0,0.0,0.0,0.0,0.0,0.0,0.0,0.0,0.0,0.0,0.0,0.0,0.0,0.0,0.0,0.0,0.0,0.0,0.0,0.0,0.0,0.0,0.0,0.0,0.0,0.0,0.0,0.0,0.0,0.0,0.0,0.0,0.0,0.0,0.0,0.0,0.0,0.0,0.0,0.0,0.0,0.0,0.0,0.0,0.0,0.0,0.0,0.0,0.0,0.0,0.0,0.0,0.0432,0.1238,0.1165,0.0,0.0,0.0,0.0,-0.1165,-0.2325,0.0,0.0,0.0,0.0,0.0,0.0,0.0,0.0,0.0,0.0,0.0,0.0,0.0,0.0,0.0,0.0,0.0,0.0,0.0,0.0,0.0,0.0,0.0,0.0,0.0,0.0,0.0,0.0,0.0,0.0,0.0,0.0,0.0,0.0,0.0,0.0,0.0,0.0,0.0,0.0,0.0,0.7824,0.7744,0.6016,0.428,0.0,0.0,0.0612,-0.0795,-0.204,0.0,0.0,0.0,0.0,0.0,0.0,0.0,0.0,0.0,0.0,0.0,0.0,0.0,0.0,0.0,0.0,0.0,0.0,0.0,0.0,0.0,0.0,0.0,0.0,0.0,0.0,0.0,0.0,0.0,0.0,0.0,0.0,0.0,0.0,0.0,0.0,0.0,0.0,0.0,0.0,0.0,0.0,0.0,0.0,0.0,0.0,0.0,0.0,0.0,0.0,0.0,0.0,0.0,0.0,0.0,0.3321,0.0172,0.1236,0.1165,0.0,0.0,0.0,0.0,-0.1165,-0.2324,0.0,0.0,0.0,0.0,0.0,0.0,0.0,0.0,0.0,0.0,0.0,0.0,0.0,0.0,0.0,0.0,0.0,0.0,0.0,0.0,0.0,0.0,0.0,0.0,0.0,0.0,0.0,0.0,0.0,0.0,0.0,0.0,0.0,0.0,0.0,0.0,0.0,0.0,0.0,0.0,0.0,0.0,0.2331,0.1816,0.0,0.0,0.0,-0.3637,-0.546,0.0,0.0,0.0,0.0,0.0,0.0,0.0,0.0,0.0,0.0,0.0,0.0,0.0,0.0,0.0,0.0,0.0,0.0,0.0,0.0,0.0,0.0,0.0,0.0,0.0,0.0,0.0,0.0,0.0,0.0,0.0,0.0,0.0,0.0,0.0,0.0,0.0,0.0,0.0,0.0,0.0,0.0,0.0,0.0,0.0,0.0,0.0,0.0,0.0,0.0,0.0,0.0,0.0,0.0,0.0,0.0,0.0,0.0085,0.1486,0.1507,0.0,0.0,0.0,0.0,-0.1161,0.0,0.0,0.0,0.0,0.0,0.0,0.0,0.0,0.0,0.0,0.0,0.0,0.0,0.0,0.0,0.0,0.0,0.0,0.0,0.0,0.0,0.0,0.0,0.0,0.0,0.0,0.0,-0.4099,0.0,0.0,0.0,0.0,0.0,0.0,0.0,0.0,0.0,0.0,0.0,0.0,0.0,0.0,0.0597,-0.1706,-0.1448,-0.2141,0.0,0.0,-0.6557,-0.8329,-0.9658,-1.0093,0.0,0.0,0.0,0.0,0.0,0.0,0.0,0.0,0.0,0.0,0.0,0.0,0.0,0.0,0.0,0.0,0.0,0.0,0.0,0.0,0.0,0.0,0.0,0.0,0.0,0.0,0.0,0.0,0.0,0.0,0.0,0.0,0.0,0.0,0.0,0.0,0.0,0.0,0.0,0.0,0.0,0.0,0.0,0.0,0.0,0.0,0.0,0.0,0.0,0.0,0.0,0.0,0.0,0.0,0.4394,0.0245,0.2296,0.2324,0.0,0.0,0.0,0.0,-0.1153,-0.2324,0.0,0.0,0.0,0.0,0.0,0.0,0.0,0.0,0.0,0.0,0.0,0.0,0.0,0.0,0.0,0.0,0.0,0.0,0.0,0.0,0.0,0.0,0.0,0.0,0.0,0.0,0.0,0.0,0.0,0.0,0.0,0.0,0.0,0.0,0.0,0.0,0.0,0.0,0.0,0.0,0.0,-0.0502,-0.2665,-0.3847,-0.5035,0.0,-0.7368,-0.8098,-0.8197,-0.9101,-0.975,-0.9663,0.0,0.0,0.0,0.0,0.0,0.0,0.0,0.0,0.0,0.0,0.0,0.0,0.0,0.0,0.0,0.0,0.0,0.0,0.0,0.0,0.0,0.0,0.0,0.0,0.0,0.0,0.0,0.0,0.0,0.0,0.0,0.0,0.0,0.0,0.0,0.0,0.0,0.0,0.0,0.0,0.0,0.0,0.0,0.0,0.0,0.0,0.0,0.0,0.0,0.0,0.0,0.0,0.0,0.3759,0.0081,0.2342,0.2369,0.0,0.0,0.0,0.0,-0.0435,-0.123,0.0,0.0,0.0,0.0,0.0,0.0,0.0,0.0,0.0,0.0,0.0,0.0,0.0,0.0,0.0,0.0,0.0,0.0,0.0,0.0,0.0,0.0,0.0,0.0,0.0,0.0,0.0,0.0,-0.6621,-0.6245,-0.6074,0.0,0.0,0.0,0.0,0.0,0.0,0.0,0.0,0.0,0.0,-0.3516,-0.4984,-0.6124,0.0,0.0,-0.9431,-1.0359,-1.1146,-1.1582,-1.1822,-1.1822,-1.2428,0.0,0.0,0.0,0.0,0.0,0.0,0.0,0.0,0.0,0.0,0.0,0.0,0.0,0.0,0.0,0.0,0.0,0.0,0.0,0.0,0.0,0.0,0.0,0.0,0.0,0.0,0.0,0.0,0.0,0.0,0.0,0.0,0.0,0.0,0.0,0.0,0.0,0.0,0.0,0.0,0.0,0.0,0.0,0.0,0.0,0.0,0.0,0.0,0.0,0.0,0.0,0.0,0.363,0.0081,0.2216,0.2316,0.0,0.0,0.0,0.0,0.0,-0.0602,0.0,0.0,0.0,0.0,0.0,0.0,0.0,0.0,0.0,0.0,0.0,0.0,0.0,0.0,0.0,0.0,0.0,0.0,0.0,0.0,0.0,0.0,0.0,0.0,0.0,0.0,0.0,0.0,-0.7372,-0.717,-0.6976,0.0,0.0,0.0,0.0,0.0,0.0,0.0,0.0,0.0,0.0,-0.6143,-0.7186,-0.7964,-0.8719,-0.9567,-1.0478,-1.152,-1.2725,-1.3151,-1.3474,-1.3767,0.0,0.0,0.0,0.0,0.0,0.0,0.0,0.0,0.0,0.0,0.0,0.0,0.0,0.0,0.0,0.0,0.0,0.0,0.0,0.0,0.0,0.0,0.0,0.0,0.0,0.0,0.0,0.0,0.0,0.0,0.357,0.0,0.0,0.0,0.0,0.0,0.0,0.0,0.0,0.0,0.0,0.0,0.0,0.0,0.0,0.0,0.0,0.0,0.0,0.0,0.0,0.0,0.0,0.4316,0.0157,0.2244,0.2246,0.0,0.0,0.0,0.0,0.0,-0.0589,-0.1763,0.0,0.0,0.0,0.0,0.0,0.0,0.0,0.0,0.0,0.0,0.0,0.0,0.0,0.0,0.0,0.0,0.0,0.0,0.0,0.0,0.0,0.0,0.0,0.0,0.0,0.0,-0.8272,-0.8284,-0.8093,0.0,0.0,0.0,0.0,0.0,0.0,0.0,0.0,0.0,0.0,-0.6965,-0.804,-0.9069,-0.9231,-0.9316,-0.9322,-1.0207,-1.1168,-1.2124,-1.3025,-1.4042,0.0,0.0,0.0,0.0,0.0,0.0,0.0,0.0,0.0,0.0,0.0,0.0,0.0,0.0,0.0,0.0,0.0,0.0,0.0,0.0,0.0,0.0,0.0,0.0,0.0,0.0,0.0,0.1885,0.2326,0.0,0.0,0.0,0.0,0.0,0.0,0.0,0.0,0.0,0.0,0.0,0.7139,0.7139,0.0,0.0,0.0,0.0,0.0,0.0,0.0,0.0,0.0,0.0,0.0,0.0,0.4249,0.219,0.2756,0.2522,0.1099,0.0396,0.0,0.0,0.0,-0.058,-0.1761,0.0,0.0,0.0,0.0,0.0,0.0,0.0,0.0,0.0,0.0,0.0,0.0,0.0,0.0,0.0,0.0,0.0,0.0,0.0,0.0,0.0,0.0,0.0,0.0,0.0,-0.809,0.0,0.0,0.0,0.0,0.0,0.0,0.0,0.0,0.0,0.0,0.0,-0.7816,-0.821,-0.859,-0.8903,-0.9296,-0.9895,-1.0265,0.0,0.0,0.0,0.0,0.0,0.0,0.0,0.0,0.0,0.0,0.0,0.0,0.0,0.0,-1.8998,-1.995,-1.896,-1.8912,-2.1842,0.0,0.0,0.0,0.0,0.0,0.0,0.0,0.0,0.0,0.0,0.0,0.0,0.0,0.0,0.1612,0.0,0.1792,0.0,0.0,0.0,0.0,0.0,0.0,0.0,0.0,0.5971,0.6413,0.7139,0.7139,0.7139,0.0,0.7139,0.7139,0.0,0.0,0.0,0.0,0.0,0.0,0.0,0.0,0.453,0.3202,0.3124,0.2578,0.1568,0.0549,0.0,0.0,0.0,-0.0406,-0.1161,-0.1613,-0.2661,0.0,0.0,0.0,0.0,0.0,0.0,0.0,0.0,0.0,0.0,0.0,0.0,0.0,0.0,0.0,0.0,0.0,0.0,0.0,0.0,0.0,0.0,0.0,-0.8855,0.0,0.0,0.0,0.0,0.0,0.0,0.0,0.0,0.0,-0.9296,-0.9593,-0.982,-0.982,-1.0121,-1.0351,-1.0351,0.0,0.0,0.0,0.0,0.0,0.0,0.0,-1.4807,-1.5163,-1.5728,-1.6567,-1.7794,-1.9651,-2.1581,-2.3157,0.0,0.0,-2.6916,-2.7971,-2.9567,-3.2118,-3.2045,-3.1979,-3.3239,-3.2714,-3.243,0.0,0.0,0.0,0.0,0.0,0.0,0.0,0.0,0.0089,0.0803,0.0,0.1785,0.0,0.0,0.0,0.0,0.0,0.4732,0.0,0.0,0.6962,0.7051,0.7139,0.7139,0.7139,0.7139,0.7139,0.7139,0.7139,0.7139,0.0,0.0,0.0,0.0,0.0,0.0,0.5318,0.3357,0.3124,0.2657,0.1646,0.0549,0.0,0.0,0.0,0.0,0.0,-0.1115,-0.2246,-0.334,-0.4419,0.0,0.0,0.0,0.0,0.0,0.0,0.0,0.0,0.0,0.0,0.0,0.0,0.0,0.0,0.0,0.0,0.0,0.0,0.0,0.0,-0.9062,0.0,0.0,0.0,0.0,0.0,0.0,0.0,0.0,0.0,0.0,-0.9669,-1.0265,-1.0864,-1.0858,0.0,0.0,0.0,0.0,-1.2305,-1.2372,-1.3171,-1.4099,-1.5021,-1.593,-1.6853,-1.7725,0.0,0.0,-2.0257,-2.1302,-2.2433,-2.3989,-2.4921,-2.5869,-2.7193,-2.8951,-3.0671,-3.183,-3.2202,-3.3236,-3.5294,-3.521,-3.5569,0.0,0.0,0.0,0.0,0.0,0.0,0.0539,0.1255,0.1255,0.1433,0.1789,0.1784,0.0,0.0,0.0,0.0,0.0,0.0,0.4732,0.5891,0.5899,0.6343,0.7139,0.7139,0.7139,0.7139,0.7139,0.7139,0.7139,0.7139,0.7044,0.6865,0.0,0.0,0.0,0.0,0.612,0.5321,0.3904,0.2968,0.2656,0.094,0.0,0.0,0.0,0.0,0.0,-0.0315,-0.1351,-0.3265,-0.3607,0.0,0.0,0.0,0.0,0.0,0.0,0.0,0.0,0.0,0.0,0.0,0.0,0.0,0.0,0.0,0.0,0.0,0.0,0.0,-0.928,-0.9325,-0.9661,0.0,0.0,0.0,0.0,0.0,0.0,0.0,0.0,0.0,-1.2412,-1.2057,-1.2137,0.0,0.0,-1.2519,-1.3171,-1.331,-1.331,-1.3317,0.0,0.0,0.0,-1.6,-1.6706,-1.6991,-1.8094,-1.9299,-2.0398,-2.1302,-2.2421,-2.3989,-2.4908,-2.5674,-2.6673,-2.8021,-2.9295,-3.0087,-3.0985,-3.2152,-3.3598,-3.4445,-3.5313,0.0449,0.0,0.0,0.0,0.0,0.0,0.0449,0.1076,0.1078,0.1346,0.1789,0.1786,0.143,0.0718,0.0986,0.0,0.0,0.0,0.3571,0.4643,0.4727,0.5262,0.6337,0.6419,0.6684,0.7139,0.7139,0.7139,0.7139,0.7139,0.7011,0.701,0.0,0.0,0.6474,0.601,0.5949,0.6187,0.3752,0.2657,0.3046,0.1097,0.0,0.0,0.0,0.0,0.0,0.0,-0.1026,-0.3109,-0.3215,-0.4256,0.0,0.0,0.0,0.0,0.0,0.0,0.0,0.0,0.0,0.0,0.0,-0.6875,-0.6959,0.0,0.0,0.0,-0.7772,-0.8905,-1.006,-0.9601,0.0,0.0,0.0,0.0,0.0,0.0,0.0,-1.2305,-1.2305,-1.2519,-1.3091,-1.2666,-1.2666,-1.36,-1.2879,-1.2519,-1.3098,0.0,-1.3673,-1.3673,-1.4871,-1.572,-1.5799,-1.6576,-1.7148,-1.7139,-1.8613,-1.9944,-2.0526,-2.1553,-2.2798,-2.4047,-2.4894,-2.5618,-2.6336,-2.7429,-2.8415,-2.9225,-3.0233,-3.1349,-3.2591,-3.3424,-3.4222,0.1255,0.0,0.0,0.0,0.0,0.0,0.0,0.0,0.0,0.0628,0.1612,0.1609,0.1698,0.17,0.0628,0.0,0.1969,0.1969,0.2592,0.357,0.3641,0.4178,0.5267,0.5341,0.5963,0.6962,0.7051,0.7139,0.7139,0.7139,0.7048,0.7027,0.6841,0.6627,0.6488,0.5393,0.5323,0.6103,0.3207,0.2113,0.2812,0.1019,0.0,0.0,0.0,0.0,0.0,0.0,-0.094,-0.289,-0.3034,-0.4044,-0.6103,0.0,0.0,0.0,0.0,0.0,0.0,0.0,0.0,0.0,0.0,0.0,0.0,0.0,0.0,-0.6764,-0.7576,0.0,-1.0657,-0.9965,0.0,0.0,0.0,-1.131,-1.2224,-1.2305,-1.2305,-1.2305,0.0,0.0,-1.2372,-1.2372,-1.2666,-1.3593,-1.2872,-1.2372,-1.2519,-1.331,-1.3818,-1.4027,-1.5517,-1.6706,-1.6706,-1.7432,-1.793,-1.8134,-1.9497,-2.0537,-2.0794,-2.199,-2.3305,-2.4279,-2.4964,-2.5673,-2.6457,-2.724,-2.8042,-2.918,-2.9805,-3.069,-3.2039,-3.2523,-3.3084,0.3037,0.2681,0.179,0.0807,0.0,0.0,0.0,0.0,0.0,0.018,0.0449,0.0449,0.0896,0.179,0.1522,0.2058,0.3215,0.3215,0.3304,0.357,0.3566,0.3744,0.4016,0.4982,0.5518,0.5802,0.6697,0.7139,0.7139,0.7139,0.7085,0.6973,0.679,0.6685,0.6641,0.625,0.5726,0.5079,0.3515,0.2111,0.0784,0.0235,0.0,0.0,0.0,0.0,0.0,0.0,-0.0706,-0.2272,-0.2804,-0.4048,-0.619,-0.6264,0.0,0.0,0.0,0.0,0.0,0.0,0.0,0.0,0.0,-0.6576,-0.6692,0.0,-0.7717,0.0,-0.8489,-0.9499,-1.072,-1.0559,0.0,0.0,-1.2077,-1.207,-1.2305,-1.2305,-1.2305,-1.2305,-1.2305,-1.2592,-1.331,-1.2739,-1.2666,-1.3528,-1.2879,-1.2806,-1.4235,-1.4665,-1.5092,-1.579,-1.6862,-1.7647,-1.7647,-1.7872,-1.8279,-1.8911,-1.9879,-2.0782,-2.1491,-2.2384,-2.3531,-2.4838,-2.53,-2.5877,-2.7086,-2.7845,-2.8496,-2.9241,-2.954,-3.0021,-3.1223,-3.2021,-3.2636,0.4105,0.357,0.3484,0.2683,0.1522,0.0987,0.0808,0.0807,0.0808,0.0539,0.0,0.0,0.0359,0.0986,0.0986,0.1344,0.1969,0.1968,0.1969,0.1969,0.1968,0.2236,0.2858,0.4011,0.4903,0.5447,0.6517,0.7139,0.7136,0.7075,0.692,0.6926,0.6709,0.66,0.6593,0.6045,0.5381,0.4691,0.4139,0.2813,0.0784,0.0706,0.0471,0.0,0.0,0.0,0.0,0.0,-0.0784,-0.2426,-0.2882,-0.4051,-0.6187,-0.6264,-0.6261,0.0,0.0,0.0,0.0,0.0,0.0,0.0,0.0,0.0,0.0,0.0,-0.8311,-0.9154,-0.9286,-0.9895,-1.1316,-1.1081,-1.1242,-1.2224,-1.2305,-1.2305,-1.2305,-1.2305,-1.2305,-1.2305,-1.2305,-1.2519,-1.2952,-1.2592,-1.2445,-1.3018,-1.2586,-1.2879,-1.4307,-1.5226,-1.6009,-1.6558,-1.7432,-1.8008,-1.8008,-1.8327,-1.8721,-1.9299,-2.0333,-2.1365,-2.1827,-2.2567,-2.359,-2.4993,-2.5398,-2.5877,-2.7291,-2.8091,-2.8685,-2.9225,-2.9629,-3.0218,-3.1223,-3.2021,-3.255,0.4999,0.4105,0.4999,0.491,0.3926,0.2771,0.2148,0.2058,0.2058,0.1344,0.0269,0.009,0.0,0.0,0.018,0.027,0.027,0.0359,0.0449,0.0449,0.0449,0.0987,0.2057,0.3306,0.4376,0.5447,0.6517,0.7041,0.7112,0.6987,0.6912,0.6861,0.6607,0.6464,0.6278,0.5367,0.4844,0.4688,0.4453,0.3439,0.1645,0.1489,0.0941,0.0,0.0,0.0,0.0,0.0,-0.0862,-0.2578,-0.2807,-0.39,-0.5864,-0.6103,-0.618,0.0,-0.6261,0.0,0.0,0.0,0.0,0.0,0.0,0.0,0.0,-0.8084,-0.8983,-1.0864,-1.019,-1.0426,-1.215,-1.1539,-1.1316,-1.215,-1.2305,-1.2305,-1.2305,-1.2305,-1.2305,-1.2305,-1.2305,-1.2298,-1.2512,-1.2519,-1.2519,-1.2799,-1.3091,-1.344,-1.4091,-1.5438,-1.6358,-1.6715,-1.7491,-1.8008,-1.8066,-1.8721,-1.9299,-1.9562,-2.0782,-2.1889,-2.2063,-2.2628,-2.359,-2.5007,-2.5398,-2.5892,-2.7342,-2.8042,-2.8591,-2.9255,-2.9777,-3.0427,-3.1418,-3.2022,-3.255,0.6605,0.6334,0.5714,0.5802,0.6334,0.5179,0.4196,0.3215,0.3213,0.2592,0.1433,0.0449,0.0,0.0,0.0986,0.1433,0.1522,0.2503,0.2948,0.2948,0.2963,0.3051,0.3306,0.4469,0.5186,0.5447,0.6517,0.7082,0.697,0.6943,0.68,0.6563,0.6502,0.6007,0.5115,0.0,0.0,0.0,0.3051,0.2036,0.1568,0.0784,0.0235,0.0,0.0,0.0,0.0,0.0,-0.0157,-0.0549,-0.1408,0.0,0.0,0.0,0.0,0.0,0.0,0.0,0.0,0.0,0.0,0.0,-0.643,-0.7099,-0.8841,-0.9739,-1.072,-1.1848,-1.1848,-1.1848,-1.2224,-1.215,-1.207,-1.2305,-1.2305,-1.2305,-1.2305,-1.2305,-1.2305,-1.2305,-1.2305,-1.2592,-1.331,-1.3462,-1.3738,-1.445,-1.5296,-1.5781,-1.5922,-1.5703,-1.607,-1.7432,-1.7804,-1.7988,-1.8008,-1.868,-1.9532,-2.0257,-2.1164,-2.2101,-2.2665,-2.2919,-2.3649,-2.5106,-2.5398,-2.5892,-2.7291,-2.771,-2.8222,-2.918,-2.9496,-2.9935,-3.1061,-3.164,-3.2074,0.7139,0.0,0.6517,0.6605,0.0,0.6517,0.5891,0.5262,0.473,0.3838,0.2681,0.2057,0.179,0.1791,0.2413,0.2681,0.268,0.3304,0.357,0.3571,0.3582,0.3582,0.3659,0.4819,0.5442,0.5447,0.6449,0.6997,0.6926,0.6776,0.6627,0.6471,0.6403,0.6094,0.5553,0.6025,0.6025,0.5473,0.4457,0.3677,0.3127,0.2581,0.1802,0.0863,0.0,0.0,0.0,0.0,0.0,0.0,0.0,0.0,0.0,0.0,0.0,-0.5473,-0.6025,-0.6261,-0.6261,-0.6261,-0.649,-0.7026,-0.748,-0.8237,-0.9221,-1.0645,-1.1768,-1.2224,-1.2305,-1.2305,-1.2305,-1.2305,-1.2305,-1.2305,-1.2305,-1.2305,-1.2305,-1.2305,-1.2305,-1.2305,-1.2305,-1.2666,-1.36,-1.3673,-1.4099,-1.5021,-1.5587,-1.6,-1.6246,-1.6287,-1.6668,-1.729,-1.7373,-1.7373,-1.7504,-1.8425,-1.9312,-1.9851,-2.09,-2.1893,-2.2555,-2.2723,-2.3257,-2.4968,-2.5398,-2.5877,-2.7291,-2.8027,-2.867,-2.9316,-2.9908,-3.0435,-3.1134,-3.1731,-3.2213,0.7139,0.7139,0.7139,0.7139,0.7139,0.7139,0.7139,0.7048,0.0,0.0,0.0,0.366,0.357,0.357,0.3838,0.3926,0.3926,0.4105,0.4194,0.4192,0.4192,0.4194,0.4281,0.5215,0.5651,0.5678,0.6522,0.6871,0.6837,0.6593,0.6458,0.6427,0.6318,0.6261,0.6261,0.6261,0.6261,0.6261,0.6103,0.555,0.4766,0.453,0.3593,0.1879,0.1723,0.1176,0.0314,0.0079,-0.0392,-0.1254,-0.1333,-0.1801,-0.2813,-0.3826,-0.453,-0.4688,-0.5709,-0.6261,-0.6261,-0.6261,-0.6641,-0.7476,-0.8466,-0.9145,-0.9518,-1.1099,-1.2144,-1.2305,-1.2305,-1.2305,-1.2305,-1.2305,-1.2305,-1.2305,-1.2305,-1.2305,-1.2305,-1.2305,-1.2305,-1.2305,-1.2305,-1.2666,-1.3528,-1.3673,-1.4099,-1.4934,-1.5362,-1.5446,-1.5966,-1.6646,-1.7028,-1.6811,-1.6846,-1.6704,-1.6928,-1.8099,-1.9004,-1.9201,-2.0471,-2.16,-2.2033,-2.2349,-2.321,-2.4874,-2.5356,-2.6147,-2.7342,-2.84,-2.9241,-2.9361,-3.0267,-3.1072,-3.1252,-3.1806,-3.2332,0.7139,0.7139,0.7139,0.7139,0.7139,0.7139,0.7139,0.7051,0.5894,0.527,0.509,0.4016,0.357,0.3659,0.4732,0.5179,0.5179,0.6157,0.6602,0.0,0.6605,0.6602,0.659,0.6708,0.6662,0.6678,0.6723,0.6664,0.6546,0.6495,0.6413,0.6302,0.6349,0.6261,0.6261,0.6261,0.6261,0.6257,0.5392,0.4844,0.4688,0.3826,0.3203,0.289,0.2035,0.1568,0.1333,0.0471,-0.0078,-0.0235,-0.0235,-0.0706,-0.1723,-0.2735,-0.3748,-0.4686,-0.5709,-0.6261,-0.6261,-0.6261,-0.6338,-0.6567,-0.7403,-0.8761,-1.0415,-1.0864,-1.1391,-1.215,-1.2305,-1.2305,-1.2305,-1.2305,-1.2305,-1.2305,-1.2305,-1.2305,-1.2305,-1.2305,-1.2305,-1.2305,-1.2305,-1.2659,-1.3528,-1.3673,-1.4091,-1.4964,-1.5317,-1.5791,-1.5987,-1.6447,-1.6777,-1.6748,-1.6665,-1.6665,-1.6747,-1.8025,-1.8903,-1.9123,-2.0409,-2.1405,-2.1556,-2.239,-2.3371,-2.4475,-2.5497,-2.6515,-2.7444,-2.814,-2.8826,-2.9316,-3.0038,-3.0658,-3.1112,-3.1603,-3.2057,0.7139,0.7139,0.7139,0.7139,0.7139,0.7139,0.7139,0.7051,0.6517,0.6337,0.6248,0.5711,0.5528,0.5531,0.6068,0.6337,0.6337,0.6874,0.7139,0.7139,0.7048,0.6959,0.6933,0.6841,0.6795,0.6809,0.6627,0.6542,0.6471,0.6476,0.6404,0.6264,0.6261,0.6261,0.6261,0.6261,0.6261,0.6261,0.5786,0.5553,0.555,0.5079,0.453,0.3982,0.2969,0.2113,0.1645,0.0549,0.0,0.0,0.0,-0.0235,-0.0706,-0.1723,-0.2735,-0.3748,-0.4844,-0.5709,-0.6257,-0.6261,-0.6261,-0.6338,-0.6718,-0.7629,-0.9059,-1.0185,-1.1236,-1.215,-1.2305,-1.2305,-1.2305,-1.2305,-1.2305,-1.2305,-1.2305,-1.2305,-1.2305,-1.2305,-1.2305,-1.2305,-1.2305,-1.2666,-1.36,-1.3673,-1.4014,-1.4735,-1.4874,-1.4877,-1.534,-1.5397,-1.5529,-1.5885,-1.6016,-1.6016,-1.6076,-1.7275,-1.8134,-1.8305,-1.955,-2.0594,-2.0983,-2.1869,-2.2951,-2.4214,-2.5374,-2.63,-2.7339,-2.8367,-2.8996,-2.9361,-3.0208,-3.0838,-3.1213,-3.1714,-3.2298,0.7139,0.7139,0.7139,0.7139,0.7139,0.7139,0.7139,0.7139,0.7139,0.7139,0.7139,0.7139,0.7139,0.7139,0.7139,0.7139,0.7136,0.7105,0.7092,0.7007,0.6946,0.6848,0.6863,0.6749,0.6668,0.663,0.6471,0.6424,0.641,0.639,0.6261,0.6261,0.6261,0.6261,0.6261,0.6261,0.6261,0.6261,0.6261,0.6261,0.6261,0.6261,0.5867,0.5079,0.3984,0.2969,0.1957,0.0941,0.0235,0.0,0.0,0.0,0.0,-0.102,-0.1958,-0.2735,-0.3984,-0.5157,-0.618,-0.6261,-0.6261,-0.6261,-0.6261,-0.6718,-0.7783,-0.921,-1.0559,-1.1471,-1.1552,-1.1626,-1.1848,-1.1929,-1.2077,-1.2231,-1.2305,-1.2305,-1.2305,-1.2305,-1.2305,-1.2305,-1.2305,-1.2586,-1.3164,-1.3382,-1.3581,-1.3974,-1.3672,-1.3672,-1.4471,-1.4385,-1.4529,-1.5108,-1.542,-1.5459,-1.5468,-1.6503,-1.7346,-1.7512,-1.8697,-1.9682,-2.0429,-2.1199,-2.228,-2.3861,-2.5089,-2.6126,-2.7215,-2.8307,-2.9057,-2.9406,-3.0166,-3.0958,-3.119,-3.175,-3.2433,0.7139,0.7139,0.7139,0.7139,0.7139,0.7139,0.7139,0.7139,0.7139,0.7139,0.7132,0.7139,0.7139,0.7139,0.7139,0.7132,0.7122,0.7004,0.6949,0.6877,0.6812,0.6686,0.6678,0.6568,0.6551,0.6512,0.6373,0.6291,0.6291,0.6271,0.6261,0.6261,0.6261,0.6261,0.6261,0.6261,0.6261,0.6261,0.6261,0.6261,0.6261,0.6261,0.6257,0.618,0.5079,0.4059,0.2968,0.2035,0.102,0.0,0.0,0.0,0.0,-0.1019,-0.1645,-0.1803,-0.3597,-0.5157,-0.618,-0.6261,-0.6257,-0.6261,-0.6261,-0.6718,-0.7629,-0.7936,-0.8542,-0.9372,-0.9599,-1.0045,-1.0789,-1.0938,-1.1242,-1.1922,-1.2077,-1.2305,-1.2231,-1.2305,-1.2305,-1.2305,-1.2305,-1.2372,-1.2519,-1.2471,-1.2534,-1.2825,-1.2598,-1.2751,-1.3831,-1.4156,-1.4392,-1.5108,-1.541,-1.542,-1.5526,-1.6036,-1.6922,-1.7523,-1.8274,-1.921,-2.0103,-2.1411,-2.2746,-2.3328,-2.491,-2.6366,-2.6846,-2.7714,-2.8826,-2.9361,-2.9995,-3.0617,-3.1095,-3.1565,-3.2057,0.7139,0.7139,0.7139,0.7139,0.7139,0.7139,0.7139,0.7139,0.7139,0.7095,0.7017,0.7014,0.7061,0.7044,0.7054,0.7014,0.7004,0.6861,0.6797,0.6797,0.6678,0.6574,0.6556,0.642,0.639,0.6373,0.6298,0.6261,0.6261,0.6261,0.6261,0.6261,0.6261,0.6261,0.6261,0.6261,0.6261,0.6261,0.6261,0.6261,0.6261,0.6261,0.6261,0.618,0.5234,0.453,0.3906,0.2504,0.1411,0.0941,0.0392,0.0,0.0,-0.0392,-0.0941,-0.1568,-0.2971,-0.4217,-0.5237,-0.5315,-0.5631,-0.6257,-0.6261,-0.649,-0.6872,-0.6872,-0.7099,-0.7557,-0.8542,-0.9523,-0.9895,-0.9895,-1.0121,-1.0426,-1.0501,-1.072,-1.1397,-1.1391,-1.162,-1.215,-1.2305,-1.2305,-1.2251,-1.1991,-1.1769,-1.1692,-1.1437,-1.174,-1.2642,-1.3183,-1.3846,-1.451,-1.505,-1.541,-1.5526,-1.6415,-1.7135,-1.7677,-1.8596,-1.9579,-2.0321,-2.1198,-2.2276,-2.3054,-2.4824,-2.6135,-2.6572,-2.7906,-2.915,-2.9585,-3.0267,-3.0935,-3.1151,-3.1507,-3.1933,0.7139,0.7143,0.7404,0.7749,0.8009,0.8097,0.7983,0.7941,0.7941,0.7849,0.7708,0.7701,0.7677,0.7673,0.7161,0.6865,0.6848,0.6709,0.6801,0.7037,0.693,0.6834,0.6891,0.6777,0.6725,0.663,0.6409,0.6261,0.6261,0.6261,0.6261,0.6261,0.6261,0.6261,0.6338,0.6567,0.6567,0.6338,0.6567,0.6567,0.6335,0.6261,0.6261,0.618,0.5553,0.5002,0.4688,0.3205,0.2193,0.1645,0.0863,0.0314,0.0,0.0,-0.0471,-0.1489,-0.2268,-0.3125,-0.4217,-0.4295,-0.4688,-0.5709,-0.5867,-0.6025,-0.6257,-0.6261,-0.6261,-0.6412,-0.7629,-0.8466,-0.8846,-0.8922,-0.8993,-0.9221,-0.9296,-0.9744,-1.064,-1.0789,-1.1242,-1.2077,-1.2305,-1.2305,-1.2225,-1.1824,-1.1369,-1.1236,-1.088,-1.0863,-1.171,-1.2512,-1.3304,-1.4094,-1.4874,-1.5352,-1.5526,-1.6358,-1.7246,-1.7852,-1.8661,-1.9567,-2.0446,-2.1099,-2.1979,-2.2991,-2.456,-2.5762,-2.6516,-2.7937,-2.9406,-2.9761,-3.0435,-3.1151,-3.119,-3.1603,-3.2057,0.7139,0.7312,0.8364,0.9401,1.0428,1.0341,1.0223,0.9793,0.9961,0.9839,0.9414,0.9481,0.9562,0.9327,0.7596,0.6791,0.6771,0.6711,0.7194,0.789,0.7799,0.7737,0.7733,0.7712,0.7731,0.7651,0.7007,0.649,0.6412,0.6335,0.6261,0.6338,0.6416,0.6338,0.6493,0.733,0.7249,0.6707,0.7322,0.7326,0.649,0.6335,0.6335,0.6261,0.6257,0.5709,0.4844,0.4611,0.3673,0.1723,0.1568,0.102,0.0,0.0,-0.0471,-0.1411,-0.1645,-0.2113,-0.2968,-0.3202,-0.3593,-0.4608,-0.4844,-0.5237,-0.6025,-0.6257,-0.6261,-0.6257,-0.6493,-0.7022,-0.7706,-0.7863,-0.8237,-0.8993,-0.9145,-0.9588,-1.0559,-1.0484,-1.1236,-1.1922,-1.215,-1.2131,-1.2191,-1.179,-1.149,-1.1296,-1.0915,-1.0898,-1.163,-1.2421,-1.3243,-1.4025,-1.4746,-1.542,-1.5468,-1.6358,-1.7034,-1.7633,-1.8501,-1.9214,-1.9953,-2.0822,-2.186,-2.2971,-2.4615,-2.5866,-2.6579,-2.7672,-2.9021,-2.9848,-3.0617,-3.1151,-3.119,-3.1914,-3.2298,0.9309,0.9396,0.9836,1.0105,1.0324,1.0319,1.0193,0.9911,0.9906,0.9781,0.9602,0.9577,0.9503,0.9374,0.8677,0.8436,0.844,0.8347,0.849,0.8793,0.8751,0.8727,0.8727,0.8727,0.878,0.867,0.8376,0.8237,0.8165,0.7557,0.7249,0.7253,0.7249,0.7265,0.7443,0.8255,0.8576,0.828,0.8566,0.8313,0.7326,0.7253,0.6945,0.6338,0.6261,0.6103,0.5705,0.5079,0.4297,0.3597,0.2349,0.1411,0.102,0.0392,-0.0157,-0.0549,-0.0549,-0.1019,-0.1957,-0.2112,-0.2581,-0.3593,-0.4295,-0.4766,-0.5318,-0.5867,-0.6261,-0.6257,-0.6257,-0.649,-0.6721,-0.6872,-0.6945,-0.7326,-0.7403,-0.7855,-0.8609,-0.8912,-0.9286,-1.0196,-1.087,-1.1255,-1.1247,-1.1469,-1.1643,-1.143,-1.1076,-1.0999,-1.1368,-1.225,-1.3103,-1.3563,-1.451,-1.542,-1.542,-1.6461,-1.7401,-1.7993,-1.8756,-1.9798,-2.0699,-2.1901,-2.3033,-2.3587,-2.5022,-2.6201,-2.7028,-2.8155,-2.9416,-3.0418,-3.1151,-3.1151,-3.119,-3.1878,-3.2248,1.0737,1.1022,1.1011,1.1052,1.1183,1.1172,1.1033,1.0737,1.0721,1.0583,1.0462,1.0429,1.034,1.0293,1.0276,1.0355,1.0259,0.9661,0.9442,0.975,0.9776,0.9755,0.9788,0.9788,0.9782,0.9788,0.9814,0.9669,0.9301,0.8618,0.8313,0.8318,0.8313,0.8327,0.8421,0.9306,0.9681,0.9463,0.9611,0.9291,0.8385,0.7936,0.748,0.6872,0.649,0.6261,0.6261,0.5628,0.5002,0.453,0.3363,0.227,0.1568,0.0941,0.0314,0.0,0.0,-0.0314,-0.0941,-0.1097,-0.1567,-0.2501,-0.3283,-0.3828,-0.4139,-0.4844,-0.5237,-0.5237,-0.5234,-0.5237,-0.5315,-0.555,-0.5944,-0.618,-0.6261,-0.6718,-0.7633,-0.7859,-0.8313,-0.9221,-0.997,-1.0181,-1.0126,-1.0538,-1.0694,-1.0581,-1.0542,-1.0661,-1.081,-1.1942,-1.2924,-1.305,-1.4338,-1.5163,-1.5626,-1.6605,-1.7649,-1.826,-1.9546,-2.0577,-2.1549,-2.2888,-2.3889,-2.4433,-2.5335,-2.6504,-2.7657,-2.8788,-2.9864,-3.0942,-3.123,-3.1213,-3.1449,-3.1787,-3.2248,1.1149,1.1881,1.1946,1.23,1.2816,1.2876,1.2941,1.2536,1.2586,1.2277,1.1919,1.2103,1.1961,1.2157,1.1929,1.2164,1.1726,1.0357,1.0045,1.0795,1.079,1.0824,1.0769,1.0775,1.0849,1.0775,1.0828,1.034,0.9599,0.9448,0.9296,0.9296,0.9296,0.9281,0.9311,1.0243,1.0387,0.9905,1.0392,1.0346,0.9296,0.8389,0.7859,0.7633,0.6872,0.6412,0.6335,0.6257,0.5789,0.4921,0.4608,0.3673,0.2036,0.1646,0.1176,0.0314,0.0,0.0,0.0,0.0,-0.0628,-0.1411,-0.1646,-0.227,-0.2968,-0.3279,-0.3435,-0.3515,-0.3437,-0.3279,-0.3513,-0.4139,-0.5079,-0.6025,-0.6183,-0.6718,-0.7403,-0.7783,-0.8161,-0.8846,-0.9221,-0.9296,-0.9246,-0.9337,-0.9348,-0.9357,-0.9684,-1.0158,-1.0353,-1.1654,-1.2587,-1.3107,-1.4224,-1.5286,-1.593,-1.6684,-1.7588,-1.8608,-2.0153,-2.1457,-2.2233,-2.3344,-2.4383,-2.5034,-2.6158,-2.7354,-2.8419,-2.946,-3.0126,-3.0958,-3.1078,-3.1312,-3.164,-3.1968,-3.25,1.2681,1.2779,1.2766,1.2837,1.2906,1.2893,1.2719,1.2452,1.2438,1.2385,1.2311,1.2305,1.2305,1.2305,1.2305,1.2305,1.2231,1.1626,1.1552,1.1855,1.1806,1.1787,1.1816,1.181,1.181,1.1816,1.1829,1.17,1.1248,1.064,1.034,1.034,1.034,1.0346,1.0421,1.1248,1.1607,1.1452,1.1687,1.1323,1.034,0.9367,0.8542,0.7859,0.748,0.7326,0.7326,0.6644,0.6183,0.5786,0.5079,0.4064,0.2969,0.2657,0.2113,0.1254,0.1098,0.0706,0.0,0.0,-0.0078,-0.0549,-0.1176,-0.1724,-0.2112,-0.2657,-0.2968,-0.3046,-0.3124,-0.3124,-0.3202,-0.3357,-0.4062,-0.5082,-0.5867,-0.6257,-0.656,-0.6714,-0.6868,-0.7253,-0.7859,-0.8237,-0.838,-0.852,-0.8946,-0.9001,-0.9639,-1.0141,-1.0479,-1.1563,-1.2983,-1.3627,-1.4672,-1.5568,-1.6243,-1.714,-1.8176,-1.9148,-2.0592,-2.2133,-2.2976,-2.3753,-2.4765,-2.595,-2.7063,-2.8077,-2.9159,-2.9935,-3.0601,-3.0958,-3.1134,-3.1449,-3.177,-3.2161,-3.2631,1.3307,1.3053,1.3039,1.2859,1.2592,1.2579,1.2485,1.2318,1.2305,1.2305,1.2305,1.2305,1.2305,1.2305,1.2305,1.2519,1.2799,1.2806,1.3018,1.3164,1.2519,1.2305,1.2305,1.2305,1.2305,1.2305,1.2305,1.2305,1.2231,1.1694,1.1391,1.1385,1.1316,1.1329,1.1428,1.1935,1.2305,1.2305,1.2305,1.1996,1.1323,1.0421,0.9593,0.8988,0.8537,0.8389,0.8313,0.7706,0.7249,0.6791,0.5857,0.4844,0.3826,0.3671,0.3203,0.2425,0.2113,0.1722,0.0784,0.0,0.0392,0.0,-0.0628,-0.1019,-0.1097,-0.1721,-0.1878,-0.1955,-0.1877,-0.1955,-0.1956,-0.2347,-0.2815,-0.3441,-0.4455,-0.5079,-0.5079,-0.5157,-0.5079,-0.5306,-0.5922,-0.6542,-0.6846,-0.7548,-0.8161,-0.8291,-0.9244,-0.9963,-1.03,-1.1436,-1.2661,-1.3789,-1.4697,-1.5551,-1.6515,-1.755,-1.8772,-1.9809,-2.0887,-2.2483,-2.3725,-2.4518,-2.5438,-2.6877,-2.809,-2.876,-2.9761,-3.0335,-3.0918,-3.1055,-3.123,-3.1545,-3.1878,-3.2196,-3.2663,1.3155,1.2961,1.2871,1.2716,1.2486,1.2405,1.2331,1.2305,1.2305,1.2305,1.2305,1.2445,1.2452,1.2452,1.2666,1.3164,1.3665,1.381,1.4163,1.4299,1.3513,1.2725,1.2546,1.2746,1.2732,1.2519,1.2452,1.2452,1.2519,1.2439,1.2378,1.2372,1.2505,1.2519,1.2666,1.2519,1.2592,1.2519,1.2452,1.2445,1.215,1.1242,1.0714,1.0559,0.982,0.9367,0.9372,0.9296,0.877,0.7859,0.6791,0.586,0.4999,0.4766,0.4295,0.3281,0.3202,0.2659,0.1958,0.1645,0.1332,0.0549,0.047,0.0078,0.0078,0.0,-0.0235,0.0,0.0,0.0,0.0,-0.0941,-0.1488,-0.1645,-0.2815,-0.3359,-0.3202,-0.3279,-0.3513,-0.3513,-0.4059,-0.4763,-0.5074,-0.5935,-0.6409,-0.6868,-0.8067,-0.8954,-0.9772,-1.0905,-1.2391,-1.3576,-1.4598,-1.5549,-1.6496,-1.7939,-1.9078,-2.0068,-2.124,-2.2732,-2.4419,-2.5326,-2.603,-2.7515,-2.8763,-2.9508,-3.0081,-3.0518,-3.0918,-3.1151,-3.1389,-3.1694,-3.2056,-3.2417,-3.284,1.4171,1.4447,1.3799,1.3389,1.3244,1.2592,1.2305,1.2305,1.2305,1.2372,1.2445,1.3025,1.331,1.3382,1.4091,1.4593,1.4736,1.4807,1.4879,1.5076,1.4727,1.3954,1.3616,1.4072,1.4027,1.3455,1.331,1.331,1.331,1.3317,1.3317,1.339,1.4027,1.4378,1.4458,1.4307,1.4019,1.3455,1.331,1.2945,1.2298,1.1391,1.0789,1.0789,1.0559,1.0409,1.0415,1.0438,0.9539,0.7936,0.7553,0.6945,0.6015,0.5864,0.5392,0.453,0.4217,0.3826,0.2969,0.2735,0.2578,0.2345,0.2033,0.1956,0.1255,0.1176,0.0784,0.0,0.0,0.0,0.0,-0.0157,-0.0392,-0.0628,-0.172,-0.281,-0.2968,-0.3124,-0.3124,-0.3202,-0.3984,-0.4375,-0.4688,-0.547,-0.618,-0.6409,-0.7322,-0.8466,-0.9216,-1.034,-1.1829,-1.3368,-1.4538,-1.5475,-1.66,-1.8113,-1.9333,-2.0353,-2.1561,-2.2924,-2.4649,-2.6208,-2.6857,-2.778,-2.8903,-2.9761,-3.0038,-3.0393,-3.074,-3.1213,-3.1507,-3.1842,-3.2316,-3.2713,-3.3136,1.4856,1.5163,1.4601,1.4307,1.4235,1.3476,1.3266,1.344,1.3186,1.3273,1.3585,1.4019,1.4314,1.4386,1.495,1.5438,1.572,1.579,1.6009,1.6437,1.6383,1.5632,1.4768,1.5021,1.4879,1.4386,1.4314,1.4307,1.4314,1.4314,1.4314,1.4378,1.4879,1.5163,1.5092,1.5163,1.495,1.445,1.4314,1.3882,1.2879,1.2352,1.2124,1.2044,1.2044,1.2044,1.197,1.1632,1.0663,0.9367,0.8623,0.7944,0.7099,0.6945,0.6405,0.547,0.5392,0.4924,0.4062,0.3748,0.3513,0.3202,0.3124,0.2813,0.2347,0.219,0.1878,0.0,0.0,0.1331,0.1331,0.1331,0.1331,0.1251,0.0234,-0.0858,-0.1641,-0.1721,-0.18,-0.2033,-0.2657,-0.3439,-0.3441,-0.4688,-0.5473,-0.5938,-0.6938,-0.7851,-0.8613,-0.9884,-1.1224,-1.2691,-1.4299,-1.5367,-1.6489,-1.7881,-1.9552,-2.059,-2.2542,-2.3761,-2.4883,-2.6678,-2.765,-2.8319,-2.918,-2.9865,-3.0225,-3.0559,-3.1044,-3.1432,-3.166,-3.2074,-3.255,-3.2983,-3.339,1.5367,1.5517,1.5376,1.5367,1.5226,1.464,1.4601,1.4988,1.4593,1.4593,1.5005,1.5234,1.5305,1.5376,1.5658,1.6009,1.6775,1.6784,1.7217,1.7579,1.7628,1.6982,1.58,1.579,1.5658,1.5376,1.5376,1.5376,1.5376,1.5376,1.5376,1.5446,1.5517,1.5587,1.5807,1.5666,1.5446,1.5367,1.5376,1.4807,1.4019,1.373,1.3658,1.3658,1.3658,1.3738,1.352,1.2959,1.2009,1.1156,1.0067,0.9003,0.8156,0.7931,0.7553,0.6942,0.671,0.6318,0.5458,0.5452,0.4988,0.4438,0.4206,0.3665,0.3891,0.3969,0.3814,0.3424,0.3352,0.3042,0.2812,0.2968,0.2812,0.2656,0.2733,0.2033,0.0862,0.0235,0.0235,0.0157,-0.0705,-0.1489,-0.1957,-0.3127,-0.4611,-0.5157,-0.6234,-0.7007,-0.7923,-0.9059,-1.0398,-1.1803,-1.3476,-1.5209,-1.641,-1.7609,-1.9388,-2.1026,-2.3428,-2.4924,-2.5232,-2.6701,-2.8064,-2.9058,-2.9316,-2.9908,-3.0617,-3.0982,-3.1334,-3.1565,-3.177,-3.2264,-3.284,-3.3166,-3.355,1.6724,1.7373,1.6576,1.628,1.6219,1.5859,1.5497,1.5305,1.5584,1.5551,1.5455,1.6,1.6349,1.6349,1.706,1.751,1.7774,1.7774,1.7872,1.793,1.8008,1.7862,1.7326,1.7276,1.6922,1.6507,1.6289,1.6289,1.6289,1.6289,1.628,1.6358,1.6862,1.7364,1.7295,1.7157,1.701,1.6428,1.6349,1.5852,1.5155,1.4942,1.4942,1.4879,1.4879,1.4879,1.4697,1.3915,1.3338,1.2725,1.1556,1.022,0.921,0.8993,0.8841,0.8537,0.8537,0.8456,0.83,0.799,0.8143,0.7672,0.7363,0.7588,0.6721,0.6572,0.6256,0.5634,0.4796,0.4271,0.374,0.3278,0.3433,0.3589,0.3433,0.3202,0.2423,0.1722,0.1567,0.1564,0.0156,-0.1252,-0.0546,-0.2108,-0.3433,-0.4373,-0.5229,-0.6079,-0.7076,-0.8071,-0.9276,-1.0605,-1.2663,-1.4316,-1.5808,-1.7464,-1.9944,-2.1608,-2.3884,-2.5783,-2.6094,-2.6753,-2.8176,-2.8826,-2.9134,-2.9892,-3.0845,-3.1117,-3.1411,-3.1603,-3.195,-3.2484,-3.2983,-3.3332,-3.3606,1.751,1.794,1.7432,1.7285,1.7226,1.7075,1.6788,1.6603,1.6866,1.6857,1.6784,1.7493,1.7833,1.793,1.8757,1.9243,1.9243,1.9177,1.8977,1.8751,1.863,1.8378,1.8162,1.8352,1.8168,1.7385,1.7285,1.7276,1.7207,1.7276,1.7285,1.7285,1.7784,1.7862,1.8008,1.8076,1.7988,1.7939,1.7862,1.7366,1.6609,1.6453,1.6184,1.593,1.586,1.586,1.5799,1.4944,1.4521,1.4171,1.3367,1.1898,1.0467,1.0404,1.0254,0.9442,0.9798,0.9658,0.9442,0.9296,0.9221,0.9372,0.9296,0.8983,0.858,0.8424,0.8263,0.7715,0.7186,0.6579,0.605,0.6053,0.5825,0.5369,0.5292,0.5143,0.4528,0.3283,0.2423,0.2734,0.1718,0.1249,0.0624,-0.0623,-0.148,-0.2181,-0.3669,-0.4598,-0.5687,-0.6685,-0.7761,-0.9256,-1.1544,-1.3432,-1.4985,-1.7369,-2.0669,-2.236,-2.4045,-2.5727,-2.6692,-2.7449,-2.8271,-2.8826,-2.9361,-3.0269,-3.1089,-3.1261,-3.164,-3.2248,-3.2648,-3.289,-3.3136,-3.3532,-3.3734,1.8395,1.8405,1.8395,1.8405,1.8395,1.8395,1.8395,1.8395,1.8357,1.8434,1.8529,1.917,1.9344,1.9617,2.0128,2.0515,2.0526,2.0462,2.0009,1.9584,1.95,1.9225,1.8885,1.9152,1.9186,1.8442,1.8519,1.8452,1.8452,1.8405,1.8576,1.8452,1.8462,1.8664,1.8529,1.8462,1.8844,1.9288,1.9354,1.9069,1.8439,1.8275,1.7948,1.7561,1.7434,1.7503,1.7307,1.6594,1.5895,1.5843,1.5651,1.4134,1.2656,1.2011,1.2084,1.0404,1.1329,1.1409,1.1057,1.0622,1.0548,1.0179,1.0329,1.0404,1.0398,1.0318,1.0248,0.9954,0.9573,0.9049,0.9291,0.8751,0.8456,0.808,0.7931,0.7633,0.6707,0.5068,0.4516,0.3671,0.3044,0.2419,0.234,0.1558,0.0779,-0.0156,-0.1715,-0.32,-0.4288,-0.5452,-0.6681,-0.8652,-1.1089,-1.4403,-1.6243,-1.7658,-2.0882,-2.2662,-2.4204,-2.5658,-2.6967,-2.753,-2.8174,-2.9134,-2.9832,-3.0616,-3.1111,-3.1317,-3.1878,-3.2809,-3.3045,-3.2921,-3.3225,-3.3734,-3.3921,2.0139,2.0215,2.0204,2.015,2.0139,2.0139,2.0074,2.0161,2.003,2.0151,2.0096,2.0336,2.0399,2.0495,2.0451,2.0643,2.0846,2.0846,2.0655,2.041,2.0401,2.0135,2.0053,2.0211,2.0245,2.0246,2.0139,2.0139,2.0009,2.0204,1.9879,2.0074,2.0009,2.0009,1.9944,2.0139,2.002,2.0333,2.0409,2.0193,2.0106,1.9901,1.9836,1.9509,1.9444,1.9509,1.9507,1.8977,1.8524,1.8491,1.7724,1.6691,1.5661,1.5018,1.4546,1.3909,1.3966,1.3894,1.3613,1.3917,1.4132,1.4204,1.3837,1.3909,1.3772,1.3346,1.2698,1.2331,1.1446,1.0335,0.9372,0.9744,0.9372,0.9069,0.914,0.8993,0.8609,0.8062,0.7138,0.5922,0.4598,0.3513,0.3511,0.3276,0.226,0.1247,-0.0078,-0.1872,-0.3429,-0.4673,-0.5912,-0.8245,-1.0929,-1.4576,-1.8006,-1.9194,-2.1118,-2.2541,-2.4089,-2.5563,-2.664,-2.724,-2.8012,-2.9255,-3.0005,-3.0534,-3.0971,-3.1432,-3.1933,-3.2695,-3.2791,-3.284,-3.3364,-3.3891,-3.4213,2.059,2.059,2.059,2.059,2.059,2.059,2.059,2.0602,2.0616,2.0616,2.0719,2.1055,2.1255,2.1404,2.1741,2.1865,2.1854,2.1854,2.1667,2.1383,2.1302,2.0963,2.0864,2.11,2.126,2.1381,2.1616,2.1353,2.0655,2.059,2.0707,2.059,2.059,2.059,2.059,2.0526,2.091,2.1175,2.1302,2.129,2.1227,2.0974,2.0643,2.0655,2.0643,2.059,2.0484,2.0227,1.9921,1.9803,1.9432,1.903,1.8557,1.8054,1.7133,1.5773,1.5711,1.572,1.5376,1.5163,1.5084,1.5092,1.5305,1.5163,1.5092,1.4657,1.4585,1.4227,1.3939,1.2684,1.1816,1.1514,1.1075,1.0409,1.0479,1.0329,0.9809,0.9873,0.9195,0.8147,0.6915,0.5912,0.5082,0.4608,0.3589,0.2574,0.1483,-0.0312,-0.2259,-0.3503,-0.4665,-0.7479,-1.009,-1.3596,-1.729,-1.927,-2.0905,-2.2469,-2.4089,-2.5508,-2.6753,-2.76,-2.8591,-2.9745,-3.0302,-3.0704,-3.1554,-3.2213,-3.2415,-3.2645,-3.3009,-3.3382,-3.367,-3.4031,-3.4379,2.1101,2.1112,2.1101,2.1101,2.1101,2.1101,2.1164,2.1112,2.1371,2.136,2.1255,2.2128,2.2468,2.2384,2.2859,2.3352,2.3543,2.3577,2.3195,2.2895,2.2763,2.2286,2.2018,2.2153,2.2742,2.2965,2.3195,2.2713,2.1667,2.1581,2.1455,2.1756,2.1569,2.1557,2.1794,2.1868,2.1954,2.2274,2.2421,2.2408,2.2396,2.1942,2.1557,2.1506,2.1444,2.1455,2.1643,2.1365,2.1187,2.1174,2.1067,2.1,2.0882,2.0846,1.9422,1.7064,1.7083,1.6876,1.6669,1.6522,1.6867,1.6936,1.6453,1.6392,1.6383,1.6564,1.6018,1.5747,1.5342,1.498,1.4188,1.4004,1.3208,1.2471,1.2311,1.2371,1.1636,1.1415,1.1476,1.0444,0.9271,0.83,0.7379,0.67,0.5902,0.4588,0.3575,0.148,-0.0389,-0.1636,-0.3262,-0.6246,-0.925,-1.2521,-1.5731,-1.8578,-2.0434,-2.2286,-2.4063,-2.5755,-2.7049,-2.8225,-2.9178,-2.9999,-3.0563,-3.1079,-3.2056,-3.2713,-3.2631,-3.2805,-3.3458,-3.3831,-3.3975,-3.4251,-3.4636,2.2823,2.2811,2.2811,2.2811,2.2811,2.2798,2.2823,2.2896,2.345,2.345,2.2847,2.4142,2.4058,2.3446,2.3826,2.4509,2.4908,2.4894,2.4768,2.4509,2.4577,2.4524,2.4667,2.4896,2.4563,2.4486,2.4824,2.4208,2.3255,2.3374,2.3728,2.3774,2.404,2.467,2.4071,2.3768,2.4239,2.4711,2.431,2.4297,2.4727,2.4657,2.46,2.4429,2.4053,2.3657,2.3446,2.3065,2.2812,2.2774,2.2809,2.2482,2.1877,2.1753,2.1227,2.0364,2.0041,2.0063,1.964,1.9367,1.9302,1.9236,1.9433,1.9836,1.9291,1.8711,1.8138,1.7408,1.6834,1.639,1.6122,1.5528,1.4996,1.4775,1.4743,1.4822,1.4316,1.3777,1.3697,1.2926,1.1825,1.0673,0.9643,0.8974,0.8214,0.69,0.5351,0.3335,0.1399,0.0078,-0.2642,-0.586,-0.8275,-1.1388,-1.4771,-1.7533,-1.9984,-2.2031,-2.4138,-2.5957,-2.7309,-2.8529,-2.9233,-3.0028,-3.0718,-3.1382,-3.2176,-3.2598,-3.2598,-3.3064,-3.3758,-3.4031,-3.4128,-3.4492,-3.487,2.4381,2.4439,2.4381,2.4381,2.4381,2.4381,2.4381,2.4492,2.4744,2.4718,2.4567,2.5053,2.4969,2.4627,2.4851,2.5077,2.5342,2.5494,2.5398,2.5508,2.5504,2.5504,2.5287,2.539,2.5371,2.5604,2.5384,2.5119,2.4654,2.4711,2.4894,2.5007,2.5231,2.5217,2.5686,2.548,2.5562,2.5819,2.5923,2.6107,2.6227,2.6112,2.5941,2.5887,2.5301,2.505,2.4848,2.4656,2.4433,2.4411,2.4381,2.4253,2.4008,2.3878,2.3677,2.3475,2.3344,2.2445,2.0887,2.076,2.0771,2.0643,2.0707,2.0451,2.0515,2.0353,1.9922,1.9369,1.9041,1.8558,1.8128,1.7668,1.7194,1.693,1.6958,1.688,1.6743,1.6711,1.626,1.5354,1.4506,1.3489,1.2184,1.0736,0.9991,0.8934,0.7411,0.5416,0.3253,0.132,-0.1934,-0.5953,-0.8125,-1.0268,-1.3674,-1.6812,-1.9501,-2.1777,-2.4592,-2.6328,-2.7682,-2.8731,-2.961,-3.0587,-3.1541,-3.2109,-3.2482,-3.2924,-3.3348,-3.3729,-3.4139,-3.4342,-3.4513,-3.4716,-3.5069,2.6409,2.6357,2.57,2.5398,2.5398,2.5398,2.5439,2.5645,2.5854,2.5867,2.5847,2.5916,2.6064,2.6313,2.6342,2.6433,2.6515,2.6409,2.6409,2.6385,2.6422,2.6572,2.6703,2.6553,2.6583,2.6342,2.6799,2.6643,2.6538,2.6448,2.6448,2.5957,2.6605,2.6605,2.6591,2.6688,2.685,2.6901,2.7425,2.7719,2.7735,2.737,2.7235,2.6945,2.6509,2.613,2.6122,2.5905,2.5819,2.5811,2.5816,2.5773,2.572,2.5683,2.5683,2.5546,2.5546,2.4776,2.3275,2.2552,2.1894,2.1794,2.167,2.2041,2.1416,2.1342,2.1506,2.1596,2.0887,2.0576,2.02,1.9857,1.9097,1.8833,1.8965,1.8802,1.8649,1.8558,1.8455,1.7899,1.7203,1.6812,1.5233,1.2963,1.1665,1.0867,0.9365,0.7559,0.5177,0.2865,-0.0232,-0.4092,-0.6547,-0.8687,-1.2141,-1.5463,-1.8332,-2.1741,-2.4554,-2.6792,-2.8247,-2.9403,-3.0375,-3.1339,-3.2331,-3.2979,-3.347,-3.3806,-3.4115,-3.4209,-3.4342,-3.4716,-3.4981,-3.5105,-3.5242,2.9102,2.8903,2.6448,2.555,2.5536,2.5398,2.5767,2.648,2.7026,2.7199,2.711,2.7136,2.7817,2.8513,2.8213,2.8261,2.8949,2.9102,2.8794,2.8825,2.9069,2.8704,2.8574,2.8545,2.879,2.8794,2.8529,2.8607,2.8995,2.8638,2.8165,2.7545,2.8117,2.8794,2.8779,2.831,2.8405,2.8544,2.9093,2.9307,2.9323,2.9159,2.9039,2.8902,2.8482,2.8119,2.8054,2.7445,2.7136,2.716,2.7152,2.7122,2.7136,2.7175,2.7125,2.7125,2.7125,2.6696,2.6017,2.5149,2.4939,2.4966,2.4684,2.3981,2.3075,2.3623,2.3917,2.3657,2.2809,2.2421,2.2005,2.1584,2.1049,2.1037,2.1202,2.1128,2.0877,2.0426,2.032,2.0149,1.9673,1.8975,1.8634,1.641,1.4755,1.3962,1.2065,1.0194,0.6764,0.4239,0.178,-0.1237,-0.4097,-0.6961,-1.034,-1.3778,-1.7611,-2.1595,-2.4983,-2.7136,-2.8944,-3.0046,-3.1276,-3.2052,-3.2955,-3.3718,-3.4269,-3.4344,-3.4404,-3.4379,-3.4555,-3.4999,-3.5229,-3.5312,-3.5445,2.9406,2.93,2.8259,2.7856,2.7841,2.7856,2.7987,2.8229,2.8529,2.8607,2.8561,2.8561,2.884,2.9223,2.9194,2.9132,2.9406,2.9406,2.9435,2.9409,2.9372,2.9421,2.9377,2.9497,2.9342,2.9486,2.9488,2.9565,2.9702,3.0161,3.0368,3.0087,2.9762,2.9329,2.9313,2.9874,3.0212,3.0718,3.1057,3.1261,3.1164,3.0597,3.0311,3.027,2.9387,2.9039,2.8933,2.8686,2.8576,2.8575,2.8573,2.8595,2.8635,2.8622,2.8591,2.8591,2.8607,2.8591,2.8358,2.7325,2.6399,2.5901,2.5563,2.5175,2.4584,2.4881,2.4951,2.4711,2.4456,2.416,2.4187,2.3942,2.3638,2.3592,2.3403,2.3272,2.3128,2.2685,2.2384,2.231,2.144,2.0583,2.0328,1.9921,1.841,1.7032,1.494,1.259,0.9247,0.6432,0.4292,0.2002,-0.0767,-0.472,-0.8235,-1.2491,-1.6931,-2.1103,-2.5219,-2.759,-2.9626,-3.1196,-3.2303,-3.2987,-3.3523,-3.4204,-3.462,-3.4667,-3.4736,-3.483,-3.5037,-3.5346,-3.5494,-3.552,-3.5598,3.0344,3.0344,3.0303,2.9956,2.9435,2.9406,2.9496,2.9689,2.9673,2.9919,3.0084,3.0236,3.0303,3.0328,3.0328,3.0369,3.0492,3.0492,3.0427,3.0477,3.0516,3.031,3.0302,3.043,3.062,3.0292,3.0335,3.0603,3.0886,3.1261,3.1431,3.1322,3.092,3.0573,3.0613,3.1009,3.1827,3.2332,3.2517,3.2517,3.2281,3.181,3.1373,3.1336,3.074,3.0516,3.0475,3.0434,3.0418,3.0375,3.0386,3.0346,3.0351,3.0303,3.0303,3.0319,3.0303,3.0303,2.9901,2.8807,2.764,2.7054,2.7011,2.6576,2.6115,2.6101,2.6457,2.6352,2.614,2.6048,2.6115,2.5751,2.5506,2.5286,2.5066,2.5011,2.5163,2.4943,2.4666,2.4415,2.3618,2.3165,2.3218,2.2946,2.0841,1.8791,1.5765,1.4002,1.224,0.9663,0.7742,0.5397,0.2819,-0.1573,-0.6079,-1.0786,-1.5577,-2.0428,-2.4473,-2.8135,-3.0325,-3.1927,-3.3003,-3.3415,-3.3987,-3.4677,-3.4973,-3.5007,-3.5172,-3.5346,-3.5482,-3.5534,-3.5557,-3.5553,-3.5621,3.2332,3.2451,3.2332,3.124,2.9669,2.9435,2.9832,3.0385,3.0444,3.0841,3.1554,3.1987,3.2161,3.2126,3.1934,3.1899,3.1934,3.2057,3.2092,3.1949,3.1816,3.2156,3.2175,3.2057,3.1791,3.2318,3.2144,3.2004,3.2329,3.2409,3.2509,3.2624,3.2423,3.221,3.2382,3.2433,3.2517,3.2533,3.2645,3.2741,3.2755,3.2624,3.2459,3.2376,3.2125,3.19,3.19,3.1825,3.1771,3.1793,3.1864,3.1864,3.1934,3.1969,3.2022,3.2057,3.2126,3.2213,3.2195,3.0393,2.9275,2.859,2.8636,2.8436,2.7707,2.7771,2.8185,2.8076,2.774,2.7722,2.7508,2.7275,2.7145,2.7045,2.6872,2.6929,2.7156,2.7031,2.6692,2.6382,2.6321,2.6289,2.6454,2.5936,2.3506,2.0646,1.7035,1.516,1.4539,1.3684,1.21,0.9296,0.6741,0.2298,-0.254,-0.8863,-1.4227,-1.9239,-2.4245,-2.8548,-3.1224,-3.2756,-3.3544,-3.3873,-3.4445,-3.5133,-3.531,-3.5372,-3.536,-3.533,-3.5505,-3.5569,-3.5582,-3.5605,-3.5664,3.2517,3.2517,3.2517,3.2109,3.1465,3.1465,3.1556,3.1737,3.1773,3.1969,3.223,3.2451,3.2517,3.2517,3.2565,3.2598,3.2583,3.2517,3.2517,3.2553,3.2633,3.2493,3.2535,3.2678,3.26,3.2565,3.2673,3.3051,3.3198,3.3332,3.37,3.3864,3.3703,3.357,3.3196,3.3118,3.334,3.3629,3.3845,3.3981,3.3907,3.3629,3.346,3.3451,3.3056,3.2865,3.2834,3.2763,3.2684,3.2695,3.2693,3.2684,3.2645,3.2663,3.2598,3.2565,3.2533,3.2517,3.2451,3.1649,3.121,3.0707,3.0251,3.0071,2.9606,2.9723,2.9897,2.9856,2.9571,2.9475,2.9235,2.9118,2.8997,2.9013,2.8997,2.9198,2.9308,2.8946,2.8586,2.8246,2.8062,2.8202,2.8358,2.8669,2.6807,2.5692,2.2778,1.964,1.84,1.8263,1.7187,1.3915,1.0676,0.6338,0.1342,-0.4067,-1.1337,-1.746,-2.4063,-3.0453,-3.2537,-3.3592,-3.4288,-3.4715,-3.5155,-3.5538,-3.5367,-3.5242,-3.5185,-3.5212,-3.5208,-3.543,-3.558,-3.5624,-3.5678,3.3263,3.3263,3.3245,3.3245,3.3187,3.2827,3.2684,3.2773,3.2943,3.3003,3.3063,3.3169,3.3234,3.3194,3.3205,3.3164,3.3135,3.3234,3.3273,3.3252,3.3304,3.3394,3.3345,3.3213,3.3469,3.3296,3.3412,3.3732,3.3981,3.4157,3.4349,3.4492,3.4694,3.4284,3.3943,3.3963,3.4088,3.4314,3.4438,3.4532,3.4492,3.4389,3.4226,3.4093,3.384,3.3574,3.3505,3.3378,3.3245,3.3216,3.3263,3.3263,3.3263,3.3263,3.3245,3.3245,3.3273,3.3302,3.3312,3.3312,3.2965,3.2745,3.1879,3.1386,3.1313,3.1256,3.1256,3.1293,3.1384,3.1233,3.1019,3.0903,3.083,3.083,3.0955,3.1148,3.1298,3.0925,3.0734,3.0359,3.0261,3.0311,3.046,3.0551,3.0208,2.9567,2.8796,2.5646,2.2643,2.2356,2.2084,1.9302,1.6807,1.364,0.8251,0.1734,-0.6023,-1.5019,-2.2452,-2.9549,-3.311,-3.4031,-3.4816,-3.5425,-3.5446,-3.5387,-3.5168,-3.5037,-3.466,-3.4564,-3.4619,-3.4928,-3.5419,-3.5477,-3.5388,3.4674,3.4694,3.4694,3.4632,3.447,3.3521,3.3186,3.3382,3.3814,3.3971,3.4013,3.4367,3.4297,3.4223,3.4467,3.436,3.4139,3.4383,3.4427,3.4473,3.4314,3.4389,3.4451,3.4439,3.428,3.449,3.4601,3.4447,3.4678,3.4774,3.4793,3.4794,3.4883,3.4775,3.4735,3.4718,3.4735,3.48,3.4857,3.4933,3.4916,3.4831,3.4792,3.4717,3.4604,3.4508,3.4486,3.4425,3.4442,3.4519,3.4634,3.4693,3.4732,3.4771,3.4771,3.4809,3.4824,3.4842,3.4858,3.4875,3.4833,3.4568,3.3633,3.2939,3.2784,3.3051,3.3293,3.3225,3.3293,3.3009,3.2776,3.2623,3.2486,3.2533,3.2624,3.288,3.3166,3.3087,3.2988,3.2862,3.2844,3.2985,3.3334,3.3422,3.3151,3.2983,3.2294,3.1185,2.8428,2.6701,2.6287,2.5232,2.3027,2.1588,1.589,0.888,0.0328,-0.8288,-1.9008,-2.6417,-3.0191,-3.3287,-3.3282,-3.3598,-3.4885,-3.5058,-3.4179,-3.388,-3.3832,-3.3852,-3.4054,-3.4468,-3.4942,-3.4831,-3.4794,3.4694,3.4694,3.4694,3.4694,3.4675,3.4521,3.44,3.4352,3.4454,3.4494,3.4515,3.4615,3.4658,3.4572,3.4653,3.4634,3.4634,3.4653,3.4653,3.4724,3.4819,3.473,3.4728,3.4753,3.4745,3.4841,3.4949,3.5081,3.5143,3.5256,3.5372,3.5416,3.5314,3.5374,3.5391,3.5405,3.5303,3.5259,3.5322,3.5288,3.5377,3.5403,3.5415,3.5411,3.5393,3.5366,3.5339,3.5162,3.5113,3.5025,3.5534,3.5745,3.5764,3.6297,3.6696,3.6696,3.6715,3.6715,3.6711,3.6673,3.6553,3.6455,3.6,3.5578,3.5333,3.5262,3.5535,3.5225,3.5143,3.4944,3.4789,3.466,3.4577,3.4623,3.4703,3.4884,3.5168,3.523,3.5126,3.5132,3.5145,3.5358,3.5795,3.5876,3.5627,3.5762,3.5528,3.4753,3.3573,3.1609,3.0231,2.9297,2.8516,2.6871,2.2764,1.6262,0.7322,-0.1856,-1.2119,-2.1518,-2.6667,-2.9305,-3.0463,-3.1521,-3.241,-3.2752,-3.2593,-3.2487,-3.2528,-3.3284,-3.3598,-3.404,-3.4352,-3.4278,-3.4362,3.5057,3.5057,3.5094,3.5105,3.5119,3.5257,3.5243,3.5109,3.5028,3.5032,3.5059,3.5092,3.5018,3.4955,3.5051,3.5051,3.4955,3.5096,3.5158,3.5168,3.5066,3.5129,3.5095,3.5078,3.5165,3.523,3.5299,3.5426,3.5491,3.5589,3.567,3.5663,3.5703,3.576,3.5737,3.5749,3.5947,3.5928,3.5897,3.5756,3.5846,3.6086,3.6197,3.6255,3.6234,3.6393,3.6403,3.6192,3.6209,3.6248,3.6897,3.7013,3.7072,3.7566,3.7779,3.7721,3.7702,3.7683,3.7663,3.7721,3.7723,3.7816,3.8009,3.7896,3.7362,3.7053,3.6948,3.6776,3.6914,3.6974,3.6855,3.6772,3.6798,3.682,3.6911,3.6994,3.7129,3.7261,3.7281,3.7297,3.7413,3.7622,3.7806,3.7923,3.8127,3.8249,3.8199,3.779,3.6618,3.4986,3.3828,3.2938,3.26,3.1711,2.7319,2.2983,1.5353,0.6353,-0.348,-1.2532,-2.036,-2.5056,-2.5988,-2.7779,-2.9635,-2.9964,-3.0306,-3.0956,-3.1281,-3.1918,-3.2238,-3.2343,-3.2915,-3.3817,-3.4008,3.5601,3.5582,3.5687,3.5655,3.5703,3.5682,3.5663,3.5689,3.5523,3.5546,3.5551,3.5591,3.5465,3.5347,3.5456,3.5456,3.5378,3.5456,3.5514,3.567,3.5554,3.5547,3.557,3.5676,3.5554,3.5638,3.5697,3.5671,3.571,3.5749,3.5747,3.5735,3.5914,3.6021,3.6123,3.6381,3.6698,3.7031,3.6671,3.6348,3.6426,3.6715,3.7137,3.7266,3.7675,3.8143,3.8182,3.8234,3.8332,3.8293,3.8363,3.835,3.8589,3.8647,3.8667,3.8686,3.8809,3.8785,3.8794,3.8799,3.8702,3.8876,3.9208,3.9325,3.8947,3.8579,3.8402,3.8331,3.8418,3.8405,3.8293,3.8224,3.824,3.8273,3.8344,3.8411,3.8454,3.8554,3.862,3.8651,3.8791,3.8975,3.911,3.9135,3.9006,3.9843,3.9932,3.9642,3.8716,3.7246,3.6363,3.562,3.5449,3.4703,3.268,2.8191,2.3136,1.4695,0.4668,-0.4386,-1.2879,-1.766,-2.1452,-2.3634,-2.594,-2.7339,-2.8011,-2.8609,-2.9169,-2.9652,-2.9992,-3.0262,-3.1131,-3.2404,-3.2995,3.5667,3.5675,3.5696,3.5703,3.5703,3.5703,3.571,3.5703,3.5679,3.5659,3.5667,3.5675,3.5655,3.5638,3.5671,3.5671,3.5658,3.5663,3.5691,3.5704,3.5698,3.5713,3.5714,3.5717,3.5749,3.5825,3.5857,3.5835,3.5851,3.5859,3.5895,3.5972,3.6319,3.6713,3.6795,3.7175,3.7683,3.8054,3.7831,3.7654,3.7906,3.7981,3.8254,3.8274,3.8568,3.8685,3.8666,3.8625,3.8586,3.8568,3.912,3.9645,4.0288,4.0288,4.0308,4.0327,4.0135,4.0033,3.9967,3.9886,3.9873,3.9976,4.0233,4.0273,4.0213,4.0027,3.9876,3.9809,3.9742,3.9685,3.9621,3.9578,3.9541,3.9585,3.9653,3.9661,3.9689,3.9728,3.9786,3.9884,3.9981,4.0073,4.0184,4.0174,4.0123,4.0062,3.9962,3.9656,3.9007,3.789,3.7101,3.6629,3.7309,3.6672,3.5139,3.1901,2.6046,2.0746,1.1806,0.3079,-0.5737,-1.1594,-1.6936,-1.9746,-2.2045,-2.334,-2.4748,-2.6129,-2.663,-2.7104,-2.7908,-2.8324,-2.9345,-3.0616,-3.1191,3.5797,3.5783,3.5793,3.5753,3.5701,3.5702,3.5702,3.5702,3.5702,3.5702,3.5716,3.5763,3.5812,3.5814,3.5838,3.5793,3.5782,3.5786,3.5741,3.572,3.5711,3.5701,3.5712,3.5702,3.5728,3.5801,3.581,3.5808,3.5952,3.6321,3.645,3.6537,3.7118,3.7585,3.7654,3.8104,3.8574,3.8868,3.8866,3.9091,3.9325,3.9266,3.9087,3.9068,3.9325,3.9423,3.9575,3.9579,3.9575,3.9614,4.0018,4.0262,4.0671,4.073,4.0822,4.0822,4.0778,4.0851,4.0809,4.0746,4.0715,4.0682,4.0713,4.0559,4.0606,4.0409,4.033,4.0288,4.0292,4.024,4.02,4.015,4.0131,4.015,4.0214,4.0253,4.0289,4.0324,4.0359,4.0391,4.0402,4.032,4.0357,4.0198,4.0024,3.9393,3.9411,3.8939,3.8393,3.7764,3.7226,3.6702,3.6767,3.6528,3.4817,3.1742,2.7697,2.2472,1.7299,0.7486,-0.242,-0.7816,-1.2625,-1.5048,-1.7276,-1.9144,-2.0531,-2.219,-2.3589,-2.4119,-2.5271,-2.6413,-2.748,-2.8351,-2.876,3.5867,3.5872,3.5867,3.5807,3.571,3.571,3.5697,3.5697,3.571,3.5697,3.5713,3.582,3.5917,3.5957,3.5973,3.5921,3.5871,3.5821,3.5763,3.5728,3.5708,3.5699,3.5703,3.5699,3.5729,3.582,3.5922,3.5975,3.606,3.6669,3.7191,3.7319,3.7838,3.8433,3.8433,3.8646,3.9044,3.9497,3.9741,4.0053,4.0157,4.0163,3.9894,4.003,4.0346,4.0735,4.0746,4.0719,4.0699,4.0538,4.0383,4.0451,4.0509,4.0557,4.0567,4.0567,4.0537,4.0516,4.0544,4.0479,4.0513,4.0576,4.0655,4.0665,4.0645,4.061,4.0532,4.052,4.0543,4.0644,4.0594,4.0504,4.0469,4.0426,4.051,4.0513,4.0548,4.0574,4.0586,4.0597,4.0516,4.0404,4.0198,4.0063,3.9562,3.892,3.8372,3.7816,3.7238,3.6478,3.5859,3.4934,3.4425,3.4011,3.3615,3.115,2.7659,2.3718,1.7956,0.9082,0.1467,-0.3346,-0.7307,-0.9906,-1.2058,-1.4272,-1.6293,-1.8004,-1.942,-2.0964,-2.2209,-2.3319,-2.412,-2.4993,-2.5791,3.5734,3.5749,3.5741,3.5717,3.5703,3.5703,3.5703,3.5703,3.5696,3.5703,3.5677,3.571,3.5738,3.5752,3.5772,3.5755,3.5755,3.5768,3.5749,3.5716,3.5671,3.5688,3.5697,3.5659,3.5708,3.5929,3.6281,3.6674,3.6687,3.7394,3.7868,3.7885,3.8653,3.9094,3.9191,3.9474,3.9865,4.0087,4.0106,4.0298,4.0417,4.0455,4.061,4.0665,4.0704,4.0645,4.0558,4.0497,4.03,4.0158,4.0065,4.006,4.0079,4.0095,4.0095,4.0111,4.0111,4.0049,4.0053,4.0038,4.0055,4.002,4.0039,4.0003,4.0018,4.0065,4.0027,4.0034,4.0134,4.048,4.0488,4.0249,4.0154,4.0077,4.0095,3.9991,3.9943,3.9945,3.9965,3.9966,3.9929,3.9694,3.9418,3.9114,3.8674,3.8054,3.7538,3.7033,3.6501,3.5566,3.4515,3.3596,3.2645,3.1916,3.1622,3.0017,2.6934,2.3395,1.9203,1.1624,0.5529,0.1671,-0.1926,-0.5567,-0.7726,-0.9733,-1.1666,-1.4063,-1.5978,-1.7584,-1.887,-1.9957,-2.0827,-2.1722,-2.263]}]]